     2.11           OBSERVATION DATA    G (GPS)             RINEX VERSION / TYPE
teqc 2010Oct21 OPUS Account 20111028 15:24:51UTC            PGM / RUN BY / DATE
R 1526                                                      MARKER NAME
3052                                                        MARKER NUMBER
CSMIDDLETON NGS                                             OBSERVER / AGENCY
4624K01590 TRIMBLE NETR5 4.41                               REC # / TYPE / VERS
12236910 TRM41249.00 NONE                                   ANT # / TYPE
  -748984.1171 -5573926.7816  2998431.4554                  APPROX POSITION XYZ
        2.0010        0.0000        0.0000                  ANTENNA: DELTA H/E/N
     1     1                                                WAVELENGTH FACT L1/2
     5    L1    L2    C1    P1    P2                        # / TYPES OF OBSERV
    15                                                      LEAP SECONDS
  2011     8    23     0     0    0.0000000     GPS         TIME OF FIRST OBS
                                                            END OF HEADER
 11  8 23  0  0  0.0000000  0  9G09G17G04G10G12G05G25G02G30
 123031002.95817  95868382.95254  23412030.609                    23412041.152
 121010032.21217  94293584.43217  23027435.703                    23027444.813
 112851493.81018  87936340.86755  21474905.922                    21474914.129
 109840960.72318  85590509.73456  20902027.047                    20902034.992
 113835067.35617  88702703.23117  21662092.648                    21662099.734
 116950194.83117  91130097.57717  22254867.266                    22254876.813
 128624293.22816 100226766.20116  24476395.172                    24476406.145
 108460414.89218  84514689.16056  20639306.656                    20639312.309
 127792806.88016  99578888.35753  24318172.945                    24318182.617
 11  8 23  0  0 30.0000000  0  9G09G17G04G10G12G05G25G02G30
 123105492.651 7  95926426.76844  23426205.383                    23426216.074
 121059654.263 7  94332250.906 6  23036879.359                    23036887.289
 112925755.083 8  87994206.76745  21489037.297                    21489045.520
 109831626.663 7  85583236.46846  20900250.758                    20900258.844
 113767751.063 7  88650248.996 7  21649282.719                    21649290.379
 116856001.840 7  91056700.551 7  22236942.695                    22236952.039
 128522174.862 6 100147193.513 6  24456962.141                    24456973.461
 108455453.409 8  84510823.10346  20638362.438                    20638368.125
 127688602.498 6  99497690.20443  24298343.477                    24298352.949
 11  8 23  0  1  0.0000000  0  9G09G17G04G10G12G05G25G02G30
 123180204.612 7  95984643.76444  23440422.734                    23440433.910
 121109422.457 7  94371031.267 6  23046349.359                    23046358.023
 113000183.577 8  88052202.97945  21503200.469                    21503208.914
 109822915.304 8  85576448.42046  20898593.227                    20898601.199
 113700820.840 7  88598095.582 7  21636546.094                    21636553.789
 116762067.516 7  90983505.051 7  22219067.719                    22219077.109
 128420185.096 6 100067721.038 6  24437554.555                    24437565.379
 108450796.249 8  84507194.17446  20637476.117                    20637481.617
 127584588.798 6  99416640.62943  24278550.555                    24278560.223
 11  8 23  0  1 30.0000000  0  9G09G17G04G10G12G05G25G02G30
 123255135.745 7  96043031.54344  23454681.141                    23454691.996
 121159336.896 7  94409925.564 6  23055847.922                    23055856.848
 113074777.442 8  88110328.06045  21517395.398                    21517404.004
 109814827.686 8  85570146.40246  20897053.891                    20897062.227
 113634279.592 7  88546245.282 7  21623883.711                    21623891.492
 116668395.101 7  90910513.630 7  22201242.523                    22201250.770
 128318326.767 6  99988350.958 6  24418171.305                    24418182.680
 108446442.701 8  84503801.83046  20636648.031                    20636653.215
 127480768.817 6  99335741.99043  24258793.969                    24258803.602
 11  8 23  0  2  0.0000000  0  9G09G17G04G10G12G05G25G02G30
 123330282.233 7  96101587.14844  23468980.906                    23468992.246
 121209398.557 7  94448934.611 6  23065374.430                    23065382.816
 113149534.548 8  88168580.33145  21531621.023                    21531629.164
 109807364.378 8  85564330.86746  20895633.695                    20895641.684
 113568129.508 7  88494699.777 7  21611296.055                    21611303.609
 116574987.627 7  90837728.648 7  22183467.352                    22183476.387
 128216602.288 6  99909085.168 6  24398813.875                    24398825.078
 108442391.680 8  84500645.20546  20635877.078                    20635883.039
 127377145.319 6  99254996.47143  24239074.883                    24239084.352
 11  8 23  0  2 30.0000000  0  9G09G17G04G10G12G05G25G02G30
 123405640.800 7  96160308.00344  23483322.359                    23483332.895
 121259608.261 7  94488059.019 6  23074928.625                    23074937.250
 113224452.724 8  88226958.11845  21545877.672                    21545885.922
 109800525.872 7  85559002.17946  20894332.383                    20894339.906
 113502373.545 8  88443461.375 7  21598782.945                    21598790.559
 116481847.720 7  90765152.181 7  22165743.203                    22165752.609
 128115014.198 7  99829925.674 6  24379482.109                    24379493.879
 108438642.104 8  84497723.47846  20635163.531                    20635168.723
 127273721.015 6  99174406.15643  24219394.414                    24219403.602
 11  8 23  0  3  0.0000000  0  9G09G17G04G10G12G05G25G02G30
 123481208.293 7  96219191.68044  23497701.766                    23497712.172
 121309966.387 7  94527299.049 6  23084512.305                    23084520.371
 113299529.768 8  88285459.69645  21560164.609                    21560172.777
 109794312.977 7  85554160.98646  20893149.945                    20893158.012
 113437013.879 8  88392531.783 7  21586345.391                    21586352.707
 116388978.606 7  90692786.753 7  22148070.922                    22148080.461
 128013565.057 7  99750874.446 6  24360177.328                    24360188.629
 108435192.802 7  84495035.73146  20634507.063                    20634512.473
 127170498.796 6  99093973.31343  24199751.359                    24199760.465
 11  8 23  0  3 30.0000000  0  9G09G17G04G10G12G05G25G02G30
 123556981.114 6  96278235.32744  23512120.719                    23512131.523
 121360473.532 7  94566655.227 6  23094123.227                    23094131.496
 113374763.750 8  88344083.56145  21574481.094                    21574489.082
 109788725.862 8  85549807.40146  20892086.938                    20892094.813
 113372052.627 7  88341912.630 7  21573983.906                    21573991.148
 116296382.637 7  90620634.162 7  22130450.672                    22130459.883
 127912257.305 7  99671933.382 6  24340898.898                    24340910.539
 108432042.625 8  84492581.05946  20633907.406                    20633912.594
 127067481.403 6  99013700.08343  24180147.422                    24180157.223
 11  8 23  0  4  0.0000000  0  9G09G17G04G10G12G05G25G02G30
 123632955.964 7  96337436.40244  23526578.477                    23526589.621
 121411130.567 7  94606128.177 6  23103762.914                    23103771.395
 113450152.392 8  88402827.93645  21588827.266                    21588835.180
 109783765.366 8  85545942.10646  20891142.773                    20891151.199
 113307492.700 8  88291606.206 7  21561698.445                    21561705.617
 116204063.144 7  90548696.991 7  22112883.102                    22112891.977
 127811093.583 7  99593104.550 6  24321648.117                    24321659.664
 108429190.533 8  84490358.66746  20633364.789                    20633370.250
 126964671.596 6  98933588.65243  24160584.539                    24160593.316
 11  8 23  0  4 30.0000000  0  9G09G17G04G10G12G05G25G02G30
 123709129.551 7  96396792.32244  23541074.703                    23541085.398
 121461937.880 7  94645718.230 6  23113431.031                    23113440.324
 113525694.003 8  88461691.52045  21603202.234                    21603209.996
 109779432.322 8  85542565.72346  20890318.273                    20890326.117
 113243336.351 7  88241614.248 7  21549489.898                    21549497.492
 116112023.274 7  90476977.690 7  22095368.344                    22095376.945
 127710076.635 6  99514390.082 6  24302425.258                    24302436.570
 108426635.802 8  84488367.97846  20632878.297                    20632883.941
 126862072.380 6  98853641.23043  24141059.430                    24141068.617
 11  8 23  0  5  0.0000000  0  9G09G17G04G10G12G05G25G02G30
 123785498.211 7  96456300.27944  23555606.578                    23555617.414
 121512896.107 7  94685425.896 6  23123128.438                    23123137.473
 113601386.104 8  88520672.35845  21617605.953                    21617613.871
 109775726.552 7  85539678.12546  20889612.922                    20889621.281
 113179585.928 7  88191938.606 7  21537358.469                    21537366.113
 116020265.701 7  90405478.378 7  22077907.273                    22077915.785
 127609208.830 6  99435791.843 6  24283230.852                    24283241.609
 108424377.041 8  84486607.91846  20632448.602                    20632453.973
 126759686.381 6  98773859.98742  24121576.625                    24121585.367
 11  8 23  0  5 30.0000000  0  9G09G17G04G10G12G05G25G02G30
 123862058.786 7  96515957.76444  23570175.922                    23570186.605
 121564006.244 7  94725251.916 6  23132854.508                    23132863.313
 113677226.926 8  88579769.09245  21632037.797                    21632046.094
 109772649.000 8  85537280.05246  20889027.406                    20889035.344
 113116243.906 8  88142581.189 7  21525304.766                    21525312.457
 115928793.276 7  90334201.268 7  22060499.781                    22060509.211
 127508492.818 6  99357311.890 6  24264065.047                    24264076.293
 108422413.366 8  84485077.79946  20632074.992                    20632080.410
 126657516.537 6  98694247.15143  24102134.344                    24102142.918
 11  8 23  0  6  0.0000000  0  9G09G17G04G10G12G05G25G02G30
 123938807.793 7  96575762.08944  23584780.719                    23584791.930
 121615268.473 7  94765196.446 6  23142609.141                    23142618.105
 113753214.476 8  88638980.14045  21646497.805                    21646505.844
 109770200.208 8  85535371.93446  20888561.578                    20888569.742
 113053312.917 8  88093544.065 7  21513329.633                    21513337.391
 115837609.377 7  90263148.992 7  22043148.617                    22043157.816
 127407931.347 6  99278952.354 6  24244928.547                    24244940.270
 108420743.676 8  84483776.75846  20631757.359                    20631762.855
 126555565.728 6  98614804.99943  24082734.016                    24082742.207
 11  8 23  0  6 30.0000000  0  9G09G17G04G10G12G05G25G02G30
 124015741.746 7  96635710.51644  23599421.133                    23599431.793
 121666683.222 7  94805259.824 6  23152393.227                    23152401.973
 113829346.435 8  88698303.72945  21660985.242                    21660993.246
 109768380.197 8  85533953.76446  20888215.250                    20888222.891
 112990794.837 7  88044828.683 7  21501432.883                    21501440.016
 115746716.295 7  90192323.305 7  22025852.148                    22025860.988
 127307526.664 6  99200714.980 6  24225822.086                    24225833.598
 108419366.289 8  84482703.47547  20631495.281                    20631500.758
 126453836.614 6  98535535.60643  24063375.414                    24063383.738
 11  8 23  0  7  0.0000000  0  9G09G17G04G10G12G05G25G02G30
 124092857.423 7  96695800.54044  23614095.492                    23614106.781
 121718251.433 7  94845442.771 7  23162206.211                    23162215.188
 113905621.054 8  88757738.47645  21675499.594                    21675508.164
 109767189.255 8  85533025.77246  20887988.727                    20887996.523
 112928692.477 7  87996437.246 7  21489615.086                    21489622.379
 115656117.002 7  90121726.556 7  22008612.125                    22008620.566
 127207281.438 6  99122601.851 6  24206746.328                    24206757.180
 108418280.587 8  84481857.48946  20631288.711                    20631294.148
 126352331.911 7  98456441.05743  24044059.719                    24044068.230
 11  8 23  0  7 30.0000000  0  9G09G17G04G10G12G05G25G02G30
 124170151.268 7  96756029.42544  23628804.102                    23628815.090
 121769973.561 7  94885745.660 7  23172048.789                    23172057.680
 113982036.215 8  88817282.74845  21690040.977                    21690049.477
 109766627.693 8  85532588.21446  20887881.820                    20887889.641
 112867008.178 7  87948371.564 7  21477876.945                    21477884.410
 115565814.689 7  90051361.219 7  21991427.617                    21991436.430
 127107198.423 7  99044615.150 6  24187700.883                    24187712.246
 108417485.406 8  84481237.87346  20631137.234                    20631142.875
 126251054.656 6  98377523.78344  24024786.602                    24024795.730
 11  8 23  0  8  0.0000000  0  9G09G17G04G10G12G05G25G02G30
 124247619.516 7  96816394.18444  23643546.445                    23643557.484
 121821850.267 7  94926168.986 7  23181921.008                    23181930.051
 114058589.792 8  88876934.85845  21704608.703                    21704617.367
 109766695.678 8  85532641.21046  20887894.625                    20887902.473
 112805743.931 7  87900633.208 7  21466218.688                    21466226.082
 115475812.087 7  89981229.425 7  21974300.492                    21974309.566
 127007279.894 7  98966756.563 6  24168686.508                    24168697.902
 108416979.250 8  84480843.47246  20631040.953                    20631046.441
 126150007.318 7  98298785.62243  24005558.375                    24005566.855
 11  8 23  0  8 30.0000000  0  9G09G17G04G10G12G05G25G02G30
 124325259.504 7  96876892.77044  23658320.953                    23658331.941
 121873882.296 7  94966713.365 7  23191821.992                    23191831.121
 114135280.031 8  88936693.47045  21719202.914                    21719211.207
 109767393.977 8  85533185.35946  20888027.531                    20888035.320
 112744903.064 8  87853224.767 7  21454640.953                    21454648.953
 115386112.444 7  89911333.705 7  21957231.227                    21957240.082
 126907529.013 7  98889028.621 6  24149705.078                    24149716.234
 108416761.888 8  84480674.09947  20630999.555                    20631005.070
 126049193.374 6  98220229.32443  23986373.758                    23986382.734
 11  8 23  0  9  0.0000000  0  9G09G17G04G10G12G05G25G02G30
 124403067.557 7  96937522.32944  23673126.578                    23673138.848
 121926069.907 7  95007378.983 7  23201752.586                    23201762.238
 114212104.799 8  88996556.90645  21733822.023                    21733830.156
 109768722.422 7  85534220.52946  20888280.273                    20888288.102
 112684486.860 8  87806147.223 7  21443144.586                    21443151.742
 115296718.093 7  89841675.866 7  21940220.297                    21940228.996
 126807947.943 7  98811432.979 6  24130754.734                    24130766.559
 108416831.662 8  84480728.47246  20631012.727                    20631018.344
 125948615.152 6  98141856.74743  23967234.445                    23967243.301
 11  8 23  0  9 30.0000000  0  9G09G17G04G10G12G05G25G02G30
 124481040.132 7  96998280.04644  23687964.516                    23687976.348
 121978413.652 7  95048166.254 7  23211714.000                    23211723.105
 114289062.035 8  89056523.57245  21748466.188                    21748474.578
 109770681.142 7  85535746.81046  20888653.078                    20888660.594
 112624497.969 8  87759402.664 7  21431728.773                    21431736.293
 115207632.179 7  89772258.366 7  21923267.422                    21923276.340
 126708539.253 7  98733971.664 6  24111838.570                    24111849.367
 108417187.166 8  84481005.49646  20631080.266                    20631085.789
 125848275.467 6  98063670.01443  23948140.594                    23948149.773
 11  8 23  0 10  0.0000000  0  9G09G17G04G10G12G05G25G02G30
 124559173.846 7  97059163.36844  23702833.609                    23702844.672
 122030914.313 7  95089075.799 6  23221704.445                    23221713.652
 114366149.585 8  89116591.77345  21763135.602                    21763144.313
 109773270.324 8  85537764.37146  20889145.461                    20889153.539
 112564938.665 8  87712992.857 7  21420394.906                    21420401.980
 115118857.447 7  89703083.341 7  21906374.023                    21906382.840
 126609305.641 7  98656646.766 6  24092955.125                    24092966.445
 108417827.223 8  84481504.24646  20631202.320                    20631207.711
 125748177.257 6  97985671.46543  23929091.984                    23929101.371
 11  8 23  0 10 30.0000000  0  9G09G17G04G10G12G05G25G02G30
 124637465.469 7  97120169.73644  23717731.680                    23717743.340
 122083572.570 7  95130108.147 7  23231725.070                    23231733.953
 114443365.697 8  89176760.14645  21777828.977                    21777837.746
 109776490.692 7  85540273.76146  20889758.586                    20889766.453
 112505811.377 8  87666919.674 7  21409143.484                    21409150.840
 115030396.811 7  89634153.066 7  21889540.797                    21889549.191
 126510249.751 7  98579460.378 6  24074105.195                    24074116.313
 108418751.084 8  84482224.14346  20631377.781                    20631383.414
 125648323.411 6  97907863.27943  23910091.094                    23910099.855
 11  8 23  0 11  0.0000000  0  9G09G17G04G10G12G05G25G02G30
 124715911.748 7  97181296.56944  23732659.945                    23732671.219
 122136388.888 7  95171263.660 7  23241775.797                    23241784.551
 114520708.728 8  89237027.42045  21792547.172                    21792556.012
 109780342.006 7  85543274.78746  20890491.391                    20890499.379
 112447118.556 8  87621185.050 7  21397974.563                    21397981.945
 114942253.067 7  89565469.733 7  21872767.281                    21872775.395
 126411374.392 7  98502414.654 6  24055290.344                    24055301.266
 108419957.739 8  84483164.38846  20631607.734                    20631613.102
 125548716.777 6  97830247.69443  23891136.406                    23891145.324
 11  8 23  0 11 30.0000000  0  9G09G17G04G10G12G05G25G02G30
 124794508.991 6  97242541.10044  23747616.023                    23747627.309
 122189363.781 7  95212542.752 6  23251856.266                    23251865.621
 114598176.345 8  89297391.77045  21807289.000                    21807297.234
 109784824.161 7  85546767.38246  20891344.242                    20891351.766
 112388862.825 8  87575791.008 7  21386888.906                    21386895.770
 114854429.165 7  89497035.612 7  21856054.883                    21856062.910
 126312682.108 7  98425511.606 6  24036509.211                    24036520.176
 108421445.760 7  84484323.88246  20631890.945                    20631896.496
 125449360.210 6  97752827.01443  23872229.672                    23872238.477
 11  8 23  0 12  0.0000000  0  9G09G17G04G10G12G05G25G02G30
 124873254.142 7  97303900.82844  23762600.984                    23762612.602
 122242497.797 7  95253945.846 6  23261967.820                    23261976.898
 114675766.660 8  89357851.73345  21822053.805                    21822062.754
 109789937.170 8  85550751.54446  20892316.969                    20892325.031
 112331045.744 8  87530738.761 7  21375886.422                    21375893.883
 114766928.078 7  89428853.017 7  21839403.953                    21839411.895
 126214175.300 7  98348753.091 6  24017763.586                    24017775.090
 108423213.867 8  84485701.62646  20632227.523                    20632233.094
 125350256.333 6  97675603.20843  23853370.055                    23853379.617
 11  8 23  0 12 30.0000000  0  9G09G17G04G10G12G05G25G02G30
 124952143.681 7  97365373.07544  23777612.992                    23777625.039
 122295791.718 7  95295473.531 7  23272109.203                    23272118.539
 114753477.602 8  89418405.68845  21836841.930                    21836850.188
 109795681.358 8  85555227.53846  20893410.375                    20893418.699
 112273669.609 8  87486030.117 7  21364968.320                    21364975.789
 114679752.259 7  89360923.879 7  21822815.109                    21822823.539
 126115856.747 7  98272141.284 6  23999054.742                    23999065.910
 108425261.026 8  84487296.82147  20632617.000                    20632622.289
 125251408.112 6  97598578.59243  23834561.039                    23834569.570
 11  8 23  0 13  0.0000000  0  9G09G17G04G10G12G05G25G02G30
 125031174.158 7  97426955.16744  23792652.656                    23792663.039
 122349245.651 7  95337125.884 6  23282281.336                    23282290.480
 114831307.537 8  89479052.36045  21851652.266                    21851660.441
 109802056.498 8  85560195.19846  20894623.406                    20894631.137
 112216736.930 8  87441667.020 7  21354134.352                    21354141.180
 114592904.749 7  89293250.589 7  21806288.352                    21806297.086
 126017728.990 7  98195678.144 6  23980381.516                    23980392.945
 108427585.844 8  84489108.37446  20633059.117                    20633064.797
 125152818.343 7  97521755.40043  23815799.164                    23815808.809
 11  8 23  0 13 30.0000000  0  9G09G17G04G10G12G05G25G02G30
 125110342.265 6  97488644.48443  23807717.914                    23807728.945
 122402860.440 7  95378903.603 6  23292483.383                    23292492.828
 114909254.282 7  89539790.04745  21866485.180                    21866493.367
 109809062.636 8  85565654.52846  20895956.750                    20895964.898
 112160249.864 8  87397651.132 7  21343385.109                    21343392.605
 114506388.464 7  89225835.400 7  21789824.758                    21789833.348
 125919794.840 7  98119365.895 7  23961744.773                    23961756.395
 108430187.570 8  84491135.70446  20633554.227                    20633559.855
 125054489.942 7  97445135.88543  23797087.984                    23797097.379
 11  8 23  0 14  0.0000000  0  9G09G17G04G10G12G05G25G02G30
 125189644.828 7  97550438.59144  23822808.617                    23822819.996
 122456636.554 7  95420807.024 6  23302716.766                    23302725.969
 114987316.207 8  89600617.46945  21881340.070                    21881348.137
 109816699.520 8  85571605.37546  20897409.938                    20897418.070
 112104211.006 8  87353984.506 7  21332721.047                    21332728.336
 114420205.923 7  89158680.253 7  21773424.430                    21773433.277
 125822056.775 7  98043206.441 7  23943146.266                    23943157.766
 108433064.867 8  84493377.75946  20634101.695                    20634107.164
 124956425.726 7  97368722.21543  23778427.188                    23778436.082
 11  8 23  0 14 30.0000000  0  9G09G17G04G10G12G05G25G02G30
 125269077.989 6  97612334.46243  23837924.609                    23837935.285
 122510574.442 7  95462836.492 6  23312981.328                    23312990.477
 115065490.833 7  89661532.72445  21896216.172                    21896224.402
 109824966.961 8  85578047.55846  20898982.836                    20898990.871
 112048621.575 8  87310668.076 7  21322142.727                    21322150.188
 114334359.769 8  89091787.226 7  21757088.750                    21757097.230
 125724517.137 7  97967201.617 6  23924584.570                    23924596.344
 108436216.010 8  84495833.20146  20634701.711                    20634706.691
 124858628.205 7  97292516.40043  23759816.984                    23759825.746
 11  8 23  0 15  0.0000000  0  9G09G17G04G10G12G05G25G02G30
 125348638.550 7  97674329.59044  23853063.820                    23853075.508
 122564674.878 6  95504992.623 6  23323275.234                    23323284.938
 115143776.632 8  89722534.60245  21911113.305                    21911121.969
 109833864.941 8  85584981.06746  20900675.906                    20900683.914
 111993484.622 8  87267704.218 7  21311650.445                    21311658.031
 114248853.263 7  89025158.837 7  21740816.875                    21740825.539
 125627178.933 7  97891353.734 6  23906062.344                    23906073.840
 108439640.427 8  84498501.58346  20635353.297                    20635358.852
 124761100.431 7  97216520.77443  23741258.320                    23741266.617
 11  8 23  0 15 30.0000000  0  9G09G17G04G10G12G05G25G02G30
 125428323.262 7  97736421.49244  23868227.813                    23868238.504
 122618938.260 7  95547275.714 6  23333602.430                    23333611.160
 115222171.733 8  89783621.63845  21926031.469                    21926039.688
 109843393.474 8  85592405.91146  20902489.430                    20902497.344
 111938802.150 8  87225094.503 7  21301245.016                    21301252.227
 114163688.905 7  88958797.072 7  21724610.922                    21724619.520
 125530044.715 7  97815664.801 6  23887578.148                    23887589.578
 108443336.854 8  84501381.92646  20636056.508                    20636061.922
 124663845.390 7  97140737.70044  23722750.766                    23722759.352
 11  8 23  0 16  0.0000000  0  9G09G17G04G10G12G05G25G02G30
 125508128.819 7  97798607.49844  23883414.508                    23883425.816
 122673365.362 7  95589686.362 6  23343959.422                    23343969.047
 115300674.574 7  89844792.62945  21940970.180                    21940978.859
 109853552.516 8  85600322.06246  20904422.852                    20904430.441
 111884576.716 8  87182840.911 7  21290926.297                    21290933.352
 114078869.930 7  88892704.439 7  21708470.086                    21708478.645
 125433117.474 7  97740137.137 6  23869133.281                    23869144.727
 108447304.425 7  84504473.55546  20636811.469                    20636817.066
 124566866.095 6  97065169.48643  23704295.648                    23704305.395
 11  8 23  0 16 30.0000000  0  9G09G17G04G10G12G05G25G02G30
 125588051.772 6  97860885.00844  23898622.805                    23898634.551
 122727956.403 7  95632224.746 6  23354347.688                    23354356.922
 115379283.101 7  89906045.96045  21955928.586                    21955937.215
 109864341.845 8  85608729.34246  20906475.633                    20906483.840
 111830810.593 8  87140945.245 7  21280694.945                    21280702.309
 113994398.769 7  88826882.845 7  21692395.945                    21692404.789
 125336399.640 7  97664772.642 6  23850728.453                    23850739.641
 108451541.512 8  84507775.18646  20637617.875                    20637623.664
 124470165.185 7  96989818.20844  23685894.641                    23685903.203
 11  8 23  0 17  0.0000000  0  9G09G17G04G10G12G05G25G02G30
 125668089.093 7  97923251.64043  23913853.672                    23913865.434
 122782712.187 6  95674891.509 7  23364767.938                    23364776.762
 115457995.693 8  89967380.39345  21970907.297                    21970916.027
 109875761.409 8  85617627.71146  20908649.063                    20908656.766
 111777505.653 8  87099408.922 7  21270551.430                    21270558.906
 113910278.432 8  88761334.603 7  21676388.281                    21676397.051
 125239894.058 7  97589573.557 6  23832363.719                    23832375.199
 108456047.399 8  84511286.28346  20638475.461                    20638480.891
 124373745.701 6  96914686.22543  23667546.461                    23667555.410
 11  8 23  0 17 30.0000000  0  9G09G17G04G10G12G05G25G02G30
 125748237.075 7  97985704.48344  23929106.297                    23929117.504
 122837633.237 6  95717687.055 6  23375218.344                    23375227.695
 115536810.265 8  90028794.28145  21985905.352                    21985913.996
 109887810.396 8  85627016.55246  20910941.563                    20910949.516
 111724663.993 8  87058233.602 7  21260495.992                    21260503.465
 113826511.553 7  88696061.772 7  21660447.727                    21660456.449
 125143603.258 7  97514541.805 6  23814040.594                    23814051.859
 108460820.587 8  84515005.66146  20639383.844                    20639389.207
 124277610.311 7  96839775.62344  23649252.813                    23649261.020
 11  8 23  0 18  0.0000000  0  9G09G17G04G10G12G05G25G02G30
 125828492.382 6  98048240.95544  23944377.445                    23944389.379
 122892719.947 7  95760611.684 6  23385701.563                    23385710.422
 115615724.969 8  90090286.20345  22000922.719                    22000930.852
 109900488.617 8  85636895.68246  20913354.281                    20913362.137
 111672287.835 8  87017421.029 7  21250529.109                    21250536.512
 113743100.740 7  88631066.395 7  21644575.344                    21644583.402
 125047529.847 7  97439679.456 6  23795758.555                    23795769.332
 108465860.011 8  84518932.50346  20640342.523                    20640348.023
 124181761.864 7  96765088.57643  23631012.844                    23631021.766
 11  8 23  0 18 30.0000000  0  9G09G17G04G10G12G05G25G02G30
 125908851.922 7  98110858.65044  23959669.281                    23959681.574
 122947972.861 6  95803665.833 6  23396215.438                    23396224.641
 115694738.061 7  90151854.79645  22015957.820                    22015966.602
 109913795.551 8  85647264.71446  20915886.266                    20915894.020
 111620379.279 8  86976972.805 7  21240650.938                    21240658.242
 113660048.827 8  88566350.689 7  21628770.789                    21628779.500
 124951676.511 7  97364988.584 6  23777517.945                    23777529.227
 108471164.618 8  84523065.97746  20641351.813                    20641357.313
 124086203.083 7  96690627.27144  23612828.859                    23612837.781
 11  8 23  0 19  0.0000000  0  9G09G17G04G10G12G05G25G02G30
 125989312.305 6  98173554.94343  23974980.523                    23974993.273
 123003392.467 6  95846849.888 6  23406761.594                    23406770.465
 115773847.652 7  90213498.58145  22031011.656                    22031020.734
 109927731.090 8  85658123.57546  20918538.227                    20918546.383
 111568940.490 8  86936890.640 7  21230862.656                    21230869.762
 113577358.534 8  88501916.762 7  21613035.633                    21613043.996
 124856045.812 7  97290471.179 6  23759319.969                    23759330.867
 108476732.859 8  84527404.88446  20642411.836                    20642416.781
 123990936.782 7  96616393.84443  23594700.023                    23594708.734
 11  8 23  0 19 30.0000000  0  9G09G17G04G10G12G05G25G02G30
 126069870.078 6  98236327.10343  23990310.766                    23990322.395
 123058979.238 7  95890164.203 6  23417338.852                    23417348.641
 115853051.779 7  90275216.04445  22046084.258                    22046093.152
 109942294.660 8  85669471.81446  20921309.695                    20921317.316
 111517973.159 8  86897175.843 7  21221163.867                    21221170.957
 113495032.502 8  88437766.668 7  21597369.508                    21597378.141
 124760640.270 7  97216129.236 6  23741165.227                    23741176.129
 108482563.670 7  84531948.38446  20643520.914                    20643526.465
 123895965.794 7  96542390.52643  23576627.813                    23576636.363
 11  8 23  0 20  0.0000000  0  9G09G17G04G10G12G05G25G02G30
 126150521.894 7  98299172.51944  24005658.352                    24005669.582
 123114733.532 7  95933609.047 6  23427949.094                    23427958.570
 115932348.760 7  90337005.86845  22061173.820                    22061182.207
 109957486.012 8  85681309.23446  20924200.453                    20924208.410
 111467479.591 8  86857830.228 7  21211555.086                    21211562.336
 113413073.377 8  88373902.475 7  21581773.117                    21581781.840
 124665462.791 7  97141965.013 6  23723053.422                    23723064.461
 108488655.566 8  84536695.32946  20644680.352                    20644685.848
 123801292.861 7  96468619.47943  23558612.375                    23558620.418
 11  8 23  0 20 30.0000000  0  9G09G17G04G10G12G05G25G02G30
 126231264.456 7  98362088.67144  24021023.305                    24021035.316
 123170656.150 7  95977185.087 6  23438590.977                    23438599.785
 116011736.901 7  90398866.72545  22076281.102                    22076289.688
 109973304.714 8  85693635.48746  20927210.836                    20927218.664
 111417462.127 8  86818855.594 7  21202037.219                    21202044.398
 113331484.087 8  88310326.476 7  21566246.984                    21566255.523
 124570516.036 7  97067980.561 6  23704985.641                    23704996.969
 108495007.718 8  84541645.07346  20645889.227                    20645894.723
 123706921.025 7  96395083.02743  23540652.906                    23540662.281
 11  8 23  0 21  0.0000000  0  9G09G17G04G10G12G05G25G02G30
 126312094.490 7  98425072.96744  24036404.625                    24036416.914
 123226747.290 7  96020892.435 7  23449264.664                    23449273.930
 116091214.344 7  90460797.16145  22091405.156                    22091414.016
 109989750.083 8  85706450.05646  20930339.906                    20930347.809
 111367922.744 8  86780253.487 7  21192610.125                    21192617.566
 113250267.089 7  88247040.567 7  21550791.953                    21550799.742
 124475802.572 7  96994177.902 7  23686961.852                    23686973.328
 108501618.796 8  84546796.56646  20647147.180                    20647152.449
 123612853.032 7  96321783.31044  23522753.250                    23522761.406
 11  8 23  0 21 30.0000000  0  9G09G17G04G10G12G05G25G02G30
 126393008.623 6  98488122.83943  24051802.273                    24051813.199
 123283007.557 7  96064731.565 6  23459970.781                    23459979.699
 116170779.239 7  90522795.75245  22106545.961                    22106554.531
 110006821.226 8  85719752.24646  20933588.594                    20933596.688
 111318863.014 8  86742025.155 7  21183274.391                    21183281.465
 113169425.002 8  88184046.787 7  21535408.484                    21535416.129
 124381324.929 7  96920558.998 7  23668983.133                    23668994.324
 108508487.300 8  84552148.65546  20648454.125                    20648459.500
 123519091.542 7  96248722.43944  23504911.008                    23504919.414
 11  8 23  0 22  0.0000000  0  9G09G17G04G10G12G05G25G02G30
 126474003.544 7  98551235.61743  24067214.914                    24067227.293
 123339437.565 7  96108702.971 6  23470709.273                    23470718.504
 116250429.897 7  90584861.17545  22121702.734                    22121711.844
 110024518.167 8  85733542.06746  20936956.266                    20936964.195
 111270285.445 8  86704172.520 7  21174030.391                    21174037.645
 113088960.811 7  88121347.461 7  21520096.563                    21520104.742
 124287086.051 7  96847126.148 7  23651050.531                    23651061.961
 108515612.113 8  84557700.45646  20649810.133                    20649815.633
 123425639.537 7  96175902.73644  23487127.453                    23487135.559
 11  8 23  0 22 30.0000000  0  9G09G17G04G10G12G05G25G02G30
 126555076.195 6  98614408.98343  24082643.211                    24082654.871
 123396037.839 7  96152807.051 6  23481479.867                    23481488.734
 116330164.804 7  90646992.25045  22136875.961                    22136884.637
 110042840.720 8  85747819.37546  20940443.055                    20940450.508
 111222192.113 8  86666697.220 7  21164878.266                    21164885.441
 113008877.035 7  88058944.575 7  21504856.719                    21504865.176
 124193088.686 7  96773881.481 7  23633163.148                    23633174.594
 108522992.707 8  84563451.56946  20651214.383                    20651219.715
 123332499.945 7  96103326.46243  23469403.703                    23469412.324
 11  8 23  0 23  0.0000000  0  9G09G17G04G10G12G05G25G02G30
 126636223.240 6  98677640.33443  24098085.422                    24098096.984
 123452808.701 7  96197044.047 6  23492283.086                    23492292.492
 116409982.297 7  90709187.67845  22152065.203                    22152073.668
 110061788.146 8  85762583.59146  20944048.367                    20944056.371
 111174584.908 8  86629600.713 7  21155819.055                    21155826.586
 112929176.308 7  87996840.179 7  21489689.883                    21489698.754
 124099335.509 7  96700827.091 7  23615322.500                    23615334.066
 108530627.491 8  84569400.75446  20652667.164                    20652672.855
 123239675.616 6  96030995.82744  23451740.102                    23451748.652
 11  8 23  0 23 30.0000000  0  9G09G17G04G10G12G05G25G02G30
 126717441.174 6  98740926.85543  24113539.461                    24113552.211
 123509750.418 7  96241414.197 6  23503119.039                    23503128.297
 116489880.159 7  90771445.73345  22167268.625                    22167277.379
 110081359.226 8  85777833.77446  20947773.109                    20947780.863
 111127465.498 8  86592884.318 7  21146852.891                    21146859.809
 112849861.003 7  87935036.121 7  21474596.633                    21474605.387
 124005828.873 7  96627964.828 7  23597528.844                    23597540.586
 108538515.002 8  84575546.86146  20654168.109                    20654173.719
 123147169.052 7  95958912.83144  23434135.711                    23434145.039
 11  8 23  0 24  0.0000000  0  9G09G17G04G10G12G05G25G02G30
 126798726.878 6  98804266.20043  24129008.805                    24129020.879
 123566863.770 7  96285918.094 6  23513986.742                    23513996.254
 116569856.949 7  90833765.29145  22182488.156                    22182496.438
 110101553.490 8  85793569.55346  20951615.703                    20951623.301
 111080836.517 8  86556550.066 7  21137979.266                    21137986.660
 112770933.915 7  87873534.552 7  21459577.188                    21459585.828
 123912571.700 7  96555296.937 7  23579782.727                    23579793.598
 108546654.122 8  84581889.03346  20655716.617                    20655722.508
 123054983.297 7  95887079.81443  23416593.383                    23416602.402
 11  8 23  0 24 30.0000000  0  9G09G17G04G10G12G05G25G02G30
 126880077.079 6  98867655.78943  24144489.148                    24144500.906
 123624148.928 7  96330555.851 6  23524887.766                    23524897.367
 116649910.731 7  90896144.85045  22197721.977                    22197730.262
 110122370.098 8  85809790.27746  20955577.078                    20955584.887
 111034699.212 8  86520598.932 7  21129199.789                    21129207.043
 112692397.883 7  87812337.685 7  21444632.375                    21444640.973
 123819566.488 7  96482825.372 7  23562084.211                    23562095.496
 108555043.541 8  84588426.24146  20657313.414                    20657318.723
 122963121.049 6  95815498.86743  23399112.539                    23399121.801
 11  8 23  0 25  0.0000000  0  9G09G17G04G10G12G05G25G02G30
 126961488.434 6  98931093.04843  24159980.898                    24159993.570
 123681606.348 7  96375327.813 6  23535821.766                    23535831.164
 116730040.117 7  90958583.29845  22212969.891                    22212978.641
 110143808.559 8  85826495.56646  20959656.328                    20959664.398
 110989055.733 8  86485032.610 7  21120513.727                    21120521.551
 112614255.284 8  87751447.411 7  21429762.422                    21429770.688
 123726816.060 7  96410552.335 7  23544434.680                    23544445.785
 108563682.225 8  84595157.68146  20658957.523                    20658963.254
 122871585.165 6  95744172.21643  23381694.359                    23381703.348
 11  8 23  0 25 30.0000000  0  9G09G17G04G10G12G05G25G02G30
 127042957.929 6  98994575.60344  24175484.766                    24175496.520
 123739236.831 7  96420234.622 6  23546788.586                    23546798.152
 116810243.601 7  91021079.49345  22228232.383                    22228240.961
 110165868.472 8  85843685.11346  20963854.641                    20963862.367
 110943908.713 8  86449853.120 7  21111923.008                    21111929.973
 112536509.027 8  87690865.979 7  21414967.719                    21414976.160
 123634323.369 7  96338480.131 7  23526833.766                    23526844.707
 108572569.252 8  84602082.63446  20660648.328                    20660654.008
 122780378.683 7  95673102.28144  23364337.555                    23364347.395
 11  8 23  0 26  0.0000000  0  9G09G17G04G10G12G05G25G02G30
 127124481.987 7  99058100.66444  24190998.617                    24191011.051
 123797040.719 7  96465276.563 6  23557788.445                    23557797.672
 116890519.147 7  91083631.83645  22243508.477                    22243517.090
 110188548.650 8  85861357.99246  20968170.188                    20968178.344
 110899259.105 8  86415061.234 7  21103426.211                    21103433.484
 112459161.477 8  87630595.228 7  21400248.813                    21400257.434
 123542090.722 7  96266610.547 6  23509282.406                    23509293.230
 108581703.178 8  84609199.97646  20662386.398                    20662392.355
 122689504.214 7  95602291.02544  23347045.781                    23347054.672
 11  8 23  0 26 30.0000000  0  9G09G17G04G10G12G05G25G02G30
 127206057.593 6  99121665.90443  24206521.648                    24206533.691
 123855018.299 7  96510453.845 6  23568821.367                    23568830.477
 116970865.164 7  91146239.08045  22258797.234                    22258806.016
 110211848.528 8  85879513.75246  20972603.984                    20972612.133
 110855109.058 8  86380658.609 7  21095024.773                    21095031.855
 112382215.211 8  87570637.165 7  21385606.508                    21385615.129
 123450120.915 7  96194945.789 6  23491781.039                    23491791.746
 108591082.823 8  84616508.78146  20664171.727                    20664177.176
 122598964.487 7  95531740.64944  23329815.977                    23329825.094
 11  8 23  0 27  0.0000000  0  9G09G17G04G10G12G05G25G02G30
 127287681.450 6  99185268.70243  24222053.992                    24222066.258
 123913170.111 7  96555766.877 6  23579886.969                    23579896.738
 117051279.983 7  91208899.94145  22274099.805                    22274108.992
 110235767.123 8  85898151.63046  20977155.633                    20977163.184
 110811460.637 8  86346646.871 7  21086718.820                    21086725.918
 112305672.800 8  87510993.783 7  21371040.688                    21371049.430
 123358416.582 7  96123487.910 6  23474329.961                    23474341.352
 108600707.055 8  84624008.17946  20666002.797                    20666008.762
 122508762.334 7  95461453.29344  23312650.945                    23312659.863
 11  8 23  0 27 30.0000000  0  9G09G17G04G10G12G05G25G02G30
 127369350.308 6  99248906.59743  24237595.430                    24237607.570
 123971496.517 7  96601215.961 6  23590986.492                    23590995.719
 117131761.863 7  91271613.05345  22289415.266                    22289423.883
 110260303.883 8  85917271.20746  20981824.891                    20981832.340
 110768315.523 8  86313027.301 7  21078508.773                    21078515.809
 112229536.712 8  87451667.026 7  21356552.898                    21356560.887
 123266980.408 7  96052238.990 7  23456930.258                    23456941.672
 108610574.115 8  84631696.79746  20667880.695                    20667886.246
 122418900.556 7  95391431.16444  23295550.828                    23295559.527
 11  8 23  0 28  0.0000000  0  9G09G17G04G10G12G05G25G02G30
 127451060.996 6  99312577.07444  24253144.563                    24253157.395
 124029997.931 6  96646801.449 6  23602119.109                    23602127.914
 117212309.577 7  91334377.45545  22304743.078                    22304751.613
 110285457.821 8  85936871.69246  20986611.500                    20986619.422
 110725675.738 8  86279801.511 7  21070394.344                    21070401.809
 112153809.452 8  87392658.822 7  21342142.117                    21342150.082
 123175815.175 7  95981201.182 7  23439582.211                    23439593.324
 108620683.229 8  84639574.02346  20669804.031                    20669809.875
 122329382.057 7  95321676.50244  23278516.336                    23278525.117
 11  8 23  0 28 30.0000000  0  9G09G17G04G10G12G05G25G02G30
 127532810.235 6  99376277.60643  24268700.906                    24268713.211
 124088674.682 6  96692523.575 6  23613284.953                    23613293.941
 117292921.178 7  91397191.63845  22320082.656                    22320092.016
 110311227.688 8  85956952.13046  20991515.188                    20991523.488
 110683542.822 8  86246970.670 7  21062376.961                    21062383.715
 112078493.524 8  87333971.136 7  21327810.211                    21327818.223
 123084923.385 7  95910376.444 6  23422285.773                    23422297.082
 108631033.191 8  84647638.92946  20671773.813                    20671779.152
 122240209.381 7  95252191.34044  23261547.758                    23261556.254
 11  8 23  0 29  0.0000000  0  9G09G17G04G10G12G05G25G02G30
 127614594.926 6  99440005.79143  24284265.094                    24284276.281
 124147527.424 6  96738382.799 6  23624484.023                    23624493.328
 117373595.292 7  91460054.54745  22335434.398                    22335443.383
 110337613.021 8  85977512.14746  20996536.313                    20996544.590
 110641919.290 8  86214536.760 7  21054456.156                    21054463.508
 112003591.841 8  87275606.225 7  21313556.797                    21313564.859
 122994307.969 7  95839767.068 7  23405042.305                    23405053.859
 108641622.898 8  84655890.64446  20673789.430                    20673794.625
 122151385.493 7  95182977.94644  23244644.820                    23244653.363
 11  8 23  0 29 30.0000000  0  9G09G17G04G10G12G05G25G02G30
 127696411.742 6  99503758.99343  24299834.242                    24299845.703
 124206556.428 6  96784379.373 6  23635716.523                    23635726.457
 117454330.071 7  91522964.70945  22350797.945                    22350806.621
 110364612.403 8  85998550.65146  21001673.758                    21001681.605
 110600806.335 8  86182500.699 7  21046632.531                    21046639.758
 111929106.493 8  87217565.751 7  21299382.438                    21299390.910
 122903971.418 7  95769375.003 7  23387852.414                    23387863.406
 108652450.804 8  84664327.97146  20675849.305                    20675854.941
 122062913.135 7  95114038.49244  23227809.320                    23227817.941
 11  8 23  0 30  0.0000000  0  9G09G17G04G10G12G05G25G02G30
 127778257.675 6  99567534.87643  24315408.727                    24315421.012
 124265762.302 6  96830513.758 6  23646983.281                    23646992.887
 117535123.917 7  91585920.89045  22366172.570                    22366181.293
 110392225.296 8  86020067.21646  21006928.344                    21006936.148
 110560205.788 8  86150863.911 7  21038906.664                    21038914.016
 111855040.073 8  87159851.707 7  21285288.281                    21285296.531
 122813916.518 7  95699202.398 6  23370715.328                    23370726.043
 108663516.004 8  84672950.20146  20677955.148                    20677960.605
 121974795.045 7  95045375.07244  23211040.266                    23211048.734
 11  8 23  0 30 30.0000000  0  9G09G17G04G10G12G05G25G02G30
 127860129.851 6  99631331.21443  24330988.633                    24331001.078
 124325145.697 6  96876786.480 6  23658283.594                    23658292.969
 117615976.067 7  91648922.51245  22381558.055                    22381566.852
 110420450.918 8  86042061.23746  21012299.742                    21012307.449
 110520119.891 8  86119628.151 7  21031278.750                    21031285.750
 111781395.631 8  87102466.473 7  21271273.750                    21271282.352
 122724146.515 7  95629251.780 7  23353631.875                    23353643.469
 108674817.909 8  84681756.88646  20680105.539                    20680111.137
 121887034.707 6  94976990.43944  23194340.555                    23194348.664
 11  8 23  0 31  0.0000000  0  9G09G17G04G10G12G05G25G02G30
 127942024.362 6  99695144.97943  24346571.914                    24346584.906
 124384706.398 6  96923197.372 6  23669617.773                    23669627.238
 117696884.021 7  91711967.62345  22396954.359                    22396962.941
 110449287.322 8  86064531.18346  21017787.016                    21017795.105
 110480549.602 8  86088794.168 7  21023748.273                    21023755.367
 111708174.887 8  87045411.393 7  21257340.570                    21257348.434
 122634663.141 7  95559524.536 7  23336604.586                    23336615.418
 108686354.148 8  84690746.16746  20682301.008                    20682306.570
 121799633.858 6  94908885.92844  23177708.305                    23177716.656
 11  8 23  0 31 30.0000000  0  9G09G17G04G10G12G05G25G02G30
 128023938.574 6  99758974.09643  24362160.445                    24362173.531
 124444444.873 6  96969746.769 6  23680985.586                    23680995.336
 117777846.530 7  91775055.24345  22412361.492                    22412370.152
 110478733.848 8  86087476.54546  21023390.656                    21023398.625
 110441497.511 8  86058363.971 7  21016317.211                    21016324.129
 111635380.415 8  86988688.461 7  21243488.383                    21243496.020
 122545469.460 7  95490023.021 7  23319631.617                    23319642.086
 108698124.009 8  84699917.49646  20684540.586                    20684546.164
 121712595.638 6  94841063.99144  23161145.078                    23161153.309
 11  8 23  0 32  0.0000000  0  9G09G17G04G10G12G05G25G02G30
 128105868.715 6  99822815.63343  24377751.602                    24377764.172
 124504361.463 6  97016434.933 6  23692386.969                    23692397.152
 117858861.762 7  91838183.95245  22427778.305                    22427786.793
 110508789.323 8  86110896.40746  21029109.820                    21029117.824
 110402964.292 8  86028338.084 7  21008984.523                    21008991.895
 111563014.454 8  86932299.447 7  21229717.461                    21229725.316
 122456567.961 7  95420749.182 7  23302713.734                    23302724.848
 108710125.976 8  84709269.68446  20686824.617                    20686830.063
 121625922.584 6  94773526.58044  23144652.258                    23144660.598
 11  8 23  0 32 30.0000000  0  9G09G17G04G10G12G05G25G02G30
 128187811.623 6  99886667.14043  24393343.969                    24393357.750
 124564456.737 6  97063262.359 6  23703822.906                    23703832.250
 117939928.154 7  91901352.53545  22443204.211                    22443213.168
 110539452.677 8  86134789.92946  21034944.805                    21034952.914
 110364951.884 8  85998718.026 7  21001750.984                    21001758.215
 111491079.528 8  86876246.302 7  21216028.664                    21216036.559
 122367961.133 7  95351704.953 7  23285852.469                    23285863.656
 108722358.771 8  84718801.74146  20689152.391                    20689158.098
 121539617.329 6  94706275.77244  23128228.672                    23128237.145
 11  8 23  0 33  0.0000000  0  9G09G17G04G10G12G05G25G02G30
 128269764.462 6  99950526.37743  24408939.922                    24408952.750
 124624730.827 6  97110229.129 6  23715293.438                    23715302.516
 118021044.174 7  91964559.78745  22458639.961                    22458648.723
 110570722.719 8  86159156.19646  21040895.508                    21040903.199
 110327461.975 8  85969505.106 7  20994616.773                    20994624.109
 111419577.990 8  86820530.861 7  21202422.031                    21202430.188
 122279651.765 7  95282892.513 7  23269047.742                    23269058.957
 108734821.419 8  84728512.90846  20691524.367                    20691529.566
 121453682.703 6  94639313.76144  23111875.758                    23111884.746
 11  8 23  0 33 30.0000000  0  9G09G17G04G10G12G05G25G02G30
 128351723.789 6 100014390.69343  24424536.102                    24424549.043
 124685184.095 6  97157335.494 6  23726797.336                    23726806.516
 118102208.503 7  92027804.68144  22474085.602                    22474094.410
 110602598.265 8  86183994.29846  21046961.094                    21046969.016
 110290496.501 8  85940700.838 7  20987582.258                    20987589.691
 111348512.195 8  86765154.962 7  21188898.672                    21188907.438
 122191642.612 7  95214313.997 7  23252300.578                    23252311.148
 108747512.549 8  84738402.11846  20693939.055                    20693944.348
 121368121.529 6  94572642.76244  23095594.094                    23095602.844
 11  8 23  0 34  0.0000000  0  9G09G17G04G10G12G05G25G02G30
 128433686.697 6 100078257.78243  24440133.367                    24440146.566
 124745816.642 6  97204581.578 6  23738335.555                    23738344.887
 118183419.552 7  92091085.99545  22489539.313                    22489548.129
 110635078.019 8  86209303.20246  21053141.727                    21053149.797
 110254056.905 8  85912306.345 7  20980648.227                    20980655.492
 111277884.639 8  86710120.547 7  21175459.016                    21175466.555
 122103936.422 7  95145971.551 7  23235610.359                    23235620.789
 108760431.006 8  84748468.46646  20696397.156                    20696403.316
 121282936.549 7  94506264.88944  23079383.695                    23079392.363
 11  8 23  0 34 30.0000000  0  9G09G17G04G10G12G05G25G02G30
 128515650.215 6 100142125.33643  24455730.352                    24455743.516
 124806629.349 6  97251968.061 6  23749906.922                    23749916.707
 118264675.931 7  92154402.61945  22505001.633                    22505010.578
 110668160.977 7  86235082.13546  21059437.070                    21059445.281
 110218144.953 8  85884323.003 7  20973814.539                    20973821.809
 111207697.955 8  86655429.667 7  21162102.609                    21162110.539
 122016535.816 7  95077867.211 7  23218978.820                    23218989.172
 108773575.834 8  84758711.20346  20698898.742                    20698904.395
 121198130.488 7  94440182.28544  23063246.039                    23063254.469
 11  8 23  0 35  0.0000000  0  9G09G17G04G10G12G05G25G02G30
 128597611.074 6 100205990.80143  24471327.570                    24471339.828
 124867622.393 6  97299495.034 6  23761514.547                    23761523.379
 118345976.231 7  92217753.47444  22520473.234                    22520481.605
 110701846.003 8  86261330.20446  21065847.266                    21065855.539
 110182762.373 8  85856752.154 7  20967081.203                    20967088.848
 111137954.128 8  86601083.869 7  21148830.938                    21148839.051
 121929443.483 7  95010003.094 7  23202405.117                    23202415.531
 108786945.818 8  84769129.39246  20701443.172                    20701448.523
 121113706.190 7  94374397.17144  23047180.367                    23047189.480
 11  8 23  0 35 30.0000000  0  9G09G17G04G10G12G05G25G02G30
 128679566.317 6 100269851.91743  24486922.898                    24486935.789
 124928795.777 6  97347162.579 6  23773154.742                    23773164.875
 118427318.817 7  92281137.29244  22535951.828                    22535960.895
 110736131.391 8  86288046.09146  21072371.633                    21072379.273
 110147910.456 8  85829594.811 7  20960449.484                    20960456.566
 111068655.350 8  86547084.878 7  21135643.703                    21135651.559
 121842661.954 7  94942381.164 7  23185891.398                    23185901.742
 108800539.271 8  84779721.70846  20704029.953                    20704035.180
 121029666.070 7  94308911.41444  23031187.953                    23031197.414
 11  8 23  0 36  0.0000000  0  9G09G17G04G10G12G05G25G02G30
 128761512.423 6 100333705.90043  24502516.938                    24502529.441
 124990150.250 6  97394971.217 6  23784830.258                    23784839.695
 118508702.064 7  92344552.77245  22551438.203                    22551447.441
 110771015.857 8  86315228.79846  21079009.773                    21079017.871
 110113590.474 8  85802851.963 7  20953918.602                    20953925.320
 110999803.988 8  86493434.513 7  21122541.609                    21122549.574
 121756193.745 7  94875003.359 7  23169437.008                    23169446.801
 108814355.182 8  84790487.37246  20706658.719                    20706664.164
 120946012.724 7  94243727.03444  23015269.016                    23015277.750
 11  8 23  0 36 30.0000000  0  9G09G17G04G10G12G05G25G02G30
 128843446.232 7 100397550.30544  24518108.117                    24518121.277
 125051686.100 6  97442921.176 6  23796539.859                    23796549.961
 118590124.583 7  92407998.86944  22566932.844                    22566941.953
 110806498.048 8  86342877.25846  21085762.055                    21085770.367
 110079803.955 8  85776524.808 7  20947488.859                    20947496.504
 110931402.643 8  86440134.797 7  21109525.250                    21109533.605
 121670041.683 7  94807871.921 7  23153042.656                    23153052.934
 108828392.349 8  84801425.43946  20709330.180                    20709335.332
 120862748.991 7  94178846.24544  22999424.961                    22999433.234
 11  8 23  0 37  0.0000000  0  9G09G17G04G10G12G05G25G02G30
 128925364.817 7 100461382.82143  24533697.156                    24533709.656
 125113403.412 6  97491012.572 6  23808285.305                    23808294.375
 118671585.224 7  92471474.66745  22582434.609                    22582443.156
 110842576.863 8  86370990.61646  21092627.477                    21092635.688
 110046552.883 8  85750614.875 8  20941161.656                    20941169.188
 110863453.492 8  86387187.453 7  21096595.078                    21096602.949
 121584208.497 7  94740988.955 7  23136709.063                    23136719.715
 108842649.733 8  84812535.10446  20712043.102                    20712048.227
 120779877.613 7  94114271.19844  22983655.039                    22983663.594
 11  8 23  0 37 30.0000000  0  9G09G17G04G10G12G05G25G02G30
 129007265.301 7 100525201.27543  24549282.680                    24549295.418
 125175302.865 6  97539245.880 6  23820064.070                    23820073.375
 118753082.471 7  92534978.98844  22597942.906                    22597951.313
 110879251.084 8  86399567.92046  21099606.313                    21099614.371
 110013838.679 8  85725123.297 7  20934936.195                    20934943.777
 110795958.947 8  86334594.345 7  21083751.266                    21083759.262
 121498697.006 7  94674356.662 7  23120436.813                    23120447.469
 108857126.458 8  84823815.67546  20714797.547                    20714802.988
 120697401.602 7  94050004.21444  22967959.984                    22967968.504
 11  8 23  0 38  0.0000000  0  9G09G17G04G10G12G05G25G02G30
 129089144.563 6 100589003.15544  24564863.453                    24564877.410
 125237384.486 6  97587621.156 6  23831877.695                    23831887.230
 118834614.807 7  92598510.65444  22613457.750                    22613466.707
 110916519.119 8  86428607.94546  21106698.258                    21106706.391
 109981662.755 8  85700051.156 7  20928813.453                    20928820.906
 110728921.127 8  86282357.120 7  21070994.273                    21071002.117
 121413509.490 7  94607976.813 7  23104226.414                    23104236.563
 108871820.676 8  84835265.72946  20717593.852                    20717599.504
 120615323.208 7  93986047.06044  22952340.977                    22952349.512
 11  8 23  0 38 30.0000000  0  9G09G17G04G10G12G05G25G02G30
 129170999.407 6 100652786.01743  24580440.094                    24580453.590
 125299648.763 6  97636138.720 6  23843726.109                    23843736.102
 118916180.606 7  92662068.39944  22628979.094                    22628988.086
 110954379.463 8  86458109.50546  21113902.734                    21113911.102
 109950026.836 8  85675399.793 7  20922793.273                    20922800.676
 110662342.341 8  86230477.598 7  21058324.898                    21058332.809
 121328648.672 7  94541851.539 7  23088077.602                    23088087.953
 108886731.337 8  84846884.43546  20720431.375                    20720436.668
 120533645.043 7  93922401.78544  22936797.914                    22936806.488
 11  8 23  0 39  0.0000000  0  9G09G17G04G10G12G05G25G02G30
 129252826.815 6 100716547.47944  24596011.727                    24596024.801
 125362095.688 6  97684798.634 6  23855608.867                    23855619.223
 118997778.986 7  92725651.52444  22644507.148                    22644515.824
 110992830.929 7  86488071.68546  21121220.266                    21121227.871
 109918931.936 8  85651170.012 7  20916875.961                    20916883.168
 110596224.502 8  86178957.250 7  21045742.891                    21045750.527
 121244117.364 7  94475983.029 7  23071991.656                    23072002.555
 108901857.691 8  84858671.20746  20723309.859                    20723315.398
 120452369.972 7  93859070.58544  22921332.156                    22921340.629
 11  8 23  0 39 30.0000000  0  9G09G17G04G10G12G05G25G02G30
 129334623.761 6 100780285.20043  24611576.922                    24611590.957
 125424725.533 6  97733601.059 6  23867527.688                    23867537.441
 119079408.021 7  92789258.53444  22660040.844                    22660049.168
 111031871.841 8  86518493.16246  21128649.422                    21128657.293
 109888379.326 8  85627362.803 7  20911062.266                    20911069.320
 110530569.650 8  86127797.673 7  21033249.523                    21033257.227
 121159918.009 7  94410373.186 7  23055969.102                    23055979.879
 108917198.042 8  84870624.72946  20726229.250                    20726234.500
 120371500.500 7  93796055.46944  22905942.133                    22905951.258
 11  8 23  0 40  0.0000000  0  9G09G17G04G10G12G05G25G02G30
 129416387.230 6 100843996.80943  24627136.266                    24627149.867
 125487538.870 5  97782546.460 6  23879480.195                    23879490.215
 119161066.665 7  92852888.62845  22675579.359                    22675588.621
 111071500.770 8  86549372.84646  21136190.375                    21136198.152
 109858370.739 8  85603979.499 7  20905351.742                    20905358.832
 110465380.641 8  86077001.092 7  21020844.242                    21020852.148
 121076053.388 7  94345024.174 7  23040010.359                    23040020.531
 108932751.318 8  84882744.17246  20729188.766                    20729194.020
 120291039.467 7  93733358.60244  22890632.031                    22890640.559
 11  8 23  0 40 30.0000000  0  9G09G17G04G10G12G05G25G02G30
 129498113.782 6 100907679.67143  24642687.594                    24642702.277
 125550535.832 5  97831634.941 6  23891468.477                    23891477.797
 119242753.410 7  92916540.61045  22691124.305                    22691132.641
 111111715.971 8  86580709.34846  21143842.836                    21143850.996
 109828907.469 8  85581021.118 7  20899745.063                    20899752.309
 110400659.256 8  86026568.884 7  21008528.281                    21008536.148
 120992525.801 7  94279937.789 7  23024115.172                    23024125.824
 108948515.999 8  84895028.33346  20732188.391                    20732193.934
 120210989.026 7  93670981.67844  22875398.961                    22875407.313
 11  8 23  0 41  0.0000000  0  9G09G17G04G10G12G05G25G02G30
 129579801.069 6 100971331.88943  24658232.766                    24658246.422
 125613716.597 5  97880866.709 6  23903490.609                    23903501.336
 119324466.812 7  92980213.36944  22706673.844                    22706682.883
 111152516.257 8  86612501.76946  21151607.000                    21151614.641
 109799990.751 8  85558488.623 7  20894242.188                    20894249.684
 110336407.748 8  85976502.816 7  20996301.359                    20996309.246
 120909338.217 7  94215116.340 7  23008285.297                    23008295.770
 108964491.439 8  84907476.72946  20735228.750                    20735234.172
 120131352.227 7  93608927.07844  22860244.586                    22860253.008
 11  8 23  0 41 30.0000000  0  9G09G17G04G10G12G05G25G02G30
 129661445.904 6 101034951.02343  24673769.320                    24673782.828
 125677081.697 6  97930242.052 6  23915548.617                    23915559.840
 119406205.843 7  93043906.09044  22722227.797                    22722236.879
 111193899.901 8  86644748.74946  21159482.188                    21159490.047
 109771622.001 8  85536383.113 7  20888843.727                    20888851.273
 110272628.497 8  85926804.739 7  20984164.453                    20984172.285
 120826493.272 7  94150561.883 7  22992520.320                    22992531.063
 108980676.511 8  84920088.48046  20738308.586                    20738313.969
 120052131.724 7  93547196.85944  22845168.578                    22845177.754
 11  8 23  0 42  0.0000000  0  9G09G17G04G10G12G05G25G02G30
 129743044.950 6 101098534.50843  24689297.320                    24689310.910
 125740631.309 6  97979761.196 6  23927642.398                    23927652.973
 119487969.133 7  93107617.72244  22737787.500                    22737795.762
 111235865.297 8  86677449.05345  21167467.641                    21167475.750
 109743802.757 8  85514705.790 7  20883550.242                    20883557.184
 110209323.358 8  85877476.101 7  20972118.008                    20972125.707
 120743993.559 7  94086276.444 7  22976820.469                    22976831.719
 108997069.881 8  84932862.53546  20741428.414                    20741433.441
 119973330.106 7  93485793.03344  22830173.461                    22830181.988
 11  8 23  0 42 30.0000000  0  9G09G17G04G10G12G05G25G02G30
 129824595.285 6 101162080.05543  24704815.555                    24704829.953
 125804365.398 6  98029424.113 6  23939770.820                    23939780.496
 119569755.013 7  93171346.94844  22753350.453                    22753359.059
 111278410.970 8  86710601.51246  21175563.898                    21175571.895
 109716533.922 8  85493457.348 7  20878361.266                    20878368.379
 110146494.294 8  85828518.438 8  20960161.820                    20960169.914
 120661841.402 7  94022261.816 7  22961187.766                    22961198.668
 109013670.097 8  84945797.76546  20744586.914                    20744592.293
 119894949.638 7  93424717.37544  22815258.148                    22815266.973
 11  8 23  0 43  0.0000000  0  9G09G17G04G10G12G05G25G02G30
 129906094.201 6 101225585.47443  24720325.070                    24720338.852
 125868284.308 6  98079231.083 6  23951933.977                    23951944.234
 119651562.336 7  93235092.86244  22768917.750                    22768926.492
 111321535.063 8  86744204.69946  21183770.156                    21183777.836
 109689817.042 8  85472639.015 7  20873276.680                    20873283.848
 110084143.560 8  85779933.494 7  20948296.945                    20948304.914
 120580039.468 7  93958520.067 7  22945621.375                    22945632.977
 109030476.213 8  84958893.43046  20747785.195                    20747790.762
 119816993.032 7  93363971.99044  22800423.172                    22800431.922
 11  8 23  0 43 30.0000000  0  9G09G17G04G10G12G05G25G02G30
 129987538.471 6 101289048.32543  24735822.781                    24735837.707
 125932388.045 6  98129182.020 6  23964132.164                    23964142.555
 119733389.534 7  93298854.24444  22784489.219                    22784498.137
 111365235.480 7  86778256.96146  21192086.148                    21192094.375
 109663652.914 8  85452251.388 7  20868298.031                    20868305.410
 110022273.128 8  85731722.802 7  20936523.594                    20936531.586
 120498590.248 7  93895053.180 7  22930122.117                    22930133.059
 109047486.755 8  84972148.39746  20751022.203                    20751027.789
 119739462.617 7  93303558.71044  22785670.188                    22785678.621
 11  8 23  0 44  0.0000000  0  9G09G17G04G10G12G05G25G02G30
 130068925.043 6 101352466.24942  24751310.914                    24751324.820
 125996677.105 6  98179277.377 6  23976366.266                    23976376.305
 119815235.676 7  93362630.41744  22800064.258                    22800073.082
 111409510.887 7  86812757.26346  21200511.563                    21200519.359
 109638042.899 8  85432295.534 7  20863424.758                    20863431.953
 109960885.047 8  85683887.974 8  20924841.508                    20924849.441
 120417496.477 7  93831863.235 7  22914690.688                    22914701.195
 109064700.668 8  84985561.82746  20754297.945                    20754303.301
 119662361.174 7  93243479.69344  22770997.586                    22771006.719
 11  8 23  0 44 30.0000000  0  9G09G17G04G10G12G05G25G02G30
 130150251.212 6 101415837.10343  24766787.078                    24766800.070
 126061151.668 7  98229517.259 6  23988635.594                    23988645.254
 119897099.606 7  93426420.43944  22815642.227                    22815651.133
 111454359.668 8  86847704.35946  21209046.133                    21209053.820
 109612988.878 8  85412772.923 7  20858656.969                    20858664.055
 109899981.372 8  85636430.600 8  20913251.961                    20913259.531
 120336760.924 7  93768952.431 7  22899327.102                    22899337.980
 109082117.119 8  84999133.09046  20757612.344                    20757617.609
 119585691.531 7  93183737.13944  22756408.273                    22756416.559
 11  8 23  0 45  0.0000000  0  9G09G17G04G10G12G05G25G02G30
 130231513.618 6 101479158.26143  24782251.328                    24782264.598
 126125812.037 7  98279901.957 6  24000940.367                    24000949.832
 119978979.641 7  93490223.00044  22831223.641                    22831232.469
 111499780.293 8  86883097.04646  21217689.133                    21217697.129
 109588491.018 8  85393683.687 7  20853994.875                    20854002.555
 109839564.213 8  85589352.337 8  20901755.086                    20901762.910
 120256385.999 7  93706322.626 7  22884032.758                    22884042.816
 109099734.607 8  85012860.99646  20760964.898                    20760969.926
 119509455.851 7  93124332.73144  22741900.688                    22741909.234
 11  8 23  0 45 30.0000000  0  9G09G17G04G10G12G05G25G02G30
 130312709.414 6 101542427.48743  24797702.516                    24797716.234
 126190658.367 6  98330431.555 6  24013280.008                    24013289.801
 120060874.720 7  93554037.28744  22846807.500                    22846816.551
 111545770.684 7  86918933.70546  21226440.906                    21226448.875
 109564550.705 8  85375028.898 7  20849439.398                    20849446.707
 109779635.346 8  85542654.559 7  20890350.703                    20890358.832
 120176374.020 8  93643975.625 7  22868806.430                    22868817.195
 109117551.758 8  85026744.49946  20764354.805                    20764360.297
 119433656.490 7  93065268.30944  22727476.859                    22727485.113
 11  8 23  0 46  0.0000000  0  9G09G17G04G10G12G05G25G02G30
 130393836.015 6 101605642.78543  24813140.945                    24813153.617
 126255691.071 6  98381106.380 6  24025655.016                    24025664.895
 120142783.574 7  93617862.28544  22862394.492                    22862403.551
 111592329.307 7  86955213.14346  21235300.750                    21235308.703
 109541169.522 8  85356809.805 8  20844990.055                    20844997.328
 109720197.266 8  85496339.212 8  20879040.078                    20879047.836
 120096727.954 7  93581913.754 7  22853650.078                    22853660.730
 109135568.139 8  85040783.23546  20767783.391                    20767788.527
 119358296.409 7  93006546.19144  22713136.133                    22713144.852
 11  8 23  0 46 30.0000000  0  9G09G17G04G10G12G05G25G02G30
 130474890.360 6 101668801.82443  24828564.617                    24828579.297
 126320909.693 6  98431926.070 6  24038065.891                    24038075.262
 120224704.911 7  93681697.03144  22877984.031                    22877992.855
 111639454.324 8  86991933.93546  21244268.445                    21244276.238
 109518348.615 8  85339027.285 7  20840647.563                    20840654.867
 109661251.357 8  85450407.374 8  20867823.313                    20867831.313
 120017450.194 7  93520138.880 7  22838564.672                    22838575.039
 109153781.827 8  85054975.71746  20771249.297                    20771255.137
 119283377.937 7  92948168.16944  22698879.500                    22698888.652
 11  8 23  0 47  0.0000000  0  9G09G17G04G10G12G05G25G02G30
 130555869.415 6 101731902.21343  24843974.805                    24843988.098
 126386314.692 6  98482891.004 6  24050512.445                    24050521.277
 120306637.451 7  93745540.50144  22893575.086                    22893584.160
 111687143.613 8  87029094.40845  21253343.281                    21253351.336
 109496088.918 8  85321682.067 7  20836411.984                    20836419.004
 109602799.685 8  85404860.655 8  20856699.961                    20856707.953
 119938543.124 7  93458652.846 7  22823549.141                    22823559.672
 109172191.906 8  85069321.23346  20774752.711                    20774758.059
 119208903.440 7  92890136.10644  22684707.922                    22684716.410
 11  8 23  0 47 30.0000000  0  9G09G17G04G10G12G05G25G02G30
 130636770.146 6 101794941.49444  24859369.805                    24859383.496
 126451906.268 6  98534001.302 6  24062994.156                    24063003.098
 120388580.148 7  93809391.89144  22909168.109                    22909177.207
 111735395.485 8  87066693.27246  21262525.227                    21262532.957
 109474390.801 8  85304774.436 8  20832282.586                    20832289.766
 109544844.116 8  85359700.511 8  20845671.375                    20845679.242
 119860009.422 7  93397457.745 7  22808604.570                    22808614.781
 109190797.180 8  85083818.85146  20778293.367                    20778298.387
 119134875.355 7  92832451.88744  22670621.141                    22670629.293
 11  8 23  0 48  0.0000000  0  8G17G04G10G12G05G25G02G30
 126517686.048 6  98585258.256 6  24075511.109                    24075521.176
 120470533.043 7  93873251.24744  22924763.938                    22924772.508
 111784209.862 8  87104730.45045  21271814.375                    21271822.902
 109453257.380 8  85288306.850 7  20828260.828                    20828268.000
 109487388.328 8  85314929.798 8  20834737.867                    20834745.816
 119781853.178 7  93336556.766 7  22793731.906                    22793742.395
 109209598.118 8  85098468.92946  20781870.969                    20781876.531
 119061297.843 7  92775118.76644  22656619.297                    22656627.660
 11  8 23  0 48 30.0000000  0  8G17G04G10G12G05G25G02G30
 126583653.039 6  98636661.070 6  24088064.305                    24088074.309
 120552493.512 7  93937116.49944  22940359.906                    22940368.648
 111833583.189 8  87143203.17646  21281209.953                    21281217.863
 109432688.152 8  85272278.880 8  20824347.133                    20824354.242
 109430432.614 8  85270548.753 8  20823899.555                    20823906.859
 119704075.428 7  93275950.721 7  22778931.086                    22778941.633
 109228592.098 8  85113269.43746  20785485.359                    20785490.828
 118988171.908 7  92718137.52444  22642703.820                    22642712.004
 11  8 23  0 49  0.0000000  0  8G17G04G10G12G05G25G02G30
 126649806.855 6  98688209.488 6  24100653.219                    24100662.645
 120634460.486 7  94000986.82444  22955957.852                    22955966.793
 111883513.133 8  87182109.63345  21290711.047                    21290719.125
 109412683.999 8  85256691.234 8  20820540.281                    20820547.680
 109373978.420 8  85226558.516 8  20813156.531                    20813164.672
 119626678.522 7  93215641.457 7  22764203.328                    22764213.621
 109247777.930 8  85128219.44046  20789136.211                    20789141.754
 118915499.766 7  92661509.88544  22628874.609                    22628883.195
 11  8 23  0 49 30.0000000  0  8G17G04G10G12G05G25G02G30
 126716147.639 6  98739903.602 6  24113276.914                    24113286.242
 120716432.498 7  94064861.07444  22971556.672                    22971565.762
 111933997.764 7  87221448.30645  21300318.188                    21300326.090
 109393245.548 8  85241544.394 7  20816841.211                    20816848.336
 109318027.673 8  85182960.562 8  20802509.477                    20802517.250
 119549664.803 7  93155630.772 7  22749547.953                    22749558.875
 109267153.975 8  85143317.66046  20792823.227                    20792828.457
 118843283.623 7  92605237.57344  22615132.484                    22615141.266
 11  8 23  0 50  0.0000000  0  8G17G04G10G12G05G25G02G30
 126782675.503 6  98791743.509 6  24125937.875                    24125946.492
 120798408.288 7  94128738.29244  22987156.398                    22987165.406
 111985035.104 7  87261217.66446  21310030.109                    21310038.113
 109374373.834 8  85226839.166 8  20813250.180                    20813257.621
 109262582.135 8  85139756.280 8  20791958.703                    20791966.480
 119473036.716 7  93095920.603 7  22734965.820                    22734976.777
 109286719.066 8  85158563.18546  20796546.406                    20796551.891
 118771525.829 7  92549322.41345  22601477.508                    22601486.445
 11  8 23  0 50 30.0000000  0  8G17G04G10G12G05G25G02G30
 126849390.920 6  98843729.562 6  24138632.234                    24138642.320
 120880386.893 7  94192617.70344  23002755.930                    23002765.199
 112036623.716 7  87301416.59245  21319847.070                    21319855.297
 109356069.914 8  85212576.374 7  20809766.977                    20809774.555
 109207643.901 8  85096947.311 8  20781503.867                    20781511.664
 119396797.049 7  93036513.083 7  22720457.492                    22720468.449
 109306472.587 8  85173955.54346  20800305.297                    20800310.922
 118700229.178 7  92493766.58145  22587910.406                    22587919.012
 11  8 23  0 51  0.0000000  0  8G17G04G10G12G05G25G02G30
 126916293.684 6  98895861.581 5  24151364.383                    24151373.688
 120962367.355 7  94256498.56144  23018356.250                    23018365.840
 112088761.557 8  87342043.48845  21329768.531                    21329776.586
 109338335.068 8  85198757.016 7  20806392.297                    20806399.324
 109153214.786 8  85054535.053 8  20771146.477                    20771154.043
 119320948.403 7  92977410.276 7  22706024.414                    22706035.645
 109326413.357 8  85189493.80546  20804100.258                    20804105.781
 118629396.063 7  92438571.94845  22574431.023                    22574439.625
 11  8 23  0 51 30.0000000  0  8G17G04G10G12G05G25G02G30
 126983384.035 6  98948139.820 5  24164130.500                    24164140.316
 121044348.283 7  94320379.81044  23033956.422                    23033966.113
 112141446.207 7  87383096.48445  21339794.039                    21339802.250
 109321169.518 8  85185381.270 7  20803125.711                    20803132.922
 109099296.370 8  85012520.742 8  20760886.234                    20760894.094
 119245492.970 7  92918613.872 7  22691666.047                    22691676.461
 109346540.008 8  85205176.91646  20807930.055                    20807935.820
 118559028.604 7  92383740.17144  22561040.477                    22561049.391
 11  8 23  0 52  0.0000000  0  8G17G04G10G12G05G25G02G30
 127050661.884 6  99000564.180 5  24176932.320                    24176942.469
 121126328.503 7  94384260.49044  23049557.461                    23049566.285
 112194675.585 7  87424573.93546  21349923.539                    21349931.285
 109304574.424 8  85172450.035 8  20799967.359                    20799974.797
 109045890.265 8  84970905.637 8  20750723.188                    20750731.086
 119170433.132 7  92860125.732 7  22677382.664                    22677393.078
 109366851.219 8  85221003.84146  20811795.055                    20811800.617
 118489129.142 7  92329273.08145  22547739.172                    22547747.930
 11  8 23  0 52 30.0000000  0  8G17G04G10G12G05G25G02G30
 127118127.758 6  99053135.000 5  24189770.930                    24189780.863
 121208307.293 7  94448140.05244  23065157.070                    23065166.621
 112248448.199 8  87466474.67945  21360155.844                    21360163.547
 109288550.983 8  85159964.243 7  20796918.250                    20796925.453
 108992998.755 8  84929691.516 8  20740658.063                    20740665.840
 119095772.006 7  92801948.273 7  22663174.609                    22663185.473
 109387346.837 8  85236974.46846  20815695.336                    20815700.914
 118419700.608 7  92275172.94245  22534527.109                    22534535.680
 11  8 23  0 53  0.0000000  0  8G17G04G10G12G05G25G02G30
 127185781.26115  99105851.97915  24202645.711                    24202654.988
 121290283.024 7  94512017.22644  23080756.281                    23080766.031
 112302761.326 7  87508796.59845  21370491.664                    21370499.566
 109273099.170 8  85147923.873 8  20793977.813                    20793985.348
 108940622.825 8  84888879.142 7  20730691.625                    20730699.418
 119021511.241 8  92744082.791 7  22649043.109                    22649054.391
 109408024.546 8  85253086.97846  20819629.773                    20819635.652
 118350744.504 7  92221440.92945  22521405.766                    22521414.086
 11  8 23  0 53 30.0000000  0  8G17G04G10G12G05G25G02G30
 127253622.98716  99158715.70316  24215555.352                    24215564.320
 121372255.133 7  94575891.59844  23096355.195                    23096364.496
 112357613.859 8  87551538.83945  21380929.438                    21380937.785
 109258220.632 8  85136330.207 7  20791146.891                    20791154.016
 108888764.843 8  84848470.371 8  20720823.359                    20720830.723
 118947654.023 7  92686531.764 7  22634988.773                    22634999.336
 109428883.935 8  85269341.05446  20823599.602                    20823605.121
 118282263.932 7  92168079.47145  22508374.180                    22508382.816
 11  8 23  0 54  0.0000000  0  8G17G04G10G12G05G25G02G30
 127321652.765 6  99211725.902 6  24228500.852                    24228510.039
 121454222.362 7  94639762.16444  23111953.547                    23111961.961
 112413003.197 8  87594699.35445  21391469.938                    21391477.949
 109243915.388 8  85125183.269 7  20788424.695                    20788431.926
 108837426.093 8  84808466.182 8  20711053.734                    20711061.121
 118874202.430 8  92629296.821 7  22621011.180                    22621021.398
 109449923.836 8  85285735.78146  20827603.188                    20827608.914
 118214260.909 7  92115090.14945  22495433.094                    22495441.957
 11  8 23  0 54 30.0000000  0  8G17G04G10G12G05G25G02G30
 127389870.404 6  99264882.524 6  24241482.742                    24241491.973
 121536183.460 7  94703627.94844  23127550.305                    23127559.336
 112468926.612 8  87638276.05745  21402111.547                    21402119.633
 109230184.305 8  85114483.723 8  20785811.242                    20785818.418
 108786608.514 8  84768868.107 8  20701383.406                    20701391.461
 118801158.719 8  92572379.697 7  22607111.531                    22607121.738
 109471142.757 8  85302270.01246  20831641.328                    20831646.848
 118146737.413 7  92062474.48045  22482583.609                    22482592.668
 11  8 23  0 55  0.0000000  0  8G17G04G10G12G05G25G02G30
 127458276.346 6  99318185.841 6  24254499.805                    24254509.852
 121618137.645 7  94767488.36344  23143144.977                    23143154.613
 112525382.949 8  87682267.99745  21412854.914                    21412862.926
 109217028.612 8  85104232.538 8  20783307.852                    20783315.535
 108736313.354 8  84729677.111 8  20691812.555                    20691820.250
 118728525.788 7  92515782.678 7  22593290.078                    22593300.145
 109492540.241 8  85318943.38446  20835712.805                    20835718.336
 118079696.309 7  92010234.71145  22469826.258                    22469835.363
 11  8 23  0 55 30.0000000  0  8G17G04G10G12G05G25G02G30
 127526870.437 6  99371635.804 6  24267552.289                    24267561.777
 121700083.476 7  94831342.26344  23158738.984                    23158747.926
 112582369.476 7  87726673.07946  21423699.539                    21423707.316
 109204448.485 8  85094429.837 8  20780914.141                    20780921.852
 108686542.187 8  84690894.425 8  20682341.758                    20682348.668
 118656305.594 7  92459507.249 7  22579546.703                    22579556.688
 109514114.567 8  85335754.54746  20839818.281                    20839823.926
 118013139.384 7  91958372.22445  22457161.023                    22457169.703
 11  8 23  0 56  0.0000000  0  8G17G04G10G12G05G25G02G30
 127595652.666 6  99425232.372 6  24280641.398                    24280650.551
 121782020.363 7  94895189.20744  23174331.227                    23174340.590
 112639884.240 8  87771489.77545  21434643.992                    21434651.516
 109192444.904 8  85085076.402 7  20778629.820                    20778636.855
 108637296.976 8  84652521.570 8  20672970.195                    20672978.121
 118584500.802 7  92403555.519 7  22565882.547                    22565892.926
 109535864.962 8  85352702.91046  20843957.266                    20843962.832
 117947069.113 7  91906888.94945  22444588.453                    22444596.824
 11  8 23  0 56 30.0000000  0  8G17G04G10G12G05G25G02G30
 127664623.222 6  99478975.641 6  24293766.188                    24293776.441
 121863946.963 7  94959028.11844  23189921.547                    23189930.875
 112697925.141 7  87816716.45045  21445688.891                    21445696.746
 109181018.393 8  85076172.622 7  20776455.672                    20776462.746
 108588579.112 8  84614559.627 8  20663699.789                    20663707.273
 118513113.755 7  92347929.312 7  22552297.875                    22552308.004
 109557790.207 8  85369787.51946  20848129.320                    20848135.086
 117881487.771 7  91855786.66645  22432108.500                    22432116.727
 11  8 23  0 57  0.0000000  0  8G17G04G10G12G05G25G02G30
 127733782.071 6  99532865.638 6  24306927.234                    24306937.180
 121945862.501 7  95022858.42044  23205509.516                    23205518.727
 112756489.874 7  87862351.29845  21456832.789                    21456841.121
 109170169.322 8  85067718.802 7  20774391.406                    20774398.418
 108540389.975 8  84577009.690 8  20654529.617                    20654537.125
 118442146.782 7  92292630.426 7  22538793.617                    22538803.934
 109579889.361 8  85387007.63546  20852334.922                    20852340.199
 117816397.446 7  91805066.99345  22419722.234                    22419730.590
 11  8 23  0 57 30.0000000  0  8G17G04G10G12G05G25G02G30
 127803129.337 6  99586902.440 6  24320123.328                    24320133.004
 122027765.781 7  95086679.17444  23221095.102                    23221104.453
 112815576.096 7  87908392.50645  21468077.008                    21468084.551
 109159898.639 8  85059715.662 7  20772436.891                    20772444.012
 108492731.289 8  84539873.085 8  20645459.914                    20645468.039
 118371602.409 7  92237660.847 7  22525369.469                    22525379.457
 109602161.464 8  85404362.52046  20856573.086                    20856578.551
 117751800.481 7  91754731.75545  22407430.008                    22407438.027
 11  8 23  0 58  0.0000000  0  8G17G04G10G12G05G25G02G30
 127872664.832 6  99641085.954 6  24333355.617                    24333365.297
 122109655.795 6  95150489.58244  23236678.406                    23236687.695
 112875181.383 7  87954838.17545  21479419.516                    21479427.336
 109150206.428 8  85052163.290 8  20770592.531                    20770599.543
 108445604.346 8  84503150.829 8  20636492.234                    20636500.031
 118301482.605 7  92183022.086 7  22512025.609                    22512036.309
 109624604.902 8  85421850.91146  20860843.938                    20860849.883
 117687698.765 7  91704782.42845  22395231.508                    22395239.820
 11  8 23  0 58 30.0000000  0  9G29G17G04G10G12G05G25G02G30
 129571634.51717 100964941.83016  24656664.586                    24656674.051
 127942388.578 6  99695416.125 6  24346622.961                    24346632.828
 122191531.443 7  95214288.81544  23252258.703                    23252267.836
 112935303.659 8  88001686.69245  21490860.203                    21490868.070
 109141093.295 8  85045062.140 8  20768858.148                    20768865.578
 108399010.551 8  84466844.018 8  20627625.609                    20627633.672
 118231789.897 7  92128716.126 7  22498763.883                    22498774.273
 109647218.814 8  85439472.13246  20865147.297                    20865153.070
 117624094.583 7  91655220.79245  22383128.438                    22383136.629
 11  8 23  0 59  0.0000000  0  9G29G17G04G10G12G05G25G02G30
 129492122.222 7 100902984.290 6  24641534.445                    24641543.488
 128012301.136 6  99749893.460 6  24359927.563                    24359936.516
 122273392.409 7  95278076.61144  23267835.781                    23267845.180
 112995941.179 7  88048936.70445  21502398.930                    21502406.957
 109132560.788 8  85038413.427 8  20767234.547                    20767241.957
 108352951.953 8  84430954.232 8  20618861.188                    20618868.824
 118162527.267 7  92074745.281 7  22485583.273                    22485593.676
 109670002.950 8  85457226.01046  20869483.125                    20869488.352
 117560990.678 7  91606048.96545  22371119.938                    22371128.313
 11  8 23  0 59 30.0000000  0  9G29G17G04G10G12G05G25G02G30
 129412530.629 7 100840964.951 6  24626389.094                    24626398.301
 128082402.120 6  99804517.599 6  24373267.039                    24373276.898
 122355237.448 7  95341851.99144  23283410.922                    23283419.961
 113057091.567 7  88096586.35545  21514035.469                    21514043.352
 109124608.511 8  85032216.838 7  20765721.305                    20765728.625
 108307429.829 8  84395482.484 8  20610198.750                    20610206.508
 118093696.685 7  92021111.092 7  22472485.844                    22472496.188
 109692955.664 8  85475111.24246  20873850.727                    20873856.262
 117498388.873 7  91557268.40145  22359207.070                    22359215.570
 11  8 23  1  0  0.0000000  0  9G29G17G04G10G12G05G25G02G30
 129332859.651 7 100778883.761 6  24611227.781                    24611237.090
 128152691.182 6  99859288.246 6  24386642.258                    24386652.492
 122437065.208 7  95405613.89044  23298982.383                    23298991.145
 113118751.870 7  88144633.33945  21525768.836                    21525777.273
 109117236.670 8  85026472.537 8  20764318.586                    20764325.840
 108262445.241 8  84360429.592 8  20601638.094                    20601645.859
 118025300.087 7  91967815.069 7  22459469.906                    22459480.379
 109716075.432 8  85493126.64346  20878250.258                    20878255.828
 117436290.858 7  91508880.36845  22347390.586                    22347398.449
 11  8 23  1  0 30.0000000  0  9G29G17G04G10G12G05G25G02G30
 129253110.052 6 100716741.312 6  24596051.320                    24596061.684
 128223168.634 6  99914205.660 6  24400054.063                    24400063.988
 122518875.000 6  95469361.80844  23314549.992                    23314558.551
 113180920.001 8  88193076.01845  21537599.352                    21537607.305
 109110445.926 8  85021181.047 8  20763026.125                    20763033.422
 108217999.468 8  84325796.560 8  20593180.320                    20593188.027
 117957339.769 7  91914858.994 7  22446537.727                    22446548.082
 109739361.652 8  85511271.74646  20882681.438                    20882687.098
 117374698.945 7  91460886.70945  22335669.617                    22335678.121
 11  8 23  1  1  0.0000000  0  9G29G17G04G10G12G05G25G02G30
 129173282.525 6 100654538.131 6  24580860.656                    24580870.906
 128293834.190 6  99969269.726 5  24413501.016                    24413511.059
 122600665.914 6  95533094.99844  23330114.039                    23330123.137
 113243593.767 7  88241912.72645  21549525.570                    21549533.922
 109104236.908 8  85016342.845 8  20761844.859                    20761852.082
 108174094.124 8  84291584.635 8  20584825.625                    20584833.148
 117889818.383 7  91862244.936 7  22433688.867                    22433699.262
 109762813.421 8  85529545.85146  20887144.281                    20887149.785
 117313615.331 7  91413289.12345  22324046.047                    22324054.047
 11  8 23  1  1 30.0000000  0  9G29G17G04G10G12G05G25G02G30
 129093377.242 6 100592274.416 6  24565654.641                    24565665.063
 128364687.759 6 100024480.289 5  24426984.195                    24426993.945
 122682436.520 6  95596812.36144  23345674.445                    23345683.371
 113306770.073 7  88291141.01145  21561547.719                    21561555.793
 109098609.117 8  85011957.550 8  20760773.766                    20760781.137
 108130730.510 8  84257794.841 8  20576573.625                    20576581.184
 117822737.720 8  91809974.299 7  22420923.648                    22420934.082
 109786428.858 8  85547947.49646  20891638.195                    20891643.500
 117253041.664 7  91366088.89045  22312519.148                    22312527.148
 11  8 23  1  2  0.0000000  0  9G29G17G04G10G12G05G25G02G30
 129013395.244 6 100529950.880 6  24550434.258                    24550445.141
 128435729.404 6 100079837.418 5  24440502.984                    24440511.965
 122764186.269 6  95660513.48744  23361230.992                    23361240.285
 113370447.136 7  88340759.49245  21573665.188                    21573673.805
 109093563.713 8  85008026.071 8  20759813.547                    20759820.992
 108087909.828 8  84224428.104 8  20568424.977                    20568432.957
 117756100.368 8  91758049.094 7  22408243.258                    22408253.598
 109810207.654 8  85566476.43246  20896163.039                    20896168.441
 117192980.339 7  91319287.88045  22301089.789                    22301098.184
 11  8 23  1  2 30.0000000  0  9G29G17G04G10G12G05G25G02G30
 128933337.413 6 100467568.222 6  24535200.703                    24535210.125
 128506959.059 6 100135341.069 5  24454057.977                    24454066.227
 122845914.720 6  95724198.00244  23376783.430                    23376792.633
 113434623.030 8  88390766.67645  21585877.563                    21585886.305
 109089101.652 8  85004549.142 8  20758964.313                    20758971.828
 108045633.565 8  84191485.605 8  20560380.289                    20560387.695
 117689908.870 7  91706471.295 7  22395646.797                    22395657.664
 109834149.063 8  85585132.08146  20900719.102                    20900724.625
 117133433.691 7  91272887.89745  22289758.094                    22289766.625
 11  8 23  1  3  0.0000000  0  9G29G17G04G10G12G05G25G02G30
 128853203.635 7 100405126.348 5  24519951.727                    24519960.859
 128578376.596 6 100190991.118 5  24467647.594                    24467656.953
 122927620.129 6  95787864.54144  23392331.508                    23392341.199
 113499294.815 7  88441160.27645  21598184.109                    21598192.480
 109085222.067 8  85001526.083 7  20758226.234                    20758233.539
 108003902.474 8  84158967.909 8  20552438.773                    20552446.637
 117624164.944 7  91655242.246 7  22383136.727                    22383147.227
 109858251.225 8  85603912.98946  20905305.477                    20905311.090
 117074403.179 7  91226890.10445  22278525.125                    22278533.289
 11  8 23  1  3 30.0000000  0  9G29G17G04G10G12G05G25G02G30
 128772994.559 6 100342625.743 5  24504688.438                    24504696.930
 128649982.062 6 100246787.609 5  24481273.594                    24481283.680
 123009301.972 6  95851512.71544  23407874.898                    23407884.574
 113564460.247 8  88491938.53945  21610584.781                    21610592.883
 109081925.625 8  84998957.431 7  20757599.063                    20757606.422
 107962718.028 8  84126876.153 8  20544601.750                    20544608.957
 117558870.876 7  91604363.727 7  22370711.945                    22370721.922
 109882513.344 8  85622818.53646  20909922.445                    20909927.914
 117015890.844 7  91181296.06545  22267390.273                    22267399.023
 11  8 23  1  4  0.0000000  0  9G29G17G04G10G12G05G25G02G30
 128692710.798 6 100280066.961 5  24489410.570                    24489419.316
 128721775.083 6 100302730.277 5  24494935.258                    24494945.004
 123090959.281 6  95915141.77044  23423413.711                    23423423.480
 113630116.441 8  88543099.21045  21623078.422                    21623086.438
 109079211.834 8  84996842.795 8  20757082.563                    20757090.184
 107922081.407 8  84095211.285 8  20536868.828                    20536876.477
 117494028.921 7  91553837.511 7  22358372.813                    22358382.922
 109906934.354 8  85641847.90246  20914569.773                    20914575.023
 116957898.699 7  91136107.38045  22256355.016                    22256363.367
 11  8 23  1  4 30.0000000  0  9G29G17G04G10G12G05G25G02G30
 128612353.594 6 100217450.962 6  24474119.453                    24474128.395
 128793755.978 6 100358819.284 5  24508631.992                    24508642.695
 123172591.633 6  95978751.37044  23438947.375                    23438957.504
 113696261.408 7  88594640.74145  21635665.375                    21635673.656
 109077082.015 8  84995183.205 7  20756677.195                    20756684.543
 107881994.196 8  84063974.530 8  20529240.258                    20529248.023
 117429641.670 7  91503665.612 7  22346120.133                    22346130.129
 109931513.728 8  85661000.66046  20919246.750                    20919252.016
 116900429.154 7  91091325.89245  22245419.320                    22245427.500
 11  8 23  1  5  0.0000000  0  8G29G04G10G12G05G25G02G30
 128531923.362 6 100154778.109 6  24458813.648                    24458823.527
 123254198.106 6  96042340.81644  23454477.086                    23454486.570
 113762893.043 7  88646561.49245  21648345.414                    21648353.848
 109075536.001 8  84993978.525 8  20756383.297                    20756390.547
 107842457.876 8  84033167.048 8  20521716.969                    20521724.355
 117365711.311 7  91453849.731 7  22333954.844                    22333964.320
 109956250.586 8  85680276.13646  20923953.906                    20923959.020
 116843484.060 7  91046953.08245  22234582.586                    22234590.938
 11  8 23  1  5 30.0000000  0  8G29G04G10G12G05G25G02G30
 128451420.517 6 100092048.682 6  24443494.406                    24443504.004
 123335777.528 6  96105909.16344  23470001.266                    23470010.848
 113830008.286 7  88698859.08545  21661116.867                    21661124.738
 109074573.824 8  84993228.776 7  20756200.141                    20756207.031
 107803472.733 8  84002789.046 8  20514298.328                    20514305.898
 117302239.691 7  91404391.301 7  22321876.000                    22321886.320
 109981143.303 8  85699673.05546  20928691.227                    20928696.211
 116787065.083 7  91002990.22845  22223846.602                    22223854.895
 11  8 23  1  6  0.0000000  0  8G29G04G10G12G05G25G02G30
 128370845.604 6 100029263.079 6  24428162.219                    24428171.125
 123417328.902 6  96169455.68443  23485520.086                    23485529.016
 113897604.617 7  88751531.55745  21673980.094                    21673987.953
 109074195.460 8  84992933.957 7  20756128.047                    20756135.105
 107765040.062 8  83972841.542 8  20506984.953                    20506992.629
 117239228.789 7  91355291.897 7  22309885.656                    22309896.340
 110006190.704 8  85719190.51446  20933457.391                    20933463.031
 116731173.862 7  90959438.60045  22213211.016                    22213218.918
 11  8 23  1  6 30.0000000  0  8G29G04G10G12G05G25G02G30
 128290199.061 6  99966421.662 6  24412815.406                    24412824.867
 123498851.175 7  96232979.53043  23501033.359                    23501041.664
 113965679.266 7  88804576.74845  21686934.578                    21686942.160
 109074401.000 8  84993094.119 8  20756167.102                    20756173.957
 107727161.030 8  83943325.448 8  20499776.805                    20499784.098
 117176680.652 7  91306553.080 7  22297983.250                    22297993.434
 110031391.728 8  85738827.67846  20938253.078                    20938258.469
 116675812.311 7  90916299.73045  22202675.742                    22202684.602
 11  8 23  1  7  0.0000000  0  8G29G04G10G12G05G25G02G30
 128209481.931 7  99903525.244 6  24397455.188                    24397464.961
 123580344.024 7  96296480.42444  23516541.656                    23516549.590
 114034230.306 7  88857993.13845  21699978.758                    21699987.199
 109075190.865 8  84993709.602 8  20756317.547                    20756324.723
 107689836.463 8  83914241.407 8  20492673.719                    20492681.402
 117114597.757 7  91258176.809 7  22286169.195                    22286179.418
 110056745.742 8  85758584.04646  20943077.805                    20943083.199
 116620982.510 7  90873575.19245  22192242.125                    22192250.105
 11  8 23  1  7 30.0000000  0  8G29G04G10G12G05G25G02G30
 128128695.431 6  99840574.730 6  24382082.008                    24382091.660
 123661807.020 7  96359958.06544  23532043.305                    23532051.438
 114103255.656 7  88911779.13545  21713114.250                    21713121.879
 109076565.892 8  84994781.049 7  20756579.266                    20756586.551
 107653068.171 8  83885590.822 8  20485677.102                    20485684.836
 117052982.819 7  91210165.162 7  22274444.336                    22274454.977
 110082252.560 8  85778459.49046  20947931.125                    20947936.750
 116566686.934 7  90831266.94645  22181909.898                    22181918.234
 11  8 23  1  8  0.0000000  0  8G29G04G10G12G05G25G02G30
 128047839.744 6  99777570.319 6  24366696.414                    24366704.379
 123743238.325 7  96423411.02144  23547538.930                    23547547.566
 114172751.732 7  88965931.92145  21726338.867                    21726346.645
 109078524.498 8  84996307.236 7  20756951.813                    20756958.770
 107616856.399 8  83857373.891 8  20478786.172                    20478793.461
 116991836.908 7  91162519.016 7  22262809.203                    22262818.980
 110107909.900 8  85798452.21646  20952814.055                    20952819.297
 116512926.345 7  90789375.58545  22171679.359                    22171687.746
 11  8 23  1  8 30.0000000  0  8G29G04G10G12G05G25G02G30
 127966915.035 6  99714512.160 6  24351296.453                    24351305.402
 123824637.503 7  96486838.90644  23563028.109                    23563037.508
 114242716.091 7  89020449.61145  21739652.273                    21739660.340
 109081066.932 8  84998288.353 7  20757435.211                    20757442.668
 107581202.013 8  83829591.284 8  20472001.438                    20472009.164
 116931162.118 7  91115239.981 7  22251262.664                    22251272.840
 110133716.765 8  85818561.46646  20957724.648                    20957730.156
 116459702.596 7  90747902.52645  22161551.742                    22161560.078
 11  8 23  1  9  0.0000000  0  8G29G04G10G12G05G25G02G30
 127885922.592 7  99651401.219 6  24335884.414                    24335893.480
 123906004.087 7  96550241.40243  23578512.086                    23578521.246
 114313146.786 7  89075330.67745  21753055.164                    21753063.219
 109084193.929 8  85000724.967 7  20758030.477                    20758037.621
 107546106.628 8  83802244.273 8  20465323.305                    20465330.527
 116870961.036 7  91068330.089 7  22239806.383                    22239816.879
 110159672.863 8  85838786.98946  20962664.094                    20962669.328
 116407018.013 7  90706849.60745  22151526.039                    22151534.563
 11  8 23  1  9 30.0000000  0  8G29G04G10G12G05G25G02G30
 127804863.209 6  99588238.150 6  24320458.148                    24320467.727
 123987337.305 7  96613617.88444  23593989.203                    23593998.453
 114384040.965 7  89130572.89845  21766545.461                    21766554.133
 109087905.199 8  85003616.851 7  20758736.938                    20758743.660
 107511571.017 8  83775333.444 8  20458751.336                    20458758.727
 116811235.693 8  91021790.882 7  22228441.086                    22228451.410
 110185777.255 8  85859128.07246  20967631.438                    20967637.297
 116354874.192 7  90666218.06545  22141603.406                    22141611.867
 11  8 23  1 10  0.0000000  0  8G29G04G10G12G05G25G02G30
 127723737.478 6  99525023.394 6  24305020.477                    24305030.344
 124068636.351 7  96676967.78644  23609459.539                    23609469.215
 114455395.976 7  89186174.22145  21780124.281                    21780131.742
 109092200.647 8  85006963.938 7  20759554.523                    20759561.695
 107477596.139 8  83748859.542 8  20452285.781                    20452292.648
 116751988.097 8  90975623.965 7  22217167.078                    22217177.188
 110212028.790 8  85879583.81346  20972626.898                    20972632.523
 116303272.922 7  90626009.30045  22131783.891                    22131792.609
 11  8 23  1 10 30.0000000  0  8G29G04G10G12G05G25G02G30
 127642546.148 6  99461757.527 6  24289570.250                    24289580.047
 124149900.640 7  96740290.58444  23624923.969                    23624933.359
 114527209.599 7  89242132.88345  21793790.117                    21793797.891
 109097080.230 8  85010766.199 8  20760482.852                    20760489.625
 107444183.208 8  83722823.529 8  20445927.641                    20445934.566
 116693220.464 7  90929831.041 7  22205984.148                    22205994.219
 110238426.865 8  85900153.73246  20977650.023                    20977656.266
 116252216.124 7  90586224.79245  22122068.055                    22122076.676
 11  8 23  1 11  0.0000000  0  8G29G04G10G12G05G25G02G30
 127561289.881 6  99398441.032 6  24274108.156                    24274117.340
 124231129.082 7  96803585.40044  23640381.602                    23640390.340
 114599478.861 7  89298446.58645  21807542.070                    21807550.563
 109102543.345 8  85015023.158 7  20761522.531                    20761529.895
 107411332.375 8  83697225.517 8  20439676.211                    20439683.582
 116634934.425 8  90884413.392 7  22194892.109                    22194902.344
 110264969.923 8  85920836.62746  20982701.359                    20982706.609
 116201705.140 7  90546865.60345  22112456.234                    22112465.008
 11  8 23  1 11 30.0000000  0  8G29G04G10G12G05G25G02G30
 127479969.055 6  99335074.226 6  24258632.602                    24258641.672
 124312320.639 7  96866851.51244  23655832.172                    23655841.348
 114672200.986 7  89355113.17945  21821380.555                    21821388.449
 109108590.020 8  85019734.832 7  20762672.898                    20762680.051
 107379044.658 8  83672066.284 8  20433531.977                    20433539.480
 116577131.676 8  90839372.341 7  22183892.648                    22183902.656
 110291656.665 8  85941631.48746  20987779.742                    20987785.078
 116151741.299 7  90507932.77045  22102948.227                    22102956.879
 11  8 23  1 12  0.0000000  0  8G29G04G10G12G05G25G02G30
 127398585.027 6  99271658.199 6  24243145.461                    24243154.973
 124393475.255 7  96930088.82844  23671274.813                    23671284.145
 114745373.541 7  89412130.75445  21835305.141                    21835312.906
 109115220.397 8  85024901.349 7  20763935.016                    20763942.090
 107347321.122 8  83647346.688 8  20427495.078                    20427502.523
 116519814.821 8  90794709.910 7  22172985.547                    22172995.637
 110318486.943 8  85962538.19646  20992885.188                    20992890.820
 116102326.852 7  90469428.02845  22093545.227                    22093553.641
 11  8 23  1 12 30.0000000  0  8G29G04G10G12G05G25G02G30
 127317138.486 6  99208193.450 6  24227646.992                    24227655.645
 124474591.983 7  96993296.62143  23686710.609                    23686720.355
 114818993.973 7  89469497.33145  21849314.891                    21849322.906
 109122434.294 8  85030522.549 7  20765307.484                    20765314.809
 107316162.483 8  83623067.262 8  20421565.469                    20421573.359
 116462985.706 8  90750427.530 7  22162171.555                    22162181.641
 110345459.700 8  85983555.92946  20998018.266                    20998023.379
 116053463.365 7  90431352.61445  22084246.844                    22084255.230
 11  8 23  1 13  0.0000000  0  8G29G04G10G12G05G25G02G30
 127235630.581 6  99144680.871 6  24212136.344                    24212145.508
 124555670.298 7  97056474.46744  23702139.805                    23702148.867
 114893059.782 7  89527210.94845  21863408.703                    21863416.852
 109130231.653 8  85036598.394 7  20766791.688                    20766798.676
 107285569.817 8  83599228.853 8  20415744.211                    20415751.836
 116406646.382 8  90706526.803 7  22151450.141                    22151460.375
 110372574.305 8  86004684.19446  21003177.516                    21003182.953
 116005152.583 7  90393707.87745  22075053.547                    22075061.957
 11  8 23  1 13 30.0000000  0  8G29G04G10G12G05G25G02G30
 127154061.604 6  99081120.683 6  24196615.000                    24196623.555
 124636709.604 7  97119621.95143  23717561.102                    23717570.336
 114967567.959 7  89585269.26145  21877587.570                    21877595.453
 109138611.654 8  85043128.249 7  20768386.258                    20768393.223
 107255543.611 8  83575831.841 8  20410030.445                    20410038.008
 116350798.746 8  90663009.218 7  22140822.922                    22140833.137
 110399829.665 8  86025922.14946  21008364.242                    21008369.770
 115957396.071 7  90356495.04345  22065965.938                    22065974.316
 11  8 23  1 14  0.0000000  0  8G29G04G10G12G05G25G02G30
 127072432.860 6  99017513.906 6  24181080.914                    24181090.539
 124717709.434 6  97182738.63943  23732974.758                    23732984.035
 115042516.544 7  89643670.75445  21891849.430                    21891857.531
 109147574.840 8  85050112.533 7  20770091.781                    20770098.688
 107226085.294 8  83552877.352 8  20404424.336                    20404431.977
 116295445.071 8  90619876.543 7  22130289.164                    22130299.492
 110427225.543 8  86047269.59446  21013577.586                    21013582.965
 115910195.619 7  90319715.51145  22056983.398                    22056992.313
 11  8 23  1 14 30.0000000  0  8G29G04G10G12G05G25G02G30
 126990744.184 6  98953860.404 6  24165536.398                    24165545.984
 124798667.858 7  97245823.08743  23748380.617                    23748389.762
 115117901.869 7  89702412.55745  21906195.211                    21906203.047
 109157120.046 8  85057550.337 8  20771908.203                    20771915.273
 107197194.567 8  83530365.120 8  20398926.922                    20398934.500
 116240586.203 8  90577129.408 7  22119849.969                    22119860.324
 110454759.214 8  86068724.41346  21018817.078                    21018822.578
 115863551.897 7  90283369.79545  22048107.906                    22048116.137
 11  8 23  1 15  0.0000000  0  8G29G04G10G12G05G25G02G30
 126908997.314 6  98890161.560 6  24149980.203                    24149990.203
 124879585.179 6  97308875.47043  23763778.367                    23763787.863
 115193721.754 7  89761492.99945  21920622.625                    21920631.250
 109167247.122 8  85065441.561 7  20773835.008                    20773842.563
 107168872.388 8  83508295.928 8  20393537.375                    20393544.973
 116186224.758 8  90534769.884 7  22109505.547                    22109515.508
 110482430.954 8  86090286.82346  21024082.977                    21024088.395
 115817467.023 7  90247459.54645  22039338.078                    22039346.227
 11  8 23  1 15 30.0000000  0  8G29G04G10G12G05G25G02G30
 126827192.338 6  98826417.425 6  24134413.102                    24134423.051
 124960460.508 6  97371895.12843  23779168.633                    23779178.410
 115269972.973 7  89820909.52945  21935133.172                    21935141.223
 109177955.725 8  85073785.911 8  20775872.797                    20775880.070
 107141119.190 8  83486670.095 8  20388256.117                    20388263.227
 116132362.217 8  90492799.120 7  22099255.648                    22099266.344
 110510239.353 8  86111955.72146  21029374.578                    21029379.816
 115771942.218 7  90211985.71545  22030674.648                    22030683.031
 11  8 23  1 16  0.0000000  0  8G29G04G10G12G05G25G02G30
 126745330.790 6  98762629.180 6  24118836.172                    24118845.285
 125041293.279 7  97434881.62943  23794551.125                    23794560.000
 115346653.124 7  89880660.28145  21949724.789                    21949733.008
 109189245.563 8  85082583.188 7  20778021.484                    20778028.535
 107113935.940 8  83465488.368 8  20383083.500                    20383090.258
 116079000.759 8  90451218.798 7  22089101.313                    22089111.523
 110538184.078 8  86133730.84346  21034691.734                    21034697.551
 115726979.191 7  90176949.63145  22022118.539                    22022126.508
 11  8 23  1 16 30.0000000  0  8G29G04G10G12G05G25G02G30
 126663412.946 6  98698797.091 6  24103247.219                    24103256.617
 125122082.614 7  97497834.27443  23809924.938                    23809934.008
 115423759.339 7  89940743.03545  21964397.766                    21964405.637
 109201115.952 8  85091832.833 7  20780280.164                    20780287.426
 107087322.988 8  83444751.030 8  20378018.875                    20378026.648
 116026141.843 8  90410030.073 7  22079042.063                    22079052.828
 110566263.628 8  86155611.03046  21040035.688                    21040041.418
 115682579.169 7  90142352.24845  22013669.508                    22013678.188
 11  8 23  1 17  0.0000000  0  8G29G04G10G12G05G25G02G30
 126581440.214 6  98634922.221 6  24087648.672                    24087657.555
 125202828.430 7  97560753.03844  23825290.633                    23825299.422
 115501289.570 7  90001156.19445  21979151.367                    21979159.094
 109213566.906 8  85101534.870 8  20782649.656                    20782656.914
 107061281.344 8  83424458.880 8  20373063.281                    20373070.645
 115973787.847 8  90369234.776 7  22069080.141                    22069089.848
 110594477.939 8  86177596.21246  21045404.805                    21045409.945
 115638743.994 7  90108195.00745  22005327.977                    22005336.203
 11  8 23  1 17 30.0000000  0  8G29G04G10G12G05G25G02G30
 126499413.452 6  98571005.265 6  24072038.742                    24072048.559
 125283529.784 7  97623637.14344  23840647.352                    23840656.723
 115579240.860 7  90061897.44745  21993984.797                    21993993.051
 109226598.042 8  85111688.999 7  20785129.289                    20785136.313
 107035811.528 8  83404612.295 8  20368216.820                    20368224.105
 115921940.277 8  90328834.097 7  22059213.453                    22059223.355
 110622825.896 8  86199685.53546  21050798.891                    21050804.766
 115595474.868 7  90074478.84645  21997093.336                    21997102.129
 11  8 23  1 18  0.0000000  0  8G29G04G10G12G05G25G02G30
 126417333.507 6  98507046.892 6  24056419.859                    24056428.973
 125364185.834 7  97686485.96144  23855995.703                    23856004.840
 115657610.185 7  90122964.44645  22008897.953                    22008906.285
 109240208.613 8  85122294.635 7  20787719.430                    20787726.242
 107010913.825 8  83385211.511 8  20363478.523                    20363485.582
 115870600.896 8  90288829.410 7  22049444.070                    22049453.840
 110651306.342 8  86221878.09546  21056218.852                    21056223.891
 115552773.094 7  90041204.77845  21988968.156                    21988976.402
 11  8 23  1 18 30.0000000  0  8G29G04G10G12G05G25G02G30
 126335200.492 6  98443047.160 6  24040790.063                    24040799.203
 125444796.179 7  97749299.15544  23871335.055                    23871344.664
 115736394.367 7  90184354.71645  22023889.992                    22023898.090
 109254397.148 8  85133350.639 7  20790419.492                    20790426.484
 106986588.355 8  83366256.638 8  20358849.547                    20358856.949
 115819770.919 8  90249221.658 7  22039771.367                    22039781.598
 110679917.888 8  86244172.80546  21061663.148                    21061669.145
 115510639.604 7  90008373.51245  21980950.430                    21980958.293
 11  8 23  1 19  0.0000000  0  8G29G04G10G12G05G25G02G30
 126253016.068 6  98379007.401 6  24025151.570                    24025159.965
 125525360.152 7  97812076.25543  23886666.133                    23886675.645
 115815591.365 7  90246066.64445  22038960.680                    22038968.961
 109269164.119 8  85144857.376 8  20793229.508                    20793236.527
 106962836.316 8  83347748.581 8  20354329.602                    20354337.168
 115769452.755 8  90210012.714 7  22030196.109                    22030206.355
 110708660.420 8  86266569.57746  21067132.586                    21067138.449
 115469076.326 8  89975986.58145  21973041.109                    21973048.949
 11  8 23  1 19 30.0000000  0  8G29G04G10G12G05G25G02G30
 126170781.149 6  98314928.300 6  24009502.188                    24009511.129
 125605877.295 7  97874816.86043  23901987.711                    23901996.789
 115895198.374 7  90308098.07645  22054109.344                    22054117.398
 109284509.038 8  85156814.454 7  20796149.695                    20796156.828
 106939657.567 8  83329687.252 8  20349918.797                    20349926.441
 115719647.949 8  90171203.799 7  22020718.531                    22020728.453
 110737533.027 8  86289067.71246  21072627.320                    21072632.605
 115428084.465 8  89944044.89245  21965240.586                    21965249.121
 11  8 23  1 20  0.0000000  0  8G29G04G10G12G05G25G02G30
 126088496.599 6  98250810.519 6  23993844.555                    23993852.902
 125686347.202 7  97937520.67143  23917300.555                    23917310.047
 115975212.493 7  90370446.73445  22069335.648                    22069343.703
 109300431.410 8  85169221.499 7  20799179.531                    20799186.520
 106917053.031 8  83312073.357 8  20345617.375                    20345624.758
 115670358.460 8  90132796.417 7  22011339.023                    22011348.898
 110766535.153 8  86311666.75546  21078146.117                    21078151.461
 115387665.516 7  89912549.63545  21957548.984                    21957557.258
 11  8 23  1 20 30.0000000  0  8G29G04G10G12G05G25G02G30
 126006163.666 6  98186655.051 6  23978177.391                    23978186.238
 125766769.708 6  98000187.54643  23932605.383                    23932613.789
 116055631.032 7  90433110.52345  22084638.781                    22084646.883
 109316930.273 8  85182077.766 7  20802318.891                    20802326.023
 106895023.223 8  83294907.298 8  20341425.609                    20341432.570
 115621586.110 8  90094791.994 7  22002057.969                    22002068.344
 110795666.193 8  86334366.26446  21083689.266                    21083695.137
 115347820.854 7  89881501.87145  21949966.828                    21949975.129
 11  8 23  1 21  0.0000000  0  8G29G04G10G12G05G25G02G30
 125923782.907 6  98122462.327 6  23962499.906                    23962509.273
 125847143.393 6  98062816.34343  23947900.055                    23947909.031
 116136451.084 7  90496087.18745  22100018.563                    22100026.359
 109334004.985 8  85195382.739 7  20805568.188                    20805575.273
 106873568.323 8  83278189.230 8  20337342.641                    20337349.715
 115573332.145 8  90057191.508 7  21992875.414                    21992885.660
 110824924.620 8  86357165.03246  21089257.016                    21089263.145
 115308551.451 7  89850902.35145  21942494.328                    21942502.199
 11  8 23  1 21 30.0000000  0  8G29G04G10G12G05G25G02G30
 125841355.061 6  98058232.913 6  23946814.469                    23946824.328
 125927468.065 6  98125407.03943  23963185.313                    23963193.574
 116217669.566 7  90559374.32145  22115473.703                    22115481.359
 109351654.551 8  85209135.653 7  20808926.797                    20808934.004
 106852688.207 8  83261919.045 8  20333369.227                    20333376.469
 115525597.987 8  90019996.066 7  21983792.234                    21983802.527
 110854309.388 8  86380062.25046  21094849.016                    21094854.492
 115269858.148 7  89820751.73945  21935131.023                    21935139.148
 11  8 23  1 22  0.0000000  0  8G29G04G10G12G05G25G02G30
 125758881.049 6  97993967.506 6  23931120.273                    23931129.578
 126007742.484 6  98187958.57143  23978460.320                    23978469.750
 116299283.108 7  90622969.30445  22131004.172                    22131012.445
 109369878.122 8  85223335.837 7  20812394.586                    20812401.531
 106832382.845 8  83246096.717 8  20329505.281                    20329512.352
 115478384.810 8  89983206.578 7  21974807.758                    21974817.863
 110883819.261 8  86403056.96246  21100464.453                    21100469.922
 115231741.686 7  89791050.61745  21927878.070                    21927886.246
 11  8 23  1 22 30.0000000  0  8G29G04G10G12G05G25G02G30
 125676362.670 7  97929667.553 6  23915417.383                    23915426.551
 126087967.188 6  98250471.35543  23993726.859                    23993736.043
 116381290.225 7  90686870.96845  22146609.656                    22146617.336
 109388676.021 8  85237983.541 7  20815971.703                    20815978.922
 106812653.883 8  83230723.536 8  20325751.133                    20325758.270
 115431695.594 8  89946825.374 7  21965922.875                    21965932.742
 110913455.019 8  86426149.76446  21106103.992                    21106109.766
 115194204.726 7  89761801.05745  21920734.992                    21920742.859
 11  8 23  1 23  0.0000000  0  8G29G04G10G12G05G25G02G30
 125593800.455 7  97865333.443 6  23899706.469                    23899714.902
 126168141.445 6  98312944.82043  24008982.984                    24008992.703
 116463687.948 7  90751076.98645  22162289.664                    22162297.648
 109408046.925 8  85253077.750 7  20819658.125                    20819665.332
 106793500.946 8  83215799.206 8  20322106.344                    20322113.363
 115385531.443 8  89910853.326 7  21957138.172                    21957148.684
 110943215.237 8  86449339.55546  21111767.289                    21111772.535
 115157247.820 7  89733003.48445  21913701.938                    21913710.461
 11  8 23  1 23 30.0000000  0  8G29G04G10G12G05G25G02G30
 125511194.866 7  97800965.524 6  23883987.328                    23883995.957
 126248264.288 6  98375378.23443  24024230.602                    24024240.125
 116546472.763 7  90815584.64145  22178042.836                    22178051.156
 109427989.982 8  85268617.790 7  20823452.898                    20823460.184
 106774924.049 8  83201323.731 8  20318570.781                    20318578.512
 115339893.390 8  89875291.219 7  21948453.648                    21948463.867
 110973098.551 8  86472625.26846  21117453.641                    21117459.383
 115120871.644 8  89704658.42745  21906780.273                    21906788.340
 11  8 23  1 24  0.0000000  0  8G29G04G10G12G05G25G02G30
 125428547.719 7  97736565.213 6  23868259.500                    23868268.359
 126328335.672 6  98437771.56243  24039467.219                    24039477.273
 116629642.475 7  90880392.22545  22193869.484                    22193877.836
 109448504.444 8  85284603.080 7  20827356.883                    20827364.250
 106756924.073 8  83187297.800 8  20315145.633                    20315153.156
 115294783.553 8  89840140.697 7  21939869.531                    21939879.840
 111003104.835 8  86496006.80746  21123163.781                    21123169.156
 115085077.762 7  89676767.09845  21899968.805                    21899976.828
 11  8 23  1 24 30.0000000  0  8G29G04G10G12G05G25G02G30
 125345860.100 7  97672133.381 6  23852524.617                    23852533.707
 126408355.463 6  98500124.69243  24054694.406                    24054704.008
 116713194.529 7  90945497.72145  22209768.570                    22209776.652
 109469589.787 8  85301033.212 7  20831369.438                    20831376.480
 106739501.431 8  83173721.748 8  20311830.242                    20311837.773
 115250203.796 8  89805403.228 7  21931386.445                    21931396.328
 111033233.818 8  86519483.95646  21128896.938                    21128902.238
 115049867.655 7  89649330.66345  21893268.563                    21893276.387
 11  8 23  1 25  0.0000000  0  8G29G04G10G12G05G25G02G30
 125263132.642 7  97607670.497 6  23836782.125                    23836791.547
 126488322.673 6  98562436.85943  24069911.141                    24069921.211
 116797125.445 7  91010898.44945  22225740.266                    22225748.023
 109491244.849 8  85317907.277 7  20835490.289                    20835497.426
 106722655.235 8  83160594.872 8  20308624.695                    20308632.004
 115206155.055 8  89771079.544 7  21923004.109                    21923014.258
 111063483.952 8  86543055.51746  21134653.375                    21134658.480
 115015241.832 7  89622349.49345  21886679.469                    21886687.465
 11  8 23  1 25 30.0000000  0  8G29G04G10G12G05G25G02G30
 125180365.855 7  97543176.976 6  23821031.852                    23821041.094
 126568236.154 6  98624707.13044  24085119.203                    24085128.172
 116881431.630 7  91076591.57945  22241783.609                    22241791.098
 109513468.003 8  85335224.005 7  20839718.773                    20839726.070
 106706385.327 8  83147917.054 8  20305528.680                    20305535.875
 115162638.115 8  89737170.253 7  21914723.430                    21914733.285
 111093853.458 8  86566720.10046  21140432.820                    21140438.090
 114981200.677 7  89595823.92045  21880201.289                    21880209.758
 11  8 23  1 26  0.0000000  0  8G29G04G10G12G05G25G02G30
 125097561.801 7  97478654.411 6  23805274.938                    23805284.074
 126648096.632 6  98686936.11943  24100315.273                    24100324.746
 116966111.650 7  91142576.02745  22257897.422                    22257905.488
 109536259.739 8  85352983.799 7  20844055.727                    20844063.090
 106690693.459 8  83135689.650 8  20302542.594                    20302549.742
 115119655.834 8  89703677.575 7  21906543.680                    21906554.047
 111124343.536 8  86590478.63146  21146234.477                    21146239.910
 114947746.393 7  89569755.64645  21873835.688                    21873843.664
 11  8 23  1 26 30.0000000  0  8G29G04G10G12G05G25G02G30
 125014721.108 7  97414103.288 6  23789510.391                    23789519.848
 126727903.014 6  98749122.96143  24115502.000                    24115511.605
 117051162.100 7  91208849.12445  22274081.875                    22274089.938
 109559618.302 8  85371185.251 7  20848501.063                    20848508.230
 106675578.816 8  83123912.031 8  20299666.461                    20299673.523
 115077208.894 8  89670602.047 7  21898466.297                    21898476.559
 111154952.414 8  86614329.72246  21152059.352                    21152064.730
 114914879.290 7  89544144.92145  21867581.031                    21867588.906
 11  8 23  1 27  0.0000000  0  8G29G04G10G12G05G25G02G30
 124931845.170 7  97349524.720 6  23773740.070                    23773748.832
 126807655.520 6  98811267.80444  24130678.313                    24130687.422
 117136580.718 7  91275409.09845  22290336.734                    22290345.227
 109583543.539 8  85389828.285 7  20853053.969                    20853061.340
 106661042.092 8  83112584.741 8  20296900.000                    20296907.156
 115035299.357 8  89637945.275 7  21890491.273                    21890501.527
 111185680.307 8  86638273.55246  21157906.633                    21157911.992
 114882600.906 7  89518992.93145  21861438.664                    21861447.430
 11  8 23  1 27 30.0000000  0  8G29G04G10G12G05G25G02G30
 124848935.052 7  97284919.520 6  23757962.727                    23757971.547
 126887353.058 7  98873369.77644  24145844.578                    24145853.641
 117222364.127 7  91342253.31845  22306660.836                    22306668.625
 109608033.900 8  85408911.668 7  20857714.406                    20857721.535
 106647082.638 8  83101707.272 8  20294243.750                    20294251.055
 114993928.157 8  89605707.981 7  21882618.508                    21882628.703
 111216525.610 8  86662308.87946  21163775.961                    21163781.395
 114850911.734 7  89494300.07245  21855408.180                    21855416.359
 11  8 23  1 28  0.0000000  0  8G29G04G10G12G05G25G02G30
 124765991.203 7  97220288.030 6  23742179.016                    23742187.598
 126966995.152 6  98935428.55543  24160999.555                    24161009.012
 117308509.101 7  91409379.28745  22323053.406                    22323061.254
 109633087.943 8  85428434.278 7  20862481.906                    20862489.105
 106633700.402 8  83091279.579 8  20291697.250                    20291704.391
 114953096.388 8  89573891.021 7  21874848.523                    21874858.223
 111247487.329 8  86686434.90946  21169668.117                    21169673.574
 114819812.426 7  89470066.84045  21849490.055                    21849498.617
 11  8 23  1 28 30.0000000  0  8G29G04G10G12G05G25G02G30
 124683014.717 7  97155631.104 6  23726389.313                    23726397.449
 127046581.250 6  98997443.73943  24176144.047                    24176153.520
 117395012.562 7  91476784.58245  22339514.836                    22339522.680
 109658704.658 8  85448395.341 7  20867356.703                    20867363.980
 106620895.234 8  83081301.558 8  20289259.984                    20289267.395
 114912805.242 8  89542495.326 7  21867181.250                    21867191.563
 111278564.546 8  86710650.94446  21175581.703                    21175587.391
 114789303.634 7  89446293.74945  21843684.516                    21843692.770
 11  8 23  1 29  0.0000000  0  8G29G04G10G12G05G25G02G30
 124600007.083 7  97090949.896 6  23710592.797                    23710601.871
 127126111.407 6  99059415.30343  24191278.555                    24191288.012
 117481872.517 7  91544467.66744  22356043.391                    22356051.332
 109684883.374 8  85468794.327 7  20872338.117                    20872345.309
 106608667.668 8  83071773.607 8  20286933.266                    20286940.602
 114873056.635 8  89511522.388 7  21859617.273                    21859627.770
 111309757.257 8  86734956.95646  21181517.797                    21181522.805
 114759386.710 7  89422981.86345  21837991.477                    21837999.551
 11  8 23  1 29 30.0000000  0  8G29G04G10G12G05G25G02G30
 124516969.814 7  97026245.605 6  23694791.305                    23694800.348
 127205585.420 6  99121343.12043  24206402.273                    24206411.664
 117569086.008 7  91612426.23845  22372639.563                    22372647.555
 109711623.452 8  85489630.733 7  20877426.586                    20877433.711
 106597017.752 8  83062695.764 8  20284716.563                    20284723.527
 114833852.088 8  89480973.387 7  21852157.258                    21852167.105
 111341065.204 8  86759352.76946  21187475.266                    21187480.563
 114730062.809 8  89400132.06045  21832411.453                    21832419.863
 11  8 23  1 30  0.0000000  0  8G29G04G10G12G05G25G02G30
 124433903.521 7  96961518.689 6  23678984.391                    23678993.105
 127285002.467 6  99183226.56743  24221514.758                    24221524.129
 117656649.898 7  91680657.86245  22389302.539                    22389310.703
 109738923.368 8  85510903.370 7  20882621.641                    20882628.965
 106585944.848 8  83054067.556 8  20282609.258                    20282616.535
 114795192.477 8  89450849.017 7  21844800.242                    21844810.313
 111372486.997 8  86783837.29046  21193454.813                    21193460.152
 114701332.192 7  89377744.56745  21826944.227                    21826952.898
 11  8 23  1 30 30.0000000  0  9G29G26G04G10G12G05G25G02G30
 124350809.898 7  96896770.470 6  23663172.078                    23663180.711
 130561567.09116 101736367.60252  24845051.117                    24845060.445
 127364362.484 6  99245065.52443  24236615.805                    24236625.910
 117744561.750 7  91749160.60445  22406031.836                    22406039.934
 109766782.325 8  85532611.628 7  20887923.375                    20887930.449
 106575449.499 8  83045889.387 8  20280611.891                    20280619.402
 114757079.551 8  89421150.634 7  21837547.594                    21837557.742
 111404022.590 8  86808410.48146  21199455.555                    21199461.035
 114673196.140 7  89355820.36845  21821589.852                    21821598.762
 11  8 23  1 31  0.0000000  0  9G29G26G04G10G12G05G25G02G30
 124267689.741 7  96832001.570 6  23647354.914                    23647363.152
 130469988.245 5 101665007.55242  24827623.516                    24827634.254
 127443665.138 6  99306859.83043  24251707.094                    24251716.395
 117832818.371 7  91817931.99445  22422825.641                    22422834.355
 109795199.011 8  85554754.485 7  20893330.734                    20893338.289
 106565531.395 8  83038161.024 8  20278724.633                    20278731.961
 114719514.258 8  89391878.976 7  21830399.047                    21830409.301
 111435670.914 8  86833071.51946  21205478.250                    21205483.871
 114645655.162 7  89334359.86245  21816349.125                    21816357.625
 11  8 23  1 31 30.0000000  0  9G29G26G04G10G12G05G25G02G30
 124184544.173 7  96767212.842 6  23631532.766                    23631541.715
 130378270.03515                  24810169.609
 127522909.928 6  99368609.01943  24266786.680                    24266796.168
 117921416.830 7  91886969.74244  22439685.688                    22439693.914
 109824171.781 7  85577330.652 7  20898843.992                    20898851.523
 106556190.079 8  83030882.103 8  20276946.953                    20276954.008
 114682497.718 8  89363034.917 7  21823355.047                    21823365.492
 111467430.941 7  86857819.58546  21211521.836                    21211527.156
 114618709.741 7  89313363.43845  21811222.109                    21811230.020
 11  8 23  1 32  0.0000000  0  9G29G26G04G10G12G05G25G02G30
 124101374.485 7  96702405.295 6  23615706.344                    23615714.941
 130286415.492 5 101521956.91852  24792691.023                    24792700.234
 127602096.323 6  99430312.74743  24281855.227                    24281864.309
 118010354.008 7  91956271.44945  22456610.203                    22456617.848
 109853699.729 8  85600339.429 7  20904462.773                    20904470.348
 106547425.467 8  83024052.561 8  20275279.352                    20275286.250
 114646031.098 8  89334619.371 7  21816415.992                    21816426.316
 111499302.127 8  86882654.28846  21217586.992                    21217592.137
 114592360.604 7  89292831.64845  21806207.875                    21806216.047
 11  8 23  1 32 30.0000000  0  9G29G26G04G10G12G05G25G02G30
 124018181.551 7  96637579.633 6  23599875.094                    23599883.824
 130194427.368 5 101450278.09142  24775185.742                    24775195.887
 127681223.960 6  99491970.67943  24296913.148                    24296922.301
 118099626.964 7  92025834.77845  22473598.109                    22473606.539
 109883781.482 7  85623779.742 7  20910187.203                    20910194.430
 106539237.370 8  83017672.252 8  20273721.211                    20273728.313
 114610115.554 8  89306633.228 7  21809581.250                    21809591.863
 111531283.690 7  86907574.99446  21223672.391                    21223678.180
 114566608.291 7  89272764.92145  21801307.188                    21801315.406
 11  8 23  1 33  0.0000000  0  9G29G26G04G10G12G05G25G02G30
 123934966.654 7  96572736.855 6  23584039.836                    23584048.770
 130102308.435 5 101378497.23142  24757655.531                    24757666.621
 127760292.629 6  99553582.63643  24311959.039                    24311967.801
 118189233.192 7  92095657.80645  22490649.680                    22490657.813
 109914416.080 8  85647650.843 7  20916017.047                    20916024.598
 106531625.572 8  83011741.007 8  20272272.430                    20272279.652
 114574752.394 8  89279077.511 7  21802851.984                    21802861.930
 111563375.464 7  86932581.58346  21229779.406                    21229784.980
 114541453.625 7  89253163.88845  21796520.477                    21796528.531
 11  8 23  1 33 30.0000000  0  9G29G26G04G10G12G05G25G02G30
 123851731.150 7  96507878.004 6  23568201.227                    23568209.020
 130010061.441 5 101306616.63243  24740102.016                    24740113.547
 127839301.932 6  99615148.38243  24326994.016                    24327003.133
 118279169.621 7  92165738.14644  22507763.680                    22507772.094
 109945601.775 8  85671951.366 7  20921951.125                    20921958.859
 106524589.428 8  83006258.332 8  20270933.445                    20270940.973
 114539942.582 8  89251952.995 7  21796228.242                    21796237.887
 111595576.578 7  86957673.36546  21235907.211                    21235912.703
 114516897.136 7  89234028.96345  21791847.336                    21791855.645
 11  8 23  1 34  0.0000000  0  9G29G26G04G10G12G05G25G02G30
 123768476.272 7  96443004.068 6  23552357.852                    23552366.598
 129917689.356 6 101234638.48643  24722524.055                    24722535.465
 127918251.370 6  99676667.45643  24342017.773                    24342026.477
 118369433.169 7  92236073.38245  22524940.586                    22524949.027
 109977337.323 8  85696680.347 7  20927990.492                    20927997.680
 106518128.946 8  83001224.209 8  20269704.500                    20269711.512
 114505687.238 8  89225260.517 7  21789709.297                    21789719.613
 111627886.261 8  86982849.74546  21242055.516                    21242060.746
 114492939.222 8  89215360.46845  21787288.336                    21787296.727
 11  8 23  1 34 30.0000000  0  9G29G26G04G10G12G05G25G02G30
 123685203.153 7  96378115.923 6  23536511.531                    23536519.660
 129825195.076 6 101162565.10043  24704922.656                    24704933.953
 127997140.917 6  99738139.86343  24357029.680                    24357039.020
 118460021.224 7  92306661.47545  22542179.039                    22542186.480
 110009621.901 8  85721837.144 7  20934134.328                    20934141.234
 106512244.056 8  82996638.615 8  20268584.039                    20268591.598
 114471987.642 8  89199001.097 7  21783296.438                    21783306.633
 111660303.848 8  87008110.20946  21248224.180                    21248229.289
 114469580.703 8  89197159.03545  21782843.516                    21782851.613
 11  8 23  1 35  0.0000000  0  9G29G26G04G10G12G05G25G02G30
 123601913.236 7  96313214.682 6  23520661.883                    23520670.578
 129732581.541 6 101090398.79943  24687299.016                    24687309.777
 128075970.363 6  99799565.42643  24372030.094                    24372039.301
 118550931.098 7  92377500.33844  22559478.656                    22559486.512
 110042453.916 8  85747420.524 7  20940382.219                    20940389.203
 106506934.531 8  82992501.349 8  20267573.852                    20267581.211
 114438844.930 8  89173175.607 7  21776989.656                    21776999.645
 111692828.922 8  87033454.42446  21254413.695                    21254418.777
 114446822.213 8  89179425.14445  21778512.813                    21778520.785
 11  8 23  1 35 30.0000000  0  9G29G26G04G10G12G05G25G02G30
 123518607.539 6  96248301.162 6  23504809.633                    23504818.098
 129639851.407 6 101018141.67243  24669652.836                    24669663.977
 128154739.037 6  99860943.58843  24387019.563                    24387029.195
 118642159.421 7  92448587.33744  22576838.648                    22576846.570
 110075831.752 8  85773429.208 7  20946733.148                    20946740.895
 106502199.616 8  82988811.833 8  20266672.773                    20266679.902
 114406259.879 8  89147784.660 7  21770788.953                    21770799.145
 111725460.630 8  87058881.74746  21260623.656                    21260628.688
 114424663.898 8  89162158.92745  21774295.703                    21774304.117
 11  8 23  1 36  0.0000000  0  9G29G26G04G10G12G05G25G02G30
 123435287.188 6  96183376.246 6  23488954.125                    23488962.457
 129547007.452 6 100945795.81543  24651985.391                    24651995.836
 128233446.423 6  99922274.08143  24401997.609                    24402006.664
 118733703.213 7  92519920.16144  22594259.305                    22594267.211
 110109753.959 8  85799862.092 7  20953188.344                    20953195.684
 106498038.454 8  82985569.397 8  20265881.109                    20265888.336
 114374233.371 8  89122828.951 7  21764694.516                    21764704.648
 111758198.426 7  87084391.73546  21266853.109                    21266858.555
 114403106.066 8  89145360.62545  21770193.609                    21770202.023
 11  8 23  1 36 30.0000000  0  9G29G26G04G10G12G05G25G02G30
 123351953.843 6  96118441.227 6  23473096.180                    23473104.820
 129454052.652 6 100873363.63744  24634296.727                    24634307.078
 128312092.831 7  99983556.98743  24416963.125                    24416972.684
 118825560.130 7  92591496.97544  22611739.023                    22611747.020
 110144219.519 8  85826718.348 7  20959746.914                    20959754.371
 106494451.566 8  82982774.445 8  20265198.516                    20265205.645
 114342766.722 8  89098309.487 7  21758706.445                    21758716.633
 111791041.758 8  87109983.95646  21273102.664                    21273108.656
 114382149.538 8  89129030.86145  21766205.828                    21766214.188
 11  8 23  1 37  0.0000000  0  9G29G26G04G10G12G05G25G02G30
 123268608.567 6  96053496.909 6  23457236.016                    23457244.750
 129360990.288 6 100800847.62744  24616587.695                    24616597.941
 128390677.546 6 100044791.85143  24431917.898                    24431926.281
 118917726.792 7  92663315.13845  22629277.086                    22629285.574
 110179226.783 8  85853996.723 7  20966408.891                    20966416.172
 106491437.915 8  82980426.161 8  20264624.969                    20264632.168
 114311860.687 8  89074226.872 7  21752825.398                    21752835.605
 111823989.841 7  87135657.80346  21279372.578                    21279378.203
 114361794.523 8  89113169.81245  21762332.258                    21762339.965
 11  8 23  1 37 30.0000000  0  9G29G26G04G10G12G05G25G02G30
 123185252.867 7  95988544.482 6  23441374.102                    23441382.211
 129267822.964 6 100728249.81943  24598857.555                    24598868.438
 128469200.880 6 100105978.90543  24446859.711                    24446868.543
 119010200.465 7  92735372.55444  22646874.703                    22646882.598
 110214774.838 8  85881696.496 7  20973173.297                    20973180.496
 106488997.511 8  82978524.563 8  20264160.617                    20264167.613
 114281516.602 8  89050582.144 7  21747051.305                    21747061.172
 111857042.647 7  87161413.24946  21285662.563                    21285667.641
 114342041.731 8  89097778.02145  21758573.594                    21758581.785
 11  8 23  1 38  0.0000000  0  9G29G26G04G10G12G05G25G02G30
 123101887.807 7  95923584.757 6  23425510.063                    23425518.520
 129174553.778 6 100655572.60643  24581109.813                    24581120.434
 128547662.150 6 100167117.56243  24461790.359                    24461799.801
 119102978.478 7  92807667.10444  22664529.578                    22664537.758
 110250861.343 8  85909815.838 7  20980040.375                    20980047.684
 106487129.499 8  82977068.991 8  20263804.977                    20263812.180
 114251735.084 8  89027375.775 7  21741383.625                    21741393.941
 111890199.169 7  87187249.51046  21291971.992                    21291977.461
 114322891.231 8  89082855.55145  21754929.266                    21754937.410
 11  8 23  1 38 30.0000000  0  9G29G26G04G10G12G05G25G02G30
 123018514.843 7  95858618.895 6  23409644.438                    23409653.504
 129081185.903 6 100582818.51243  24563342.094                    24563352.973
 128626061.262 6 100228207.76743  24476709.188                    24476718.684
 119196057.754 7  92880196.40744  22682242.156                    22682250.078
 110287485.185 8  85938353.881 7  20987009.781                    20987016.883
 106485833.934 8  82976059.478 8  20263558.383                    20263565.629
 114222517.281 8  89004608.664 7  21735823.969                    21735833.824
 111923459.173 7  87213166.41746  21298301.109                    21298306.355
 114304343.625 8  89068402.86845  21751399.977                    21751407.781
 11  8 23  1 39  0.0000000  0  9G29G26G04G10G12G05G25G02G30
 122935135.176 7  95793647.817 6  23393777.844                    23393786.344
 128987721.833 6 100509989.48143  24545556.578                    24545566.008
 128704397.926 6 100289249.31043  24491616.438                    24491626.039
 119289435.401 7  92952958.21444  22700011.516                    22700019.156
 110324644.516 8  85967309.193 7  20994080.977                    20994088.340
 106485109.486 8  82975494.989 8  20263420.703                    20263427.535
 114193863.718 8  88982281.220 7  21730371.273                    21730381.121
 111956821.603 7  87239163.13446  21304649.773                    21304655.078
 114286398.825 8  89054419.90345  21747984.852                    21747993.023
 11  8 23  1 39 30.0000000  0  9G29G26G04G10G12G05G25G02G30
 122851750.312 7  95728672.674 6  23377910.500                    23377918.777
 128894164.949 6 100437088.11143  24527752.797                    24527763.539
 128782671.732 6 100350241.87543  24506510.977                    24506520.813
 119383108.495 7  93025950.24344  22717836.492                    22717844.078
 110362338.269 8  85996680.940 7  21001253.789                    21001261.289
 106484956.280 8  82975375.627 8  20263391.484                    20263398.445
 114165775.671 8  88960394.442 7  21725026.242                    21725036.105
 111990286.400 7  87265239.61746  21311017.664                    21311023.063
 114269057.506 8  89040907.19445  21744684.984                    21744693.406
 11  8 23  1 40  0.0000000  0  9G29G26G04G10G12G05G25G02G30
 122768361.464 7  95663694.428 6  23362041.820                    23362050.563
 128800518.009 6 100364116.55743  24509932.297                    24509942.934
 128860882.969 6 100411185.66343  24521394.023                    24521403.715
 119477073.965 6  93099170.08944  22735717.352                    22735725.660
 110400564.732 8  86026467.785 7  21008528.156                    21008535.602
 106485373.419 8  82975700.682 8  20263470.555                    20263477.945
 114138253.688 8  88938948.749 7  21719789.125                    21719799.293
 112023852.811 7  87291395.27346  21317405.148                    21317411.199
 114252319.752 8  89027864.78545  21741500.258                    21741507.801
 11  8 23  1 40 30.0000000  0  9G29G26G04G10G12G05G25G02G30
 122684970.213 6  95598714.310 6  23346172.930                    23346181.762
 128706784.013 6 100291077.21942  24492095.500                    24492106.316
 128939030.950 6 100472080.15643  24536265.680                    24536274.809
 119571329.267 6  93172615.77944  22753653.688                    22753661.719
 110439322.578 8  86056668.694 7  21015903.742                    21015910.840
 106486360.573 8  82976469.915 8  20263658.695                    20263665.633
 114111298.858 8  88917944.982 7  21714659.695                    21714669.906
 112057520.336 8  87317629.72546  21323812.188                    21323817.352
 114236185.944 8  89015292.98945  21738429.695                    21738437.391
 11  8 23  1 41  0.0000000  0  9G29G26G04G10G12G05G25G02G30
 122601577.704 6  95533733.215 6  23330303.227                    23330312.289
 128612966.017 6 100217972.36042  24474241.914                    24474253.684
 129017115.688 6 100532925.37442  24551124.172                    24551133.406
 119665871.078 6  93246284.72244  22771644.508                    22771652.383
 110478609.620 8  86087281.961 7  21023379.672                    21023386.715
 106487916.962 8  82977682.703 8  20263954.750                    20263961.895
 114084911.740 8  88897383.611 7  21709638.320                    21709648.359
 112091288.551 8  87343942.63046  21330237.672                    21330242.996
 114220656.159 8  89003191.84845  21735474.398                    21735482.242
 11  8 23  1 41 30.0000000  0  9G29G26G04G10G12G05G25G02G30
 122518185.259 7  95468752.151 6  23314434.484                    23314443.359
 128519067.154 6 100144804.47642  24456373.281                    24456384.625
 129095136.917 6 100593721.11843  24565971.609                    24565980.188
 119760696.934 7  93320174.98444  22789689.180                    22789697.102
 110518424.597 8  86118306.609 7  21030956.297                    21030963.434
 106490042.018 7  82979338.605 8  20264359.188                    20264366.461
 114059093.125 8  88877265.226 7  21704725.602                    21704735.445
 112125156.686 8  87370333.39146  21336682.641                    21336688.203
 114205730.492 8  88991561.46045  21732634.313                    21732642.199
 11  8 23  1 42  0.0000000  0  9G29G26G04G10G12G05G25G02G30
 122434794.438 7  95403772.335 7  23298565.586                    23298574.559
 128425090.218 6 100071575.80542  24438490.797                    24438501.395
 129173094.170 6 100654467.07543  24580806.352                    24580815.520
 119855803.562 6  93394284.04144  22807787.703                    22807795.309
 110558765.589 8  86149741.132 7  21038632.875                    21038640.367
 106492734.678 8  82981436.807 8  20264871.578                    20264878.891
 114033843.515 8  88857590.214 7  21699920.523                    21699930.895
 112159123.964 8  87396801.40346  21343146.414                    21343151.934
 114191408.839 8  88980401.73545  21729908.797                    21729917.344
 11  8 23  1 42 30.0000000  0  9G29G26G04G10G12G05G25G02G30
 122351406.306 6  95338794.617 6  23282697.609                    23282706.301
 128331038.494 6  99998288.85242  24420593.063                    24420604.098
 129250987.543 6 100715163.17543  24595629.141                    24595637.730
 119951187.997 6  93468609.56844  22825938.688                    22825946.723
 110599630.931 8  86181584.265 7  21046409.203                    21046416.578
 106495994.448 8  82983976.913 8  20265491.922                    20265498.773
 114009163.817 8  88838359.285 7  21695224.031                    21695234.098
 112193190.000 7  87423346.37046  21349629.164                    21349634.531
 114177691.602 8  88969712.97845  21727298.977                    21727307.008
 11  8 23  1 43  0.0000000  0  9G29G26G04G10G12G05G25G02G30
 122268022.426 7  95273820.177 6  23266830.398                    23266838.977
 128236914.778 6  99924945.79143  24402681.656                    24402692.816
 129328816.795 6 100775809.27243  24610439.344                    24610448.063
 120046847.539 6  93543149.48044  22844142.180                    22844150.336
 110641018.572 8  86213834.356 7  21054285.039                    21054292.535
 106499820.543 8  82986958.305 8  20266219.891                    20266227.293
 113985054.599 8  88819572.895 7  21690636.516                    21690646.156
 112227354.471 7  87449968.04246  21356130.078                    21356135.660
 114164578.717 8  88959495.14945  21724803.289                    21724811.125
 11  8 23  1 43 30.0000000  0  9G29G26G04G10G12G05G25G02G30
 122184644.215 7  95208850.159 6  23250963.742                    23250972.566
 128142722.388 6  99851549.25443  24384757.805                    24384768.543
 129406581.737 6 100836405.28443  24625237.148                    24625246.754
 120142779.710 6  93617901.82644  22862396.867                    22862405.516
 110682927.551 8  86246490.698 7  21062260.258                    21062267.211
 106504212.479 8  82990380.622 8  20267055.750                    20267063.074
 113961516.798 8  88801231.760 7  21686157.359                    21686167.098
 112261617.237 8  87476666.32146  21362650.023                    21362655.410
 114152070.461 8  88949748.46445  21722423.039                    21722431.070
 11  8 23  1 44  0.0000000  0  9G29G26G04G10G12G05G25G02G30
 122101273.253 7  95143885.765 6  23235099.188                    23235107.219
 128048464.365 6  99778101.58543  24366820.727                    24366831.699
 129484282.146 6 100896951.02043  24640022.414                    24640032.863
 120238981.160 7  93692864.00544  22880703.602                    22880712.172
 110725355.538 8  86279551.454 7  21070333.625                    21070341.246
 106509169.298 8  82994243.102 8  20267998.789                    20268005.930
 113938550.864 8  88783336.239 7  21681786.758                    21681796.645
 112295977.622 7  87503440.65846  21369188.727                    21369194.164
 114140166.664 8  88940472.78145  21720157.797                    21720166.242
 11  8 23  1 44 30.0000000  0  9G29G26G04G10G12G05G25G02G30
 122017911.006 7  95078928.169 6  23219235.352                    23219243.977
 127954143.489 6  99704604.89643  24348871.578                    24348882.613
 129561917.800 6 100957446.30343  24654796.359                    24654806.633
 120335448.962 7  93768033.72144  22899060.563                    22899069.047
 110768300.874 8  86313015.357 7  21078506.328                    21078513.484
 106514690.112 8  82998545.066 8  20269049.375                    20269056.543
 113916157.342 8  88765886.755 7  21677525.500                    21677535.578
 112330434.762 8  87530290.38546  21375745.742                    21375751.055
 114128867.344 8  88931668.10545  21718007.781                    21718015.969
 11  8 23  1 45  0.0000000  0  9G29G26G04G10G12G05G25G02G30
 121934558.813 7  95013978.398 6  23203374.414                    23203382.992
 127859763.185 6  99631061.91643  24330911.711                    24330922.660
 129639488.747 6 101017891.13843  24669558.148                    24669567.547
 120432180.259 7  93843408.74544  22917468.156                    22917476.477
 110811761.887 8  86346881.064 7  21086776.469                    21086783.664
 106520774.154 8  83003285.900 8  20270207.219                    20270214.262
 113894336.965 8  88748883.883 7  21673373.328                    21673383.195
 112364988.307 7  87557215.23246  21382321.148                    21382326.438
 114118172.536 8  88923334.49646  21715972.664                    21715980.617
 11  8 23  1 45 30.0000000  0  8G29G26G10G12G05G25G02G30
 121851218.390 7  94949037.805 6  23187515.250                    23187523.461
 127765326.814 6  99557475.27743  24312941.195                    24312951.387
 120529172.689 7  93918987.25444  22935925.234                    22935934.094
 110855737.321 8  86381147.629 7  21095144.531                    21095152.355
 106527421.105 8  83008465.381 8  20271472.172                    20271479.000
 113873090.620 8  88732328.305 7  21669330.133                    21669340.430
 112399638.302 8  87584215.24846  21388914.875                    21388920.188
 114108082.568 8  88915472.18745  21714052.523                    21714060.355
 11  8 23  1 46  0.0000000  0  8G29G26G10G12G05G25G02G30
 121767890.810 7  94884107.207 6  23171658.586                    23171667.246
 127670837.212 6  99483847.16443  24294960.383                    24294970.297
 120626422.943 7  93994766.68744  22954431.938                    22954439.680
 110900225.085 8  86415813.409 7  21103610.563                    21103617.750
 106534629.784 8  83014082.561 8  20272843.633                    20272850.410
 113852418.459 8  88716220.137 7  21665396.539                    21665406.270
 112434383.476 8  87611289.40346  21395526.805                    21395532.078
 114098596.931 8  88908080.78645  21712247.828                    21712255.535
 11  8 23  1 46 30.0000000  0  8G29G26G10G12G05G25G02G30
 121684577.723 7  94819187.921 6  23155804.680                    23155813.188
 127576297.124 6  99410179.73043  24276969.898                    24276980.496
 120723928.170 7  94070744.78344  22972986.805                    22972994.051
 110945222.364 8  86450876.213 7  21112173.227                    21112180.410
 106542399.054 8  83020136.559 8  20274322.117                    20274329.516
 113832320.806 8  88700559.656 7  21661571.430                    21661582.066
 112469224.160 8  87638437.98846  21402156.258                    21402161.871
 114089715.341 8  88901160.07045  21710557.219                    21710565.172
 11  8 23  1 47  0.0000000  0  8G29G26G10G12G05G25G02G30
 121601280.460 7  94754280.983 6  23139953.297                    23139961.664
 127481709.915 6  99336475.52743  24258970.195                    24258980.598
 120821685.418 6  94146919.27744  22991588.852                    22991597.031
 110990727.918 8  86486335.080 7  21120832.172                    21120839.840
 106550728.147 8  83026626.793 8  20275907.125                    20275914.430
 113812798.230 8  88685347.272 7  21657857.070                    21657867.320
 112504159.515 8  87665660.32346  21408804.813                    21408810.250
 114081437.807 8  88894710.05545  21708981.984                    21708990.688
 11  8 23  1 47 30.0000000  0  8G29G26G10G12G05G25G02G30
 121518000.375 7  94689387.416 6  23124105.578                    23124114.207
 127387078.694 6  99262737.05543  24240962.328                    24240972.414
 120919691.475 6  94223287.63544  23010238.836                    23010246.664
 111036739.287 8  86522188.084 7  21129588.008                    21129595.730
 106559615.574 8  83033552.089 8  20277598.336                    20277605.313
 113793851.007 8  88670583.215 7  21654251.211                    21654261.316
 112539188.978 8  87692956.03246  21415470.273                    21415475.406
 114073763.850 8  88888730.36245  21707522.078                    21707530.012
 11  8 23  1 48  0.0000000  0  8G29G26G10G12G05G25G02G30
 121434739.562 7  94624508.880 6  23108261.758                    23108270.309
 127292406.762 6  99188966.85243  24222947.023                    24222957.266
 121017943.888 6  94299847.96844  23028935.344                    23028943.176
 111083255.659 8  86558434.591 7  21138440.141                    21138447.652
 106569061.173 8  83040912.330 8  20279395.914                    20279402.520
 113775480.007 8  88656268.166 7  21650755.219                    21650765.469
 112574312.414 8  87720324.96046  21422154.391                    21422159.332
 114066693.830 8  88883221.25745  21706176.594                    21706184.840
 11  8 23  1 48 30.0000000  0  8G29G26G10G12G05G25G02G30
 121351499.321 7  94559646.373 6  23092421.398                    23092430.180
 127197697.316 6  99115167.41944  24204923.945                    24204934.813
 121116439.710 6  94376597.95844  23047678.891                    23047686.598
 111130274.466 8  86595072.616 7  21147387.523                    21147394.715
 106579063.903 8  83048706.692 8  20281299.094                    20281306.418
 113757685.570 8  88642402.389 7  21647369.563                    21647379.531
 112609529.441 8  87747766.80446  21428855.695                    21428861.160
 114060227.364 8  88878182.46345  21704946.000                    21704954.359
 11  8 23  1 49  0.0000000  0  8G29G26G10G12G05G25G02G30
 121268280.924 7  94494800.912 6  23076585.758                    23076594.313
 127102953.277 6  99041341.04943  24186895.031                    24186905.488
 121215175.984 6  94453535.29944  23066467.148                    23066475.637
 111177793.477 8  86632100.416 7  21156429.977                    21156437.160
 106589622.185 8  83056933.950 8  20283308.461                    20283315.184
 113740467.748 8  88628985.913 7  21644092.797                    21644103.082
 112644838.984 8  87775280.73046  21435575.047                    21435580.445
 114054363.918 8  88873613.55846  21703830.109                    21703838.344
 11  8 23  1 49 30.0000000  0  8G29G26G10G12G05G25G02G30
 121185086.129 7  94429973.842 7  23060754.172                    23060762.773
 127008178.177 6  98967490.43143  24168859.469                    24168869.762
 121314149.952 6  94530657.87044  23085301.773                    23085309.277
 111225811.479 8  86669517.033 7  21165567.531                    21165575.047
 106600735.563 8  83065593.757 8  20285423.195                    20285430.199
 113723827.218 8  88616019.280 7  21640926.352                    21640936.406
 112680241.268 8  87802866.93146  21442311.813                    21442316.637
 114049103.475 8  88869514.52645  21702828.953                    21702837.340
 11  8 23  1 50  0.0000000  0  8G29G26G10G12G05G25G02G30
 121101916.546 7  94365166.432 6  23044927.742                    23044935.785
 126913375.009 6  98893617.97543  24150818.984                    24150829.801
 121413358.783 6  94607963.45544  23104180.461                    23104188.484
 111274325.893 8  86707320.461 7  21174799.383                    21174806.781
 106612402.879 8  83074685.195 8  20287643.133                    20287650.066
 113707764.103 8  88603502.582 7  21637869.219                    21637879.434
 112715735.548 8  87830524.81646  21449066.094                    21449071.281
 114044445.565 8  88865884.99245  21701942.672                    21701951.004
 11  8 23  1 50 30.0000000  0  8G29G26G10G12G05G25G02G30
 121018773.592 7  94300379.769 7  23029105.875                    23029114.086
 126818547.265 6  98819726.33943  24132774.039                    24132784.266
 121512799.737 6  94685449.90844  23123102.883                    23123111.426
 111323334.589 8  86745509.039 7  21184125.477                    21184133.043
 106624623.218 8  83084207.560 8  20289968.820                    20289975.930
 113692278.896 8  88591436.194 7  21634923.047                    21634932.676
 112751322.039 8  87858254.54346  21455838.063                    21455843.355
 114040390.008 7  88862724.83245  21701170.977                    21701179.305
 11  8 23  1 51  0.0000000  0  8G29G26G10G12G05G25G02G30
 120935658.598 7  94235614.912 6  23013289.773                    23013297.996
 126723697.544 6  98745817.60543  24114724.898                    24114734.031
 121612469.618 7  94763114.75544  23142069.875                    23142077.738
 111372835.779 8  86784081.394 7  21193545.211                    21193552.738
 106637394.656 8  83094159.346 8  20292399.250                    20292405.930
 113677371.558 8  88579820.099 7  21632085.914                    21632095.820
 112786999.705 8  87886055.33046  21462627.484                    21462632.266
 114036936.182 8  88860033.54645  21700513.758                    21700522.152
 11  8 23  1 51 30.0000000  0  8G29G26G10G12G05G25G02G30
 120852573.523 7  94170873.342 6  22997479.039                    22997487.188
 126628829.384 6  98671894.46543  24096671.703                    24096681.016
 121712365.788 6  94840955.95744  23161079.477                    23161087.371
 111422827.334 8  86823035.846 7  21203058.148                    21203065.773
 106650716.780 8  83104540.247 8  20294934.070                    20294940.867
 113663042.519 8  88568654.625 7  21629359.336                    21629369.289
 112822768.354 8  87913927.00246  21469434.016                    21469439.281
 114034083.813 7  88857810.92645  21699970.883                    21699979.035
 11  8 23  1 52  0.0000000  0  8G29G26G10G12G05G25G02G30
 120769519.983 7  94106156.368 6  22981674.531                    22981683.215
 126533946.047 6  98597959.53643  24078616.320                    24078625.676
 121812485.256 7  94918971.13544  23180131.234                    23180139.746
 111473307.715 8  86862371.207 7  21212664.273                    21212671.676
 106664588.462 8  83115349.365 8  20297573.727                    20297580.535
 113649292.102 8  88557940.002 7  21626742.484                    21626752.512
 112858627.868 8  87941869.47946  21476257.727                    21476262.973
 114031832.618 7  88856056.74745  21699542.477                    21699550.578
 11  8 23  1 52 30.0000000  0  8G29G26G10G12G05G25G02G30
 120686499.244 7  94041464.942 6  22965875.961                    22965884.629
 126439050.848 7  98524015.32743  24060558.063                    24060567.223
 121912825.380 7  94997158.23944  23199225.969                    23199233.863
 111524274.115 8  86902085.280 7  21222363.141                    21222370.484
 106679008.492 8  83126585.778 8  20300317.766                    20300324.762
 113636120.298 8  88547676.262 7  21624236.078                    21624246.238
 112894577.444 8  87969882.13046  21483098.680                    21483103.836
 114030181.941 8  88854770.50245  21699228.477                    21699236.766
 11  8 23  1 53  0.0000000  0  8G29G26G10G12G05G25G02G30
 120603513.111 7  93976800.486 6  22950084.461                    22950092.762
 126344146.977 7  98450064.34643  24042498.758                    24042507.563
 122013383.182 7  95075514.96244  23218361.500                    23218369.191
 111575724.361 8  86942176.381 7  21232153.664                    21232161.141
 106693975.580 8  83138248.459 8  20303166.023                    20303173.117
 113623527.202 8  88537863.446 7  21621839.883                    21621849.813
 112930616.830 8  87997964.76346  21489956.688                    21489962.051
 114029131.215 8  88853951.74745  21699028.570                    21699036.594
 11  8 23  1 53 30.0000000  0  8G29G26G10G12G05G25G02G30
 120520563.369 7  93912164.379 6  22934299.500                    22934307.844
 126249237.770 6  98376109.21543  24024437.438                    24024447.391
 122114155.629 7  95154038.94644  23237537.836                    23237546.203
 111627656.809 8  86982643.219 7  21242036.227                    21242043.340
 106709488.691 8  83150336.611 8  20306118.039                    20306124.926
 113611513.330 8  88528501.977 7  21619553.531                    21619563.668
 112966745.883 8  88026117.27146  21496831.906                    21496836.965
 114028680.194 8  88853600.29346  21698942.594                    21698950.910
 11  8 23  1 54  0.0000000  0  8G29G26G10G12G05G25G02G30
 120437651.253 7  93847557.577 7  22918521.570                    22918529.730
 126154326.839 6  98302152.72343  24006376.484                    24006386.188
 122215140.345 7  95232728.33444  23256754.789                    23256762.500
 111680069.393 8  87023484.187 7  21252009.820                    21252017.516
 106725546.818 8  83162849.467 8  20309173.813                    20309181.172
 113600078.919 8  88519592.026 7  21617377.922                    21617387.824
 113002964.840 8  88054339.84546  21503723.938                    21503729.418
 114028828.586 8  88853715.92046  21698971.133                    21698979.180
 11  8 23  1 54 30.0000000  0  8G29G26G10G12G05G25G02G30
 120354778.769 7  93782981.670 6  22902751.266                    22902759.527
 126059416.904 7  98228197.00743  23988315.836                    23988325.695
 122316334.407 7  95311580.87044  23276010.469                    23276018.668
 111732959.339 8  87064697.136 7  21262074.602                    21262081.953
 106742148.222 8  83175785.647 8  20312332.977                    20312339.844
 113589223.548 8  88511133.288 7  21615312.023                    21615321.871
 113039272.643 8  88082631.63846  21510633.430                    21510638.469
 114029575.284 8  88854297.75046  21699113.000                    21699121.051
 11  8 23  1 55  0.0000000  0  8G29G26G10G12G05G25G02G30
 120271947.467 7  93718437.840 6  22886989.172                    22886997.336
 125964511.464 7  98154244.79643  23970256.164                    23970265.723
 122417734.755 7  95390594.12444  23295306.977                    23295315.016
 111786324.847 8  87106280.644 7  21272229.258                    21272236.898
 106759291.946 8  83189144.413 8  20315595.031                    20315601.984
 113578947.570 8  88503126.013 7  21613356.313                    21613367.035
 113075669.209 8  88110992.59946  21517559.094                    21517564.391
 114030919.930 7  88855345.51445  21699369.094                    21699376.844
 11  8 23  1 55 30.0000000  0  8G29G26G10G12G05G25G02G30
 120189158.898 7  93653927.334 6  22871234.719                    22871243.402
 125869613.786 7  98080298.64343  23952197.156                    23952206.594
 122519338.531 7  95469765.87944  23314641.086                    23314649.465
 111840163.679 8  87148232.981 7  21282474.586                    21282482.523
 106776976.587 8  83202924.669 8  20318960.500                    20318967.762
 113569250.949 8  88495570.197 7  21611511.148                    21611521.258
 113112154.161 8  88139422.44546  21524502.328                    21524507.461
 114032861.944 7  88856858.76445  21699738.414                    21699746.637
 11  8 23  1 56  0.0000000  0  8G29G26G10G12G05G25G02G30
 120106414.935 7  93589451.562 6  22855489.469                    22855497.586
 125774727.451 6  98006361.34943  23934141.078                    23934149.742
 122621143.078 7  95549094.09744  23334013.852                    23334022.531
 111894473.877 8  87190552.612 7  21292809.633                    21292817.297
 106795201.063 8  83217125.587 8  20322428.258                    20322435.344
 113560133.784 8  88488465.894 7  21609776.336                    21609786.492
 113148727.188 8  88167920.92046  21531461.516                    21531466.949
 114035400.680 8  88858836.97646  21700221.516                    21700229.730
 11  8 23  1 56 30.0000000  0  8G29G26G10G12G05G25G02G30
 120023717.145 7  93525011.781 7  22839752.414                    22839760.676
 125679855.367 6  97932435.16043  23916087.211                    23916096.695
 122723145.365 7  95628576.40044  23353424.289                    23353432.082
 111949252.937 8  87233237.599 7  21303234.070                    21303241.508
 106813963.617 8  83231745.773 8  20325998.813                    20326005.902
 113551595.955 8  88481813.027 7  21608151.523                    21608161.820
 113185387.901 8  88196487.72046  21538438.258                    21538443.309
 114038535.380 7  88861279.58846  21700818.133                    21700826.465
 11  8 23  1 57  0.0000000  0  8G29G26G10G12G05G25G02G30
 119941067.079 7  93460609.196 7  22824024.766                    22824032.840
 125585001.113 6  97858522.87243  23898037.188                    23898046.664
 122825342.870 7  95708210.82144  23372871.758                    23372880.309
 112004498.669 8  87276286.221 7  21313746.820                    21313754.449
 106833263.022 8  83246784.290 8  20329671.633                    20329678.035
 113543637.379 8  88475611.531 7  21606637.406                    21606647.184
 113222135.945 8  88225122.56746  21545431.008                    21545436.117
 114042265.259 7  88864185.97046  21701527.672                    21701535.996
 11  8 23  1 57 30.0000000  0  8G29G26G10G12G05G25G02G30
 119858466.605 7  93396245.243 7  22808306.156                    22808314.891
 125490168.018 6  97784627.04643  23879989.938                    23880000.922
 122927733.060 7  95787995.38044  23392356.148                    23392364.105
 112060208.702 8  87319696.639 7  21324348.195                    21324355.172
 106853098.215 8  83262240.304 8  20333445.891                    20333452.668
 113536258.093 8  88469861.433 7  21605233.023                    21605243.094
 113258971.203 8  88253825.37546  21552440.617                    21552446.105
 114046589.750 7  88867555.68545  21702350.461                    21702358.949
 11  8 23  1 58  0.0000000  0  8G29G26G10G12G05G25G02G30
 119775917.272 7  93331921.153 7  22792597.984                    22792605.902
 125395359.456 6  97710750.34343  23861948.945                    23861958.883
 123030313.065 7  95867927.86443  23411876.375                    23411884.461
 112116380.616 8  87363466.951 7  21335037.461                    21335044.586
 106873467.792 8  83278112.725 8  20337322.008                    20337328.859
 113529458.043 8  88464562.678 7  21603938.727                    21603948.938
 113295893.458 8  88282595.98546  21559466.750                    21559471.520
 114051508.072 7  88871388.12045  21703286.883                    21703294.969
 11  8 23  1 58 30.0000000  0  8G29G26G10G12G05G25G02G30
 119693421.006 7  93267638.414 7  22776898.906                    22776907.563
 125300578.749 6  97636895.33843  23843912.828                    23843923.117
 123133079.740 7  95948005.77643  23431431.953                    23431440.387
 112173012.164 7  87407595.434 7  21345813.867                    21345821.453
 106894370.167 8  83294400.297 8  20341299.570                    20341306.480
 113523236.990 8  88459715.111 7  21602755.250                    21602765.242
 113332902.305 8  88311434.06446  21566508.859                    21566514.254
 114057019.298 7  88875682.57845  21704335.633                    21704343.703
 11  8 23  1 59  0.0000000  0  8G29G26G10G12G05G25G02G30
 119610979.366 7  93203398.231 7  22761211.438                    22761219.418
 125205829.225 6  97563064.64944  23825882.602                    23825892.484
 123236030.217 7  96028226.95143  23451023.258                    23451030.813
 112230101.264 8  87452080.441 7  21356677.398                    21356685.109
 106915803.861 8  83311101.890 8  20345378.359                    20345385.254
 113517594.811 8  88455318.605 7  21601681.391                    21601691.500
 113369997.270 8  88340339.24546  21573567.867                    21573572.941
 114063122.759 8  88880438.52645  21705497.133                    21705505.074
 11  8 23  1 59 30.0000000  0  8G29G26G10G12G05G25G02G30
 119528594.182 7  93139202.049 7  22745533.250                    22745541.707
 125111113.968 6  97489260.64944  23807858.883                    23807868.539
 123339161.485 7  96108589.01543  23470648.516                    23470655.719
 112287645.320 7  87496919.954 7  21367628.539                    21367635.148
 106937767.095 8  83328216.112 8  20349557.688                    20349564.930
 113512531.089 8  88451372.854 7  21600717.922                    21600727.605
 113407178.388 8  88369311.56346  21580643.188                    21580648.516
 114069817.279 8  88885655.04045  21706770.867                    21706778.980
 11  8 23  2  0  0.0000000  0  8G29G26G10G12G05G25G02G30
 119446267.120 7  93075051.137 7  22729867.156                    22729875.484
 125016436.733 6  97415486.28544  23789842.438                    23789851.668
 123442471.481 7  96189090.30743  23490307.625                    23490315.242
 112345642.034 7  87542112.197 7  21378664.164                    21378671.363
 106960259.135 8  83345742.385 8  20353838.188                    20353844.988
 113508045.996 8  88447877.991 7  21599864.578                    21599875.008
 113444445.630 8  88398350.99146  21587735.195                    21587739.930
 114077102.369 8  88891331.72645  21708157.094                    21708165.188
 11  8 23  2  0 30.0000000  0  8G29G26G10G12G05G25G02G30
 119363999.905 7  93010946.884 7  22714212.156                    22714220.102
 124921800.874 6  97341744.14243  23771833.031                    23771842.684
 123545957.176 7  96269728.53943  23510000.930                    23510007.672
 112404089.192 8  87587655.428 7  21389786.516                    21389793.770
 106983278.156 8  83363679.303 8  20358218.094                    20358225.043
 113504139.190 8  88444833.742 7  21599120.914                    21599131.453
 113481798.375 8  88427457.04346  21594843.047                    21594848.160
 114084977.021 8  88897467.82645  21709655.375                    21709663.953
 11  8 23  2  1  0.0000000  0  8G29G26G10G12G05G25G02G30
 119281794.680 7  92946890.918 7  22698568.938                    22698576.996
 124827209.888 6  97268036.96043  23753833.781                    23753842.938
 123649615.769 7  96350501.46644  23529725.773                    23529733.445
 112462984.277 7  87633547.687 7  21400993.992                    21401001.035
 107006822.847 8  83382025.823 8  20362698.844                    20362705.613
 113500810.477 8  88442239.957 7  21598487.289                    21598497.410
 113519236.507 8  88456629.63246  21601967.086                    21601972.703
 114093440.434 7  88904062.71345  21711265.992                    21711273.832
 11  8 23  2  1 30.0000000  0  8G29G26G10G12G05G25G02G30
 119199652.821 7  92882884.312 7  22682937.516                    22682945.949
 124732667.212 6  97194367.44943  23735842.414                    23735851.785
 123753444.891 7  96431407.28843  23549484.266                    23549492.160
 112522325.060 7  87679787.250 7  21412286.086                    21412293.641
 107030891.819 8  83400780.888 8  20367278.641                    20367285.832
 113498059.770 8  88440096.564 7  21597964.289                    21597974.254
 113556760.149 8  88485868.85146  21609107.961                    21609113.066
 114102491.798 7  88911115.73845  21712988.609                    21712996.586
 11  8 23  2  2  0.0000000  0  9G29G26G15G10G12G05G25G02G30
 119117576.317 7  92818928.647 7  22667318.773                    22667326.984
 124638176.107 6  97120738.08343  23717861.234                    23717870.598
 129381085.60915 100816503.08315  24620408.805                    24620418.719
 123857441.392 7  96512443.52444  23569273.602                    23569281.516
 112582109.192 8  87726372.278 7  21423662.273                    21423669.629
 107055483.266 8  83419943.052 8  20371958.430                    20371965.301
 113495886.493 8  88438403.116 7  21597550.570                    21597560.641
 113594368.826 8  88515174.32846  21616264.563                    21616269.852
 114112129.849 8  88918625.92945  21714822.789                    21714830.945
 11  8 23  2  2 30.0000000  0  9G29G26G15G10G12G05G25G02G30
 119035566.654 7  92755025.061 7  22651713.023                    22651720.914
 124543739.672 6  97047151.34544  23699891.070                    23699899.980
 129288219.243 5 100744139.887 5  24602736.969                    24602746.699
 123961602.190 7  96593607.77643  23589094.906                    23589103.117
 112642333.590 8  87773300.360 7  21435122.781                    21435130.059
 107080595.279 8  83439510.877 8  20376737.086                    20376744.043
 113494290.024 8  88437159.134 7  21597246.773                    21597256.992
 113632061.959 8  88544545.61246  21623436.898                    21623441.977
 114122353.340 7  88926592.31345  21716767.883                    21716776.348
 11  8 23  2  3  0.0000000  0  9G29G26G15G10G12G05G25G02G30
 118953625.847 7  92691175.117 7  22636120.242                    22636128.223
 124449361.767 6  96973610.18843  23681931.172                    23681940.938
 129195221.076 5 100671673.974 6  24585039.094                    24585050.406
 124065924.959 6  96674898.24444  23608946.555                    23608954.957
 112702996.409 8  87820570.083 7  21446666.734                    21446674.113
 107106226.718 8  83459483.441 8  20381614.500                    20381621.633
 113493270.294 8  88436364.555 7  21597052.508                    21597062.742
 113669839.475 8  88573982.65446  21630625.703                    21630631.113
 114133161.537 7  88935014.30145  21718824.664                    21718833.000
 11  8 23  2  3 30.0000000  0  9G29G26G15G10G12G05G25G02G30
 118871755.666 7  92627380.207 6  22620540.602                    22620548.898
 124355045.784 7  96900117.30743  23663983.586                    23663992.957
 129102094.220 6 100599107.752 6  24567317.563                    24567328.645
 124170407.303 6  96756313.02643  23628829.344                    23628837.492
 112764095.495 8  87868179.743 7  21458293.242                    21458301.316
 107132375.926 8  83479859.461 8  20386590.602                    20386597.379
 113492827.031 8  88436019.171 7  21596968.211                    21596978.113
 113707701.565 8  88603485.60246  21637831.000                    21637835.879
 114144553.420 8  88943891.10845  21720992.398                    21721000.613
 11  8 23  2  4  0.0000000  0  9G29G26G15G10G12G05G25G02G30
 118789957.921 7  92563641.741 7  22604975.625                    22604982.945
 124260795.041 7  96826675.24343  23646048.586                    23646056.875
 129008840.523 6 100526442.688 6  24549571.758                    24549583.574
 124275045.865 6  96837849.54843  23648740.859                    23648749.715
 112825627.268 7  87916126.559 7  21470002.578                    21470009.688
 107159041.021 8  83500637.468 8  20391664.578                    20391671.738
 113492959.604 8  88436122.485 7  21596993.469                    21597003.660
 113745647.718 8  88633054.04246  21645051.664                    21645056.871
 114156527.739 8  88953221.76745  21723271.156                    21723279.113
 11  8 23  2  4 30.0000000  0  9G29G26G15G10G12G05G25G02G30
 118708234.544 7  92499961.227 7  22589423.703                    22589431.852
 124166613.265 6  96753286.93743  23628125.484                    23628134.703
 128915463.090 6 100453681.219 6  24531803.383                    24531814.129
 124379838.540 6  96919506.12543  23668682.063                    23668691.117
 112887589.991 8  87964409.193 7  21481793.891                    21481801.219
 107186221.116 8  83521816.779 8  20396836.914                    20396844.145
 113493667.853 8  88436674.366 7  21597128.063                    21597138.316
 113783678.013 8  88662688.05446  21652288.711                    21652293.707
 114169083.612 8  88963005.57645  21725660.555                    21725668.480
 11  8 23  2  5  0.0000000  0  9G29G26G15G10G12G05G25G02G30
 118626587.505 7  92436340.190 7  22573886.711                    22573894.652
 124072503.639 6  96679954.83243  23610216.602                    23610226.406
 128821964.136 6 100380825.079 6  24514010.906                    24514020.941
 124484782.036 6  97001280.24443  23688653.031                    23688660.992
 112949981.196 8  88013025.700 7  21493666.531                    21493673.629
 107213914.131 8  83543395.760 8  20402107.008                    20402113.988
 113494951.234 8  88437674.405 7  21597372.523                    21597382.992
 113821792.426 8  88692387.61646  21659541.547                    21659546.984
 114182219.775 8  88973241.56246  21728160.117                    21728168.469
 11  8 23  2  5 30.0000000  0  9G29G26G15G10G12G05G25G02G30
 118545018.428 7  92372779.890 7  22558365.031                    22558373.027
 123978469.776 6  96606681.78343  23592322.672                    23592332.199
 128728346.126 6 100307876.156 6  24496195.703                    24496206.422
 124589873.976 6  97083170.03743  23708651.344                    23708659.172
 113012798.044 8  88061973.878 7  21505619.781                    21505627.453
 107242118.300 8  83565373.048 8  20407473.758                    20407480.809
 113496809.114 8  88439122.100 7  21597726.008                    21597736.344
 113859990.491 8  88722152.35946  21666810.523                    21666815.680
 114195935.071 8  88983928.79945  21730770.219                    21730778.258
 11  8 23  2  6  0.0000000  0  9G29G26G15G10G12G05G25G02G30
 118463529.188 7  92309281.828 7  22542858.344                    22542866.004
 123884515.061 6  96533470.38244  23574443.797                    23574453.086
 128634611.557 6 100234836.384 6  24478357.617                    24478368.512
 124695111.569 7  97165173.32743  23728677.766                    23728685.215
 113076038.204 8  88111251.907 7  21517654.188                    21517661.668
 107270831.840 7  83587747.248 8  20412937.727                    20412944.777
 113499241.002 8  88441017.075 7  21598188.945                    21598199.113
 113898271.927 8  88751982.05946  21674095.109                    21674100.160
 114210228.299 8  88995066.38645  21733490.023                    21733498.137
 11  8 23  2  6 30.0000000  0  9G29G26G15G10G12G05G25G02G30
 118382121.748 7  92245847.481 7  22527366.391                    22527374.586
 123790643.002 6  96460323.40244  23556581.172                    23556589.953
 128540762.743 6 100161707.583 6  24460499.344                    24460509.770
 124800492.261 7  97247288.13843  23748730.906                    23748738.602
 113139699.219 8  88160857.862 7  21529768.313                    21529775.805
 107300053.148 8  83610517.110 8  20418498.664                    20418505.621
 113502246.334 8  88443358.887 7  21598760.672                    21598770.598
 113936636.752 8  88781876.74346  21681395.508                    21681400.910
 114225098.205 8  89006653.32746  21736319.734                    21736327.723
 11  8 23  2  7  0.0000000  0  9G29G26G15G10G12G05G25G02G30
 118300798.050 7  92182478.401 7  22511891.164                    22511899.340
 123696857.327 6  96387243.74244  23538733.250                    23538742.816
 128446802.540 6 100088492.001 6  24442618.836                    24442629.523
 124906013.479 7  97329512.42343  23768810.289                    23768818.383
 113203778.786 8  88210789.980 7  21541962.281                    21541970.027
 107329780.976 8  83633681.665 8  20424155.273                    20424162.254
 113505824.826 8  88446147.323 7  21599441.586                    21599451.961
 113975084.916 8  88811836.37745  21688712.008                    21688717.285
 114240543.745 8  89018688.80845  21739258.719                    21739266.719
 11  8 23  2  7 30.0000000  0  9G29G26G15G10G12G05G25G02G30
 118219560.034 7  92119176.084 7  22496431.859                    22496440.031
 123603161.471 7  96314234.08244  23520903.977                    23520913.844
 128352733.754 6 100015191.815 6  24424719.078                    24424728.633
 125011672.370 7  97411844.01743  23788916.703                    23788924.750
 113268273.869 8  88261045.871 7  21554235.406                    21554242.762
 107360013.446 8  83657239.440 8  20429908.461                    20429915.590
 113509975.808 8  88449381.840 7  21600231.461                    21600241.855
 114013616.395 8  88841860.92145  21696044.344                    21696049.426
 114256563.647 8  89031171.83445  21742307.227                    21742315.836
 11  8 23  2  8  0.0000000  0  9G29G26G15G10G12G05G25G02G30
 118138409.300 7  92055941.794 7  22480989.281                    22480997.973
 123509558.597 7  96241296.86644  23503092.125                    23503101.215
 128258558.273 6  99941808.478 6  24406797.281                    24406807.371
 125117466.138 7  97494280.71543  23809049.070                    23809056.434
 113333181.683 8  88311623.365 7  21566587.141                    21566594.250
 107390748.247 8  83681188.651 8  20435756.867                    20435764.254
 113514698.257 8  88453061.671 7  21601129.797                    21601140.336
 114052230.768 8  88871950.06446  21703392.258                    21703397.457
 114273156.244 8  89044101.12345  21745464.945                    21745472.547
 11  8 23  2  8 30.0000000  0  9G29G26G15G10G12G05G25G02G30
 118057347.707 7  91992776.958 7  22465563.898                    22465571.895
 123416052.294 7  96168434.87844  23485297.906                    23485307.492
 128164278.691 6  99868344.061 6  24388855.820                    24388866.039
 125223392.038 7  97576820.34943  23829206.055                    23829213.035
 113398499.866 8  88362520.638 7  21579016.773                    21579024.117
 107421983.521 8  83705527.849 8  20441700.891                    20441708.188
 113519991.635 8  88457186.383 7  21602137.156                    21602147.516
 114090927.795 8  88902103.59846  21710756.117                    21710761.469
 114290320.314 8  89057475.71345  21748731.211                    21748739.004
 11  8 23  2  9  0.0000000  0  9G29G26G15G10G12G05G25G02G30
 117976377.263 7  91929683.154 7  22450155.852                    22450163.680
 123322646.207 7  96095650.98444  23467523.375                    23467532.566
 128069898.040 6  99794800.902 6  24370896.133                    24370905.422
 125329447.752 7  97659461.18743  23849387.391                    23849395.121
 113464225.725 7  88413735.576 7  21591523.906                    21591531.156
 107453717.991 8  83730256.022 8  20447739.648                    20447747.203
 113525855.489 8  88461755.618 7  21603253.070                    21603263.574
 114129707.475 7  88932321.53645  21718135.406                    21718140.992
 114308054.635 8  89071294.65845  21752105.625                    21752113.801
 11  8 23  2  9 30.0000000  0  9G29G26G15G10G12G05G25G02G30
 117895499.943 7  91866661.926 7  22434765.328                    22434772.945
 123229343.755 6  96022947.86544  23449767.938                    23449777.746
 127975418.641 6  99721180.741 5  24352916.672                    24352926.539
 125435630.340 6  97742200.85243  23869593.266                    23869601.273
 113530356.528 7  88465266.047 7  21604108.242                    21604115.605
 107485949.418 8  83755371.439 8  20453873.289                    20453880.133
 113532288.859 8  88466768.637 7  21604477.789                    21604487.477
 114168569.634 7  88962603.74745  21725530.734                    21725536.113
 114326357.683 8  89085556.75045  21755588.828                    21755597.145
 11  8 23  2 10  0.0000000  0  9G29G26G15G10G12G05G25G02G30
 117814717.963 7  91803714.974 7  22419392.719                    22419400.809
 123136148.753 6  95950328.48044  23432034.094                    23432042.688
 127880843.202 6  99647485.781 6  24334919.461                    24334930.434
 125541937.780 6  97825037.81543  23889823.297                    23889831.051
 113596890.495 7  88517110.684 7  21616769.102                    21616776.582
 107518676.894 8  83780873.388 8  20460100.828                    20460107.836
 113539291.480 8  88472225.236 7  21605810.188                    21605820.160
 114207514.815 7  88992950.65145  21732941.719                    21732947.051
 114345228.458 8  89100261.23945  21759179.789                    21759187.832
 11  8 23  2 10 30.0000000  0  9G29G26G15G10G12G05G25G02G30
 117734033.253 7  91740843.834 7  22404039.086                    22404046.965
 123043064.761 7  95877795.58444  23414320.398                    23414329.520
 127786174.468 6  99573718.126 6  24316904.648                    24316914.766
 125648367.148 6  97907969.80143  23910076.133                    23910083.512
 113663824.453 7  88569267.005 7  21629506.492                    21629513.578
 107551898.432 8  83806760.321 8  20466422.773                    20466430.242
 113546862.479 8  88478124.729 7  21607250.586                    21607260.898
 114246542.648 7  89023361.95145  21740368.648                    21740374.055
 114364665.513 8  89115406.99945  21762878.641                    21762886.773
 11  8 23  2 11  0.0000000  0  9G29G26G15G10G12G05G25G02G30
 117653447.267 7  91678049.605 7  22388704.102                    22388711.973
 122950095.116 7  95805351.79044  23396629.453                    23396637.945
 127691414.676 6  99499879.479 6  24298872.906                    24298882.227
 125754915.618 6  97990994.56543  23930351.031                    23930359.148
 113731155.219 7  88621732.518 7  21642318.719                    21642326.191
 107585611.656 8  83833030.387 8  20472838.172                    20472845.141
 113555000.835 8  88484466.322 7  21608799.641                    21608809.977
 114285652.769 7  89053837.38545  21747811.133                    21747816.223
 114384667.096 8  89130992.64446  21766684.375                    21766692.711
 11  8 23  2 11 30.0000000  0  9G29G26G15G10G12G05G25G02G30
 117572962.116 7  91615333.982 7  22373388.039                    22373396.176
 122857243.241 7  95732999.75244  23378959.891                    23378968.691
 127596566.465 6  99425971.961 6  24280823.805                    24280833.262
 125861580.122 6  98074109.71843  23950648.352                    23950657.055
 113798880.368 7  88674505.344 7  21655206.367                    21655213.578
 107619814.343 8  83859681.844 8  20479346.656                    20479354.027
 113563705.639 8  88491249.302 7  21610455.688                    21610465.594
 114324844.794 8  89084376.61545  21755268.867                    21755274.309
 114405231.667 8  89147016.97845  21770597.688                    21770606.246
 11  8 23  2 12  0.0000000  0  9G29G26G15G10G12G05G25G02G30
 117492579.877 7  91552698.532 7  22358092.023                    22358100.035
 122764512.964 7  95660742.47644  23361313.875                    23361322.840
 127501632.679 6  99351997.744 6  24262757.820                    24262767.656
 125968358.918 6  98157313.94843  23970968.820                    23970976.801
 113866997.897 7  88727583.918 7  21668168.797                    21668176.547
 107654505.413 8  83886713.869 8  20485948.297                    20485955.129
 113572976.378 8  88498473.280 7  21612220.039                    21612230.047
 114364119.293 8  89114980.12045  21762742.359                    21762748.008
 114426358.001 8  89163479.07445  21774617.992                    21774626.707
 11  8 23  2 12 30.0000000  0  9G29G26G15G10G12G05G25G02G30
 117412302.547 7  91490144.852 7  22342815.633                    22342823.949
 122671907.812 7  95588582.67644  23343692.305                    23343701.020
 127406616.002 7  99277958.942 6  24244676.805                    24244686.641
 126075249.321 7  98240605.14543  23991309.141                    23991316.621
 113935504.522 7  88780965.678 7  21681205.805                    21681212.910
 107689682.922 8  83914124.934 8  20492642.430                    20492649.137
 113582812.068 8  88506137.476 7  21614091.641                    21614101.699
 114403475.867 7  89145647.57445  21770232.234                    21770237.078
 114448044.483 8  89180377.62845  21778745.203                    21778752.902
 11  8 23  2 13  0.0000000  0  9G29G26G15G10G12G05G25G02G30
 117332131.964 7  91427674.338 7  22327559.523                    22327567.664
 122579430.841 7  95516522.77444  23326094.336                    23326103.371
 127311518.769 7  99203857.366 6  24226580.758                    24226590.238
 126182248.205 7  98323980.88343  24011670.164                    24011678.227
 114004397.258 8  88834648.316 7  21694315.086                    21694322.898
 107725344.232 8  83941912.986 8  20499428.367                    20499435.066
 113593211.589 8  88514241.023 7  21616070.852                    21616080.719
 114442914.440 8  89176378.92045  21777736.398                    21777742.160
 114470289.319 8  89197711.28245  21782977.969                    21782985.758
 11  8 23  2 13 30.0000000  0  9G29G26G15G10G12G05G25G02G30
 117252070.253 7  91365288.671 7  22312324.063                    22312332.469
 122487086.433 7  95444566.16444  23308520.961                    23308529.926
 127216343.907 6  99129695.277 6  24208468.766                    24208479.055
 126289353.614 7  98407439.63843  24032051.922                    24032059.633
 114073673.815 7  88888630.035 7  21707498.078                    21707505.871
 107761488.315 7  83970077.222 8  20506306.336                    20506313.699
 113604174.467 8  88522783.552 7  21618156.969                    21618167.129
 114482435.263 7  89207174.36645  21785257.039                    21785262.746
 114493091.371 8  89215479.13145  21787316.898                    21787325.105
 11  8 23  2 14  0.0000000  0  9G29G26G15G10G12G05G25G02G30
 117172119.568 7  91302989.509 7  22297110.180                    22297118.242
 122394877.813 7  95372715.35444  23290974.508                    23290983.367
 127121093.968 6  99055474.677 6  24190343.492                    24190353.859
 126396562.715 7  98490979.20143  24052452.938                    24052461.313
 114143331.457 7  88942908.692 7  21720753.297                    21720761.086
 107798113.032 7  83998615.978 8  20513275.922                    20513282.629
 113615699.751 8  88531764.320 7  21620350.242                    21620359.902
 114522038.416 7  89238033.95645  21792793.500                    21792799.230
 114516448.968 8  89233679.86145  21791762.078                    21791769.816
 11  8 23  2 14 30.0000000  0  9G29G26G15G10G12G05G25G02G30
 117092281.658 7  91240778.225 7  22281917.305                    22281925.203
 122302808.315 7  95300972.94944  23273454.625                    23273463.078
 127025771.463 6  98981197.517 6  24172203.781                    24172213.277
 126503872.541 7  98574597.23843  24072873.422                    24072881.824
 114213367.274 7  88997482.032 7  21734081.047                    21734088.730
 107835215.714 8  84027527.172 8  20520336.188                    20520343.020
 113627786.065 8  88541182.255 7  21622650.016                    21622660.020
 114561723.193 7  89268957.14545  21800345.492                    21800350.492
 114540360.229 8  89252312.03145  21796312.188                    21796320.273
 11  8 23  2 15  0.0000000  0  9G29G26G15G10G12G05G25G02G30
 117012558.725 7  91178656.531 7  22266746.727                    22266754.598
 122210882.031 7  95229342.13944  23255961.891                    23255970.031
 126930379.214 6  98906866.010 6  24154051.984                    24154060.453
 126611280.976 7  98658292.11343  24093312.719                    24093320.578
 114283778.815 7  89052348.155 7  21747479.727                    21747487.383
 107872795.241 8  84056809.926 8  20527487.172                    20527494.340
 113640432.762 8  88551036.857 7  21625056.445                    21625066.824
 114601490.131 7  89299944.34845  21807912.977                    21807918.027
 114564823.724 8  89271374.52145  21800967.156                    21800975.047
 11  8 23  2 15 30.0000000  0  9G29G26G15G10G12G05G25G02G30
 116932952.437 7  91116625.739 7  22251597.859                    22251606.246
 122119102.025 7  95157825.34644  23238495.797                    23238504.598
 126834919.713 7  98832482.142 6  24135886.250                    24135895.102
 126718785.224 7  98742061.62443  24113770.328                    24113778.059
 114354562.652 7  89107504.381 7  21760949.570                    21760956.996
 107910848.933 8  84086462.168 8  20534728.773                    20534735.684
 113653638.524 8  88561327.076 7  21627569.453                    21627579.391
 114641338.661 7  89330995.14845  21815495.797                    21815501.180
 114589837.549 8  89290865.83245  21805727.375                    21805735.516
 11  8 23  2 16  0.0000000  0  9G29G26G15G10G12G05G25G02G30
 116853465.174 7  91054687.700 7  22236472.000                    22236480.246
 122027472.159 6  95086425.51444  23221059.008                    23221067.871
 126739396.406 6  98758048.505 6  24117708.117                    24117717.047
 126826383.045 7  98825904.06343  24134245.125                    24134253.563
 114425716.461 7  89162948.877 7  21774489.695                    21774497.027
 107949375.574 8  84116482.938 8  20542060.148                    20542067.219
 113667402.654 8  88572052.393 7  21630188.750                    21630198.703
 114681269.339 8  89362109.94045  21823094.727                    21823100.027
 114615400.271 8  89310784.85745  21810591.609                    21810599.461
 11  8 23  2 16 30.0000000  0  9G29G26G15G10G12G05G25G02G30
 116774098.866 7  90992843.900 7  22221368.820                    22221377.285
 121935996.182 7  95015145.61044  23203651.875                    23203660.398
 126643811.225 6  98683566.656 6  24099518.906                    24099528.441
 126934071.913 6  98909817.46343  24154737.258                    24154745.926
 114497237.680 7  89218679.675 7  21788099.805                    21788107.379
 107988372.762 8  84146870.373 8  20549481.125                    20549487.863
 113681724.042 8  88583211.946 7  21632913.656                    21632923.652
 114721282.201 8  89393288.77745  21830708.750                    21830714.102
 114641510.147 7  89331130.23245  21815559.977                    21815568.371
 11  8 23  2 17  0.0000000  0  9G29G26G15G10G12G05G25G02G30
 116694855.434 7  90931095.837 7  22206289.289                    22206297.316
 121844677.458 6  94943988.22644  23186274.875                    23186283.508
 126548166.987 6  98609038.822 6  24081318.289                    24081327.844
 127041849.397 6  98993799.93143  24175247.156                    24175255.563
 114569123.195 7  89274694.342 7  21801779.148                    21801786.652
 108027838.472 8  84177622.888 8  20556990.992                    20556997.996
 113696601.432 8  88594804.732 7  21635745.016                    21635755.434
 114761376.630 8  89424531.17845  21838338.531                    21838343.730
 114668165.261 8  89351900.46745  21820632.508                    21820640.574
 11  8 23  2 17 30.0000000  0  9G29G26G15G10G12G05G25G02G30
 116615737.201 7  90869445.326 7  22191233.508                    22191241.934
 121753519.717 6  94872956.31044  23168927.758                    23168936.699
 126452466.758 6  98534467.334 6  24063107.211                    24063116.320
 127149712.907 6  99077849.41142  24195772.852                    24195780.527
 114641370.302 8  89330990.771 7  21815527.305                    21815535.168
 108067771.014 8  84208739.171 8  20564589.773                    20564597.016
 113712033.995 8  88606830.123 7  21638681.883                    21638691.941
 114801553.329 8  89455837.69445  21845983.578                    21845988.793
 114695364.177 7  89373094.44045  21825808.375                    21825816.637
 11  8 23  2 18  0.0000000  0  9G29G26G15G10G12G05G25G02G30
 116536746.060 7  90807893.847 7  22176202.016                    22176210.066
 121662526.623 7  94802052.69244  23151611.992                    23151621.176
 126356713.055 6  98459854.173 6  24044885.844                    24044894.793
 127257659.960 6  99161964.07542  24216314.125                    24216323.145
 114713976.421 7  89387566.952 7  21829343.906                    21829351.375
 108108167.954 8  84240217.322 8  20572277.039                    20572283.758
 113728020.305 8  88619287.003 7  21641723.258                    21641733.559
 114841812.237 8  89487208.27445  21853644.953                    21853650.016
 114723104.775 8  89394710.50145  21831087.102                    21831095.473
 11  8 23  2 18 30.0000000  0  9G29G26G15G10G12G05G25G02G30
 116457884.105 7  90746443.028 7  22161195.141                    22161202.676
 121571701.617 7  94731280.03144  23134328.664                    23134337.316
 126260908.224 6  98385201.152 6  24026654.617                    24026664.023
 127365687.791 6  99246141.52442  24236871.148                    24236879.422
 114786938.063 7  89444420.152 7  21843228.242                    21843235.367
 108149027.118 8  84272055.643 8  20580052.789                    20580059.352
 113744559.227 8  88632174.494 7  21644870.875                    21644880.957
 114882152.870 7  89518642.53345  21861321.500                    21861326.605
 114751385.331 8  89416747.30845  21836468.781                    21836476.898
 11  8 23  2 19  0.0000000  0  9G29G26G15G10G12G05G25G02G30
 116379153.456 7  90685094.519 7  22146212.930                    22146220.547
 121481048.604 7  94660641.39544  23117078.156                    23117086.707
 126165055.461 7  98310510.842 6  24008415.203                    24008423.773
 127473794.146 6  99330380.22942  24257442.750                    24257450.996
 114860253.064 7  89501548.698 7  21857179.242                    21857186.898
 108190346.782 8  84304252.806 8  20587915.180                    20587922.273
 113761649.657 8  88645491.712 7  21648122.922                    21648133.141
 114922575.423 7  89550140.62345  21869013.617                    21869018.762
 114780204.102 8  89439203.50645  21841952.852                    21841961.059
 11  8 23  2 19 30.0000000  0  9G29G26G15G10G12G05G25G02G30
 116300556.012 7  90623849.794 7  22131256.891                    22131264.492
 121390571.084 7  94590139.48544  23099860.398                    23099869.953
 126069157.694 7  98235785.409 6  23990165.906                    23990175.211
 127581976.215 6  99414677.95142  24278029.688                    24278038.285
 114933918.291 7  89558950.154 7  21871197.211                    21871204.699
 108232124.710 8  84336807.046 8  20595865.320                    20595872.039
 113779290.430 8  88659237.765 7  21651480.141                    21651490.328
 114963080.124 8  89581702.73645  21876721.125                    21876726.594
 114809559.176 8  89462077.59545  21847539.188                    21847546.930
 11  8 23  2 20  0.0000000  0  9G29G26G15G10G12G05G25G02G30
 116222094.196 7  90562710.760 7  22116325.375                    22116332.738
 121300272.591 7  94519777.07244  23082677.648                    23082686.387
 125973217.373 7  98161026.840 6  23971908.734                    23971918.191
 127690231.839 6  99499032.98442  24298630.313                    24298638.023
 115007931.055 7  89616622.418 7  21885281.258                    21885289.051
 108274358.874 8  84369716.800 8  20603902.375                    20603909.156
 113797480.228 8  88673411.640 7  21654941.414                    21654951.805
 115003666.749 7  89613328.67545  21884444.719                    21884450.219
 114839448.614 8  89485368.06845  21853226.844                    21853234.797
 11  8 23  2 20 30.0000000  0  9G29G26G15G10G12G05G25G02G30
 116143769.908 7  90501678.876 7  22101420.953                    22101428.461
 121210156.981 7  94449557.18944  23065528.969                    23065537.563
 125877237.304 7  98086237.284 6  23953644.047                    23953654.035
 127798558.482 6  99583443.33342  24319244.344                    24319252.012
 115082288.186 7  89674563.017 7  21899431.266                    21899438.691
 108317047.128 8  84402980.392 8  20612025.539                    20612032.391
 113816217.871 8  88688012.395 7  21658507.477                    21658517.227
 115044335.686 7  89645018.78345  21892183.594                    21892188.672
 114869870.639 8  89509073.55745  21859016.031                    21859023.598
 11  8 23  2 21  0.0000000  0  9G29G26G15G10G12G05G25G02G30
 116065585.225 7  90440755.777 7  22086543.063                    22086550.453
 121120227.621 7  94379482.43044  23048415.742                    23048424.563
 125781220.504 7  98011419.159 6  23935372.758                    23935381.664
 127906953.590 6  99667907.04143  24339870.734                    24339878.957
 115156987.367 8  89732770.158 7  21913646.148                    21913653.617
 108360187.310 7  84436596.137 8  20620234.953                    20620241.805
 113835502.040 8  88703039.017 7  21662177.086                    21662187.125
 115085086.789 7  89676772.91545  21899938.211                    21899943.609
 114900823.298 7  89533192.50545  21864905.883                    21864913.555
 11  8 23  2 21 30.0000000  0  9G29G26G15G10G12G05G25G02G30
 115987542.617 7  90379943.383 7  22071692.141                    22071699.410
 121030488.477 7  94309555.87044  23031339.242                    23031347.980
 125685169.649 7  97936574.451 6  23917094.508                    23917103.641
 128015415.040 6  99752422.47843  24360510.391                    24360518.008
 115232025.349 8  89791241.302 7  21927925.266                    21927932.781
 108403777.751 8  84470562.726 8  20628529.789                    20628536.582
 113855331.600 8  88718490.613 7  21665950.539                    21665960.656
 115125920.181 7  89708591.16445  21907708.781                    21907714.074
 114932304.778 7  89557723.53745  21870896.469                    21870904.504
 11  8 23  2 22  0.0000000  0  9G29G26G15G10G12G05G25G02G30
 115909643.877 7  90319243.085 7  22056868.352                    22056875.930
 120940943.138 7  94239780.33244  23014298.906                    23014307.898
 125589087.437 7  97861705.302 6  23898811.164                    23898819.652
 128123940.282 6  99836987.59343  24381162.078                    24381169.945
 115307399.303 7  89849974.235 7  21942268.547                    21942275.941
 108447816.225 8  84504878.439 8  20636909.883                    20636916.559
 113875705.234 8  88734366.174 7  21669827.359                    21669837.516
 115166836.208 8  89740473.80445  21915494.797                    21915499.973
 114964313.193 7  89582665.14545  21876987.383                    21876995.754
 11  8 23  2 22 30.0000000  0  9G29G26G15G10G12G05G25G02G30
 115831891.095 7  90258656.530 7  22042072.320                    22042080.363
 120851595.046 7  94170158.48744  22997296.805                    22997305.480
 125492976.232 6  97786813.590 6  23880521.570                    23880530.656
 128232527.049 6  99921600.65043  24401825.164                    24401833.457
 115383106.672 8  89908966.961 7  21956675.078                    21956682.926
 108492300.054 8  84539541.174 8  20645375.133                    20645382.199
 113896621.288 8  88750664.383 7  21673807.586                    21673817.520
 115207834.440 8  89772420.48045  21923296.563                    21923301.617
 114996846.209 7  89608015.55845  21883178.313                    21883186.266
 11  8 23  2 23  0.0000000  0  9G29G26G15G10G12G05G25G02G30
 115754286.155 7  90198185.167 7  22027304.625                    22027312.258
 120762447.654 7  94100693.02344  22980332.813                    22980341.129
 125396839.179 6  97711901.705 6  23862226.938                    23862235.570
 128341172.446 6 100006259.37943  24422500.117                    24422508.750
 115459143.468 8  89968216.384 7  21971144.602                    21971152.129
 108537226.817 8  84574549.046 8  20653924.016                    20653931.246
 113918078.199 8  88767384.050 7  21677890.500                    21677900.711
 115248915.095 7  89804431.38945  21931113.711                    21931118.844
 115029901.693 7  89633773.06745  21889468.859                    21889476.414
 11  8 23  2 23 30.0000000  0  9G29G26G15G10G12G05G25G02G30
 115676831.468 7  90137830.899 7  22012565.695                    22012572.781
 120673504.771 7  94031386.87844  22963407.641                    22963415.129
 125300679.103 7  97636971.914 6  23843928.672                    23843937.004
 128449874.199 6 100090961.96643  24443185.477                    24443193.797
 115535507.238 8  90027720.595 7  21985675.695                    21985683.797
 108582594.496 8  84609900.507 8  20662557.531                    20662564.164
 113940074.771 8  88784524.230 7  21682076.680                    21682086.539
 115290077.668 7  89836506.12045  21938947.070                    21938952.117
 115063477.735 8  89659936.23045  21895857.813                    21895865.652
 11  8 23  2 24  0.0000000  0  9G29G26G15G10G12G05G25G02G30
 115599529.568 7  90077595.692 7  21997855.508                    21997862.969
 120584770.337 7  93962243.20244  22946521.734                    22946530.316
 125204499.071 6  97562026.547 6  23825625.586                    23825635.137
 128558630.079 6 100175706.76043  24463880.820                    24463889.117
 115612195.513 8  90087477.670 7  22000269.758                    22000276.988
 108628401.655 8  84645594.410 7  20671274.461                    20671281.258
 113962609.849 8  88802084.023 7  21686365.047                    21686374.746
 115331323.348 8  89868645.61045  21946795.836                    21946800.980
 115097572.553 8  89686503.61345  21902345.828                    21902354.000
 11  8 23  2 24 30.0000000  0  9G29G26G15G10G12G05G25G02G30
 115522382.077 7  90017480.797 7  21983174.766                    21983182.109
 120496247.478 7  93893264.39644  22929676.492                    22929685.012
 125108301.574 7  97487067.567 6  23807320.023                    23807328.863
 128667437.696 6 100260491.97043  24484586.758                    24484594.398
 115689204.786 8  90147484.880 7  22014923.891                    22014931.406
 108674645.186 8  84681628.342 8  20680074.086                    20680081.102
 113985681.470 8  88820061.896 7  21690755.195                    21690765.184
 115372651.396 7  89900849.29045  21954660.109                    21954665.359
 115132183.638 8  89713473.28545  21908932.578                    21908940.316
 11  8 23  2 25  0.0000000  0  9G29G26G15G10G12G05G25G02G30
 115445391.732 8  89957488.371 7  21968524.039                    21968531.246
 120407940.772 7  93824454.02644  22912871.805                    22912880.434
 125012090.093 7  97412097.696 6  23789011.813                    23789020.777
 128776294.526 6 100345315.45743  24505301.094                    24505309.094
 115766533.005 8  90207740.627 7  22029638.641                    22029646.320
 108721323.885 8  84718001.364 8  20688956.586                    20688963.477
 114009288.897 8  88838457.288 7  21695247.344                    21695257.594
 115414062.694 8  89933117.83745  21962540.211                    21962545.656
 115167309.578 8  89740844.14345  21915616.586                    21915624.277
 11  8 23  2 25 30.0000000  0  9G29G26G15G10G12G05G25G02G30
 115368560.390 7  89897619.848 7  21953903.461                    21953910.883
 120319853.267 7  93755814.44444  22896109.195                    22896118.051
 124915866.776 7  97337118.628 6  23770700.914                    23770709.637
 128885198.400 6 100430175.63343  24526024.984                    24526033.367
 115844176.865 8  90268242.335 7  22044413.984                    22044421.645
 108768435.085 8  84754711.400 8  20697921.711                    20697928.445
 114033430.305 8  88857268.782 7  21699840.992                    21699851.086
 115455556.987 7  89965451.06045  21970436.109                    21970441.633
 115202947.961 8  89768614.31345  21922398.359                    21922406.285
 11  8 23  2 26  0.0000000  0  9G29G26G15G10G12G05G25G02G30
 115291890.052 7  89837876.776 7  21939313.180                    21939321.105
 120231988.494 7  93687348.43444  22879389.539                    22879398.113
 124819634.649 6  97262132.672 6  23752388.422                    23752397.215
 128994147.243 5 100515070.87542  24546756.461                    24546764.832
 115922133.159 8  90328987.478 7  22059248.914                    22059256.523
 108815976.462 8  84791756.638 8  20706968.648                    20706975.293
 114058104.001 8  88876495.040 7  21704536.695                    21704546.520
 115497134.169 8  89997848.84745  21978347.930                    21978353.063
 115239096.478 7  89796781.98145  21929276.820                    21929285.348
 11  8 23  2 26 30.0000000  0 10G29G26G15G10G12G05G25G02G30G21
 115215383.691 8  89778261.503 7  21924754.742                    21924762.387
 120144350.955 7  93619059.48144  22862712.109                    22862720.719
 124723397.258 6  97187142.631 6  23734074.406                    23734083.766
 129103138.94715 100599999.44852  24567496.953                    24567506.793
 116000399.766 8  90389974.433 7  22074142.094                    22074149.988
 108863946.480 8  84829135.876 8  20716097.000                    20716103.793
 114083309.159 8  88896135.422 7  21709332.945                    21709342.738
 115538795.246 7  90030312.02745  21986276.570                    21986282.137
 115275753.716 8  89825346.05945  21936252.563                    21936260.645
 132306857.48916 103096298.61052  25177160.141                    25177169.766
 11  8 23  2 27  0.0000000  0 10G29G26G15G10G12G05G25G02G30G21
 115139042.809 8  89718775.172 7  21910227.617                    21910234.809
 120056943.833 7  93550950.07544  22846079.094                    22846087.648
 124627156.840 6  97112150.204 6  23715760.648                    23715769.426
 129212170.53915 100684959.08552  24588245.633                    24588255.098
 116078972.911 8  90451200.234 7  22089094.336                    22089101.781
 108912342.201 8  84866846.838 8  20725306.336                    20725313.109
 114109043.615 8  88916188.244 7  21714230.086                    21714240.266
 115580539.676 8  90062840.13445  21994219.906                    21994224.996
 115312916.850 8  89854304.34045  21943324.375                    21943332.813
 132250978.813 6 103052756.87242  25166527.180                    25166536.996
 11  8 23  2 27 30.0000000  0  9G29G26G15G12G05G25G02G30G21
 115062869.732 8  89659419.609 7  21895732.445                    21895740.020
 119969770.934 7  93483023.18844  22829490.953                    22829499.402
 124530916.309 6  97037157.686 6  23697446.680                    23697455.688
 116157850.066 8  90512662.940 7  22104103.633                    22104111.980
 108961161.737 8  84904888.036 7  20734596.938                    20734603.121
 114135306.006 8  88936652.457 7  21719227.469                    21719237.793
 115622367.830 7  90095433.49545  22002179.328                    22002184.516
 115350583.921 8  89883655.30245  21950492.602                    21950500.559
 132195107.840 6 103009221.16042  25155894.781                    25155905.492
 11  8 23  2 28  0.0000000  0  9G29G26G15G12G05G25G02G30G21
 114986866.643 8  89600196.493 7  21881269.164                    21881276.961
 119882835.302 7  93415281.19744  22812947.273                    22812955.805
 124434678.337 7  96962167.153 6  23679133.156                    23679141.828
 116237027.822 8  90574359.855 7  22119171.188                    22119178.898
 109010402.207 8  84943257.238 8  20743966.594                    20743973.551
 114162094.342 8  88957526.486 7  21724325.602                    21724335.410
 115664279.324 7  90128091.79645  22010155.313                    22010160.480
 115388752.327 8  89913396.92445  21957755.320                    21957763.574
 132139243.635 6 102965690.69042  25145264.125                    25145275.609
 11  8 23  2 28 30.0000000  0  9G29G26G15G12G05G25G02G30G21
 114911035.834 8  89541107.638 7  21866838.656                    21866846.613
 119796141.295 7  93347727.47744  22796450.148                    22796458.219
 124338446.131 7  96887181.120 6  23660820.680                    23660829.438
 116316503.951 7  90636289.281 7  22134295.055                    22134302.445
 109060061.984 8  84981953.168 7  20753416.648                    20753423.047
 114189407.424 8  88978809.405 7  21729523.000                    21729532.645
 115706274.931 7  90160815.63145  22018146.594                    22018151.563
 115427420.325 7  89943527.82745  21965114.094                    21965122.188
 132083385.949 6 102922165.38842  25134634.141                    25134644.930
 11  8 23  2 29  0.0000000  0  9G29G26G15G12G05G25G02G30G21
 114835379.216 7  89482154.505 7  21852441.867                    21852449.270
 119709692.044 7  93280364.46144  22779998.961                    22780007.586
 124242222.356 7  96812201.664 6  23642509.875                    23642518.711
 116396274.459 7  90698448.095 7  22149474.750                    22149483.156
 109110138.471 8  85020973.814 8  20762945.742                    20762952.414
 114217243.119 8  89000499.572 7  21734819.586                    21734829.672
 115748354.213 7  90193604.68445  22026154.016                    22026159.367
 115466585.158 8  89974045.88445  21972566.648                    21972574.809
 132027533.960 6 102878644.47343  25124006.016                    25124016.281
 11  8 23  2 29 30.0000000  0  9G29G26G15G12G05G25G02G30G21
 114759899.036 8  89423338.853 7  21838078.305                    21838086.105
 119623491.192 7  93213195.01844  22763595.680                    22763604.336
 124146009.695 6  96737230.839 6  23624201.008                    23624210.035
 116476336.392 7  90760833.999 7  22164709.945                    22164718.039
 109160628.918 8  85060317.028 8  20772553.875                    20772560.398
 114245599.678 8  89022595.596 7  21740215.898                    21740225.684
 115790517.190 7  90226458.95145  22034177.133                    22034182.684
 115506244.434 8  90004949.22145  21980113.719                    21980121.414
 131971686.976 6 102835127.48043  25113379.039                    25113388.969
 11  8 23  2 30  0.0000000  0  9G29G26G15G12G05G25G02G30G21
 114684598.000 8  89364662.797 7  21823749.242                    21823756.762
 119537542.746 7  93146222.25344  22747240.328                    22747248.203
 124049811.169 6  96662271.028 6  23605895.047                    23605903.910
 116556687.353 7  90823445.118 7  22180000.078                    22180008.090
 109211531.640 8  85099981.480 8  20782240.523                    20782247.328
 114274475.656 8  89045096.358 7  21745710.648                    21745720.840
 115832764.331 7  90259378.80645  22042216.492                    22042222.000
 115546396.242 8  90036236.33745  21987754.188                    21987762.477
 131915844.636 6 102791614.06043  25102752.414                    25102762.484
 11  8 23  2 30 30.0000000  0  9G29G26G15G12G05G25G02G30G21
 114609477.148 8  89306127.147 7  21809454.336                    21809461.949
 119451849.838 7  93079448.60344  22730934.000                    22730941.961
 123953629.713 7  96587324.531 6  23587592.117                    23587600.750
 116637323.673 7  90886278.594 7  22195344.711                    22195352.863
 109262843.657 8  85139964.880 8  20792004.734                    20792011.367
 114303869.134 8  89068000.385 7  21751304.203                    21751314.324
 115875095.758 7  90292364.33245  22050271.867                    22050277.313
 115587037.990 8  90067905.24245  21995488.016                    21995495.953
 131860006.111 6 102748103.67343  25092126.148                    25092135.660
 11  8 23  2 31  0.0000000  0  9G29G26G15G12G05G25G02G30G21
 114534539.931 8  89247734.556 7  21795193.773                    21795201.387
 119366416.875 7  93012877.52244  22714676.344                    22714684.086
 123857468.556 7  96512393.841 6  23569293.039                    23569301.949
 116718243.156 7  90949332.727 7  22210743.555                    22210751.051
 109314563.599 8  85180266.133 8  20801846.633                    20801853.297
 114333778.797 8  89091306.630 7  21756995.664                    21757005.563
 115917512.054 7  90325415.97645  22058343.742                    22058348.844
 115628167.774 8  90099954.43545  22003314.852                    22003322.762
 131804170.868 6 102704595.83043  25081501.547                    25081511.301
 11  8 23  2 31 30.0000000  0  9G29G26G15G12G05G25G02G30G21
 114459788.214 8  89189486.534 7  21780969.281                    21780976.684
 119281247.290 7  92946511.65844  22698468.633                    22698477.227
 123761330.560 6  96437481.209 6  23550998.953                    23551007.148
 116799442.346 8  91012604.794 7  22226195.297                    22226202.938
 109366688.780 8  85220883.163 7  20811765.805                    20811772.188
 114364202.610 8  89115013.482 7  21762785.445                    21762795.281
 115960013.111 7  90358533.67545  22066430.836                    22066436.301
 115669782.955 8  90132381.85145  22011234.242                    22011242.168
 131748338.348 6 102661090.13543  25070876.695                    25070886.465
 11  8 23  2 32  0.0000000  0  9G29G26G15G12G05G25G02G30G21
 114385224.280 8  89131384.821 7  21766779.953                    21766787.633
 119196344.718 7  92880353.86744  22682312.625                    22682321.125
 123665218.377 6  96362588.695 6  23532709.195                    23532718.156
 116880918.324 7  91076092.551 7  22241699.656                    22241707.426
 109419216.727 8  85261814.043 8  20821761.477                    20821768.066
 114395138.757 8  89139119.586 7  21768672.172                    21768682.539
 116002599.201 7  90391717.65145  22074535.070                    22074540.059
 115711881.229 8  90165185.72045  22019245.047                    22019252.844
 131692507.926 6 102617586.04443  25060252.664                    25060262.313
 11  8 23  2 32 30.0000000  0  9G29G26G15G12G05G25G02G30G21
 114310850.453 8  89073431.239 7  21752626.828                    21752634.703
 119111712.813 7  92814406.95444  22666207.203                    22666215.980
 123569135.087 6  96287718.687 6  23514424.797                    23514433.695
 116962668.222 7  91139793.733 7  22257255.930                    22257263.699
 109472145.250 8  85303057.056 7  20831833.273                    20831840.219
 114426585.484 8  89163623.534 7  21774656.141                    21774666.090
 116045270.250 7  90424967.83945  22082655.086                    22082660.313
 115754460.186 8  90198364.13945  22027347.352                    22027355.473
 131636679.218 6 102574083.27243  25049628.672                    25049637.805
 11  8 23  2 33  0.0000000  0  9G29G26G15G12G05G25G02G30G21
 114236668.801 8  89015627.395 7  21738510.703                    21738517.891
 119027355.268 7  92748673.84544  22650154.844                    22650163.527
 123473083.612 7  96212873.477 6  23496147.008                    23496155.574
 117044688.763 7  91203705.819 7  22272863.867                    22272871.836
 109525472.165 8  85344610.493 8  20841981.211                    20841987.871
 114458541.129 8  89188524.041 7  21780737.273                    21780747.430
 116088026.806 7  90458284.67345  22090791.477                    22090796.590
 115797517.677 7  90231915.43945  22035541.469                    22035549.332
 131580851.598 6 102530581.33643  25039005.211                    25039014.738
 11  8 23  2 33 30.0000000  0  9G29G26G15G12G05G25G02G30G21
 114162682.012 8  88957975.391 7  21724431.227                    21724438.738
 118943275.830 7  92683157.44445  22634154.516                    22634163.652
 123377067.143 7  96138055.531 6  23477874.609                    23477884.379
 117126977.245 7  91267826.681 7  22288522.922                    22288530.918
 109579194.938 8  85386472.397 8  20852204.047                    20852210.871
 114491003.804 8  89213819.630 7  21786914.586                    21786924.723
 116130868.907 8  90491668.13845  22098943.703                    22098949.363
 115841051.170 7  90265837.64745  22043824.914                    22043832.941
 131525024.326 6 102487079.70343  25028381.492                    25028390.762
 11  8 23  2 34  0.0000000  0  9G29G26G15G12G05G25G02G30G21
 114088891.870 8  88900476.613 7  21710389.656                    21710396.938
 118859477.998 7  92617860.47844  22618208.469                    22618216.652
 123281088.586 7  96063267.137 6  23459611.094                    23459619.938
 117209530.409 7  91332153.797 7  22304232.438                    22304240.254
 109633311.319 8  85428641.007 7  20862501.805                    20862508.961
 114523971.524 8  89239508.767 7  21793188.086                    21793198.469
 116173796.788 8  90525118.45345  22107112.828                    22107118.367
 115885058.074 7  90300128.75845  22052199.469                    22052207.441
 131469196.844 6 102443577.89043  25017757.023                    25017767.199
 11  8 23  2 34 30.0000000  0  9G29G26G15G12G05G25G02G30G21
 114015301.178 7  88843133.243 7  21696385.961                    21696393.301
 118775965.781 7  92552786.04644  22602316.977                    22602325.727
 123185150.928 7  95988510.604 6  23441354.281                    23441363.320
 117292345.454 7  91396684.974 7  22319991.336                    22319999.691
 109687819.108 8  85471114.604 7  20872874.883                    20872881.809
 114557442.650 8  89265590.160 7  21799557.453                    21799567.516
 116216810.752 7  90558635.84245  22115297.852                    22115303.246
 115929536.236 7  90334787.07745  22060663.414                    22060671.367
 131413368.677 6 102400075.51243  25007133.820                    25007143.266
 11  8 23  2 35  0.0000000  0  9G29G26G15G12G05G25G02G30G21
 113941911.689 8  88785946.653 7  21682420.430                    21682427.586
 118692742.356 7  92487936.68245  22586479.570                    22586488.344
 123089256.846 7  95913788.035 6  23423106.813                    23423115.285
 117375418.955 7  91461417.550 7  22335799.648                    22335808.004
 109742715.458 8  85513890.981 8  20883321.203                    20883327.926
 114591414.857 8  89292062.012 7  21806022.250                    21806032.250
 116259910.791 7  90592220.30645  22123499.516                    22123504.699
 115974482.822 7  90369810.40445  22069216.094                    22069224.477
 131357539.020 6 102356572.01942  24996508.727                    24996518.973
 11  8 23  2 35 30.0000000  0  9G29G26G15G12G05G25G02G30G21
 113868725.942 8  88728918.822 7  21668493.164                    21668501.066
 118609811.587 7  92423315.33545  22570698.797                    22570706.906
 122993409.503 7  95839101.858 6  23404867.703                    23404875.910
 117458748.044 7  91526349.271 7  22351656.969                    22351664.988
 109797998.208 7  85556968.452 8  20893841.102                    20893847.645
 114625886.214 8  89318922.802 7  21812581.883                    21812591.672
 116303097.290 8  90625872.12845  22131718.039                    22131723.137
 116019895.335 7  90405196.77645  22077858.086                    22077866.406
 131301707.408 6 102313066.98743  24985885.859                    24985894.785
 11  8 23  2 36  0.0000000  0  9G29G26G15G12G05G25G02G30G21
 113795745.743 8  88672051.158 7  21654605.680                    21654613.121
 118527176.758 7  92358924.60245  22554973.672                    22554981.941
 122897611.296 7  95764453.973 6  23386638.141                    23386645.926
 117542329.266 7  91591477.470 7  22367561.898                    22367570.000
 109853664.398 8  85600344.704 7  20904434.063                    20904440.719
 114660854.626 8  89346170.909 7  21819236.070                    21819246.273
 116346370.208 7  90659591.29245  22139952.766                    22139957.484
 116065771.136 7  90440944.15845  22086587.992                    22086596.539
 131245873.087 6 102269559.86843  24975260.320                    24975269.855
 11  8 23  2 36 30.0000000  0  9G29G26G15G12G05G25G02G30G21
 113722973.709 8  88615345.702 7  21640757.664                    21640764.906
 118444842.019 7  92294767.71345  22539305.563                    22539314.492
 122801865.669 7  95689847.070 6  23368418.281                    23368426.402
 117626160.092 7  91656800.166 7  22383514.523                    22383522.246
 109909712.282 8  85644018.381 7  20915099.477                    20915106.301
 114696318.523 8  89373805.108 7  21825984.531                    21825994.660
 116389730.199 7  90693378.30045  22148203.734                    22148208.984
 116112108.116 7  90477050.88345  22095405.742                    22095413.547
 131190035.606 6 102226050.22442  24964635.297                    24964643.809
 11  8 23  2 37  0.0000000  0  9G29G26G15G12G05G25G02G30G21
 113650412.691 8  88558804.656 7  21626950.016                    21626957.430
 118362811.342 7  92230847.75645  22523696.438                    22523704.422
 122706176.135 7  95615283.852 6  23350208.672                    23350216.961
 117710237.949 7  91722315.332 7  22399514.477                    22399522.160
 109966140.003 8  85687988.029 7  20925837.844                    20925844.258
 114732276.157 8  89401824.026 7  21832827.016                    21832837.234
 116433177.504 8  90727233.35645  22156471.633                    22156476.629
 116158903.854 8  90513515.08845  22104310.750                    22104318.445
 131134194.718 6 102182537.96642  24954008.086                    24954017.828
 11  8 23  2 37 30.0000000  0  9G29G26G15G12G05G25G02G30G21
 113578064.859 8  88502429.748 7  21613182.180                    21613189.371
 118281087.941 7  92167167.21645  22508144.594                    22508153.141
 122610545.255 7  95540766.340 6  23332010.750                    23332019.238
 117794559.337 7  91788020.313 7  22415559.805                    22415567.555
 110022944.705 8  85732251.432 7  20936646.867                    20936654.094
 114768725.233 8  89430225.893 7  21839763.531                    21839773.398
 116476712.343 8  90761156.62145  22164755.797                    22164761.391
 116206155.611 8  90550334.63345  22113301.930                    22113310.430
 131078349.633 6 102139022.40243  24943381.750                    24943390.586
 11  8 23  2 38  0.0000000  0  9G29G26G15G12G05G25G02G30G21
 113505932.018 8  88446222.355 7  21599455.680                    21599463.230
 118199675.494 7  92103729.00145  22492651.875                    22492660.621
 122514975.823 7  95466296.705 6  23313824.164                    23313832.797
 117879121.179 7  91853912.620 7  22431651.375                    22431659.563
 110080123.788 8  85776806.562 7  20947527.805                    20947534.578
 114805663.535 8  89459008.973 7  21846792.609                    21846802.391
 116520334.619 7  90795148.02245  22173056.352                    22173062.023
 116253860.663 8  90587507.38345  22122380.609                    22122388.242
 131022499.850 6 102095503.16643  24932753.070                    24932761.965
 11  8 23  2 38 30.0000000  0  9G29G26G15G12G05G25G02G30G21
 113434016.826 8  88390184.578 7  21585770.664                    21585778.340
 118118577.635 7  92040535.91345  22477219.570                    22477228.039
 122419471.071 7  95391877.472 6  23295650.367                    23295659.004
 117963920.166 7  91919989.719 7  22447787.844                    22447795.867
 110137675.045 8  85821651.698 7  20958479.508                    20958486.336
 114843089.219 8  89488171.826 7  21853914.859                    21853924.555
 116564044.961 7  90829208.04945  22181374.547                    22181379.652
 116302016.614 7  90625031.48345  22131544.000                    22131552.523
 130966644.649 6 102051979.75643  24922124.859                    24922133.129
 11  8 23  2 39  0.0000000  0  9G29G26G15G12G05G25G02G30G21
 113362321.507 8  88334318.122 7  21572128.055                    21572134.820
 118037798.175 7  91977590.89645  22461847.688                    22461856.191
 122324034.117 7  95317511.063 6  23277489.039                    23277497.895
 118048953.365 7  91986249.329 7  22463969.383                    22463977.883
 110195596.012 8  85866784.917 7  20969501.547                    20969508.438
 114881000.222 8  89517712.852 7  21861128.758                    21861138.988
 116607843.453 8  90863336.74445  22189709.031                    22189714.121
 116350620.836 8  90662904.87745  22140793.414                    22140801.500
 130910783.434 6 102008451.61143  24911494.594                    24911502.465
 11  8 23  2 39 30.0000000  0  9G29G26G15G12G05G25G02G30G21
 113290847.513 8  88278624.125 7  21558526.875                    21558534.020
 117957340.182 7  91914896.41245  22446537.000                    22446546.090
 122228667.392 7  95243199.390 6  23259341.656                    23259350.227
 118134217.227 7  92052688.684 7  22480194.531                    22480202.887
 110253883.494 8  85912203.726 7  20980593.086                    20980599.898
 114919393.899 8  89547629.975 7  21868435.109                    21868444.559
 116651730.020 7  90897534.07845  22198060.469                    22198065.871
 116399670.192 8  90701125.14645  22150127.039                    22150135.430
 130854915.433 7 101964918.19443  24900863.211                    24900871.004
 11  8 23  2 40  0.0000000  0  9G29G26G15G12G05G25G02G30G21
 113219598.726 8  88223105.624 7  21544968.477                    21544975.523
 117877208.095 7  91852455.86145  22431288.617                    22431296.848
 122133374.943 7  95168945.596 6  23241207.891                    23241216.484
 118219710.097 7  92119306.491 7  22496463.453                    22496471.008
 110312536.581 8  85957907.428 7  20991754.344                    20991761.387
 114958269.087 8  89577922.317 7  21875832.539                    21875842.305
 116695705.652 8  90931800.80645  22206429.039                    22206434.184
 116449163.024 7  90739690.97145  22159545.008                    22159552.828
 130799040.692 6 101921379.53343  24890230.289                    24890238.602
 11  8 23  2 40 30.0000000  0  9G29G26G15G12G05G25G02G30G21
 113148576.951 8  88167764.006 7  21531453.695                    21531460.883
 117797405.128 7  91790271.78845  22416102.266                    22416111.277
 122038159.391 7  95094751.700 6  23223089.102                    23223097.500
 118305427.794 7  92186099.492 7  22512775.242                    22512782.547
 110371552.041 8  86003893.496 7  21002984.609                    21002991.523
 114997623.147 8  89608587.801 7  21883321.430                    21883331.203
 116739770.269 8  90966136.89345  22214813.844                    22214818.902
 116499096.104 7  90778599.83245  22169047.625                    22169055.375
 130743158.137 7 101877834.77644  24879596.016                    24879604.168
 11  8 23  2 41  0.0000000  0  9G29G26G15G12G05G25G02G30G21
 113077784.394 8  88112601.008 7  21517981.953                    21517989.289
 117717935.036 7  91728347.08545  22400979.578                    22400988.469
 121943023.569 7  95020619.933 6  23204985.703                    23204993.672
 118391367.514 7  92253065.491 7  22529128.813                    22529136.902
 110430927.363 8  86050159.974 7  21014283.547                    21014290.516
 115037453.970 8  89639624.781 7  21890900.648                    21890910.727
 116783923.940 7  91000542.35645  22223216.203                    22223221.570
 116549466.879 7  90817849.77545  22178632.039                    22178640.359
 130687267.273 6 101834283.58643  24868960.094                    24868968.934
 11  8 23  2 41 30.0000000  0  9G29G26G15G12G05G25G02G30G21
 113007223.040 8  88057618.163 7  21504554.531                    21504561.867
 117638801.289 7  91666684.44844  22385921.211                    22385929.391
 121847970.274 7  94946552.497 6  23186897.344                    23186905.570
 118477526.091 7  92320202.046 7  22545524.117                    22545531.613
 110490660.364 8  86096705.167 7  21025650.391                    21025656.867
 115077759.346 8  89671031.557 7  21898570.445                    21898580.625
 116828167.387 7  91035017.78545  22231635.563                    22231640.590
 116600272.667 7  90857438.68145  22188300.383                    22188308.285
 130631367.733 6 101790725.61543  24858322.320                    24858331.199
 11  8 23  2 42  0.0000000  0  9G29G26G15G12G05G25G02G30G21
 112936895.873 8  88002817.804 7  21491171.758                    21491179.215
 117560007.536 7  91605286.75245  22370927.055                    22370935.316
 121753002.862 7  94872551.974 6  23168825.234                    23168833.738
 118563900.432 7  92387506.701 7  22561960.711                    22561968.762
 110550748.467 8  86143527.062 7  21037084.602                    21037091.113
 115118537.166 8  89702806.463 7  21906330.813                    21906340.883
 116872500.673 7  91069563.21345  22240071.578                    22240077.297
 116651510.742 7  90897364.42345  22198050.219                    22198058.711
 130575458.915 6 101747160.40143  24847683.484                    24847692.246
 11  8 23  2 42 30.0000000  0  9G29G26G15G12G05G25G02G30G21
 112866804.532 8  87948201.195 7  21477834.078                    21477841.563
 117481557.136 7  91544156.60145  22355998.477                    22356006.984
 121658124.204 7  94798620.601 6  23150770.773                    23150779.070
 118650487.291 7  92454976.961 7  22578437.195                    22578444.848
 110611189.108 8  86190623.652 7  21048586.117                    21048593.035
 115159784.937 8  89734947.570 7  21914179.578                    21914189.680
 116916924.301 7  91104179.05245  22248525.195                    22248530.066
 116703178.187 7  90937624.74345  22207882.305                    22207890.387
 130519539.967 6 101703587.29843  24837042.789                    24837050.668
 11  8 23  2 43  0.0000000  0  9G29G26G15G12G05G25G02G30G21
 112796951.477 8  87893770.269 7  21464541.414                    21464548.582
 117403453.984 7  91483297.04745  22341135.648                    22341143.945
 121563337.268 7  94724760.706 6  23132733.094                    23132741.402
 118737283.942 7  92522610.700 7  22594954.156                    22594962.234
 110671979.905 8  86237993.108 7  21060154.563                    21060161.191
 115201500.694 8  89767453.337 7  21922117.906                    21922128.395
 116961438.281 7  91138865.29145  22256995.875                    22257001.176
 116755272.492 7  90978217.68445  22217795.906                    22217803.766
 130463610.601 6 101660006.11443  24826399.320                    24826408.195
 11  8 23  2 43 30.0000000  0  9G29G26G15G12G05G25G02G30G21
 112727339.689 8  87839527.341 7  21451294.352                    21451301.734
 117325702.079 7  91422711.18245  22326340.781                    22326348.887
 121468645.775 7  94650975.181 6  23114714.289                    23114722.156
 118824287.631 7  92590405.749 7  22611511.008                    22611518.867
 110733118.846 8  86285633.848 7  21071788.781                    21071795.566
 115243682.422 8  89800322.208 7  21930145.047                    21930154.855
 117006043.159 7  91173622.35445  22265484.016                    22265488.941
 116807791.175 7  91019141.30845  22227790.344                    22227797.426
 130407670.444 6 101616416.48043  24815755.180                    24815762.191
 11  8 23  2 44  0.0000000  0  9G29G26G15G12G05G25G02G30G21
 112657971.339 8  87785474.104 7  21438094.102                    21438101.539
 117248304.745 7  91362401.62845  22311611.945                    22311620.094
 121374052.381 7  94577266.110 6  23096713.227                    23096721.535
 118911495.080 7  92658359.594 7  22628105.914                    22628113.445
 110794603.404 8  86333543.926 7  21083488.664                    21083495.262
 115286327.864 8  89833552.417 7  21938260.234                    21938269.832
 117050739.145 7  91208450.41445  22273988.977                    22273994.250
 116860731.601 7  91060393.56345  22237863.875                    22237872.113
 130351719.087 6 101572818.17643  24805106.836                    24805115.332
 11  8 23  2 44 30.0000000  0  9G29G26G15G12G05G25G02G30G21
 112588848.235 8  87731611.974 7  21424940.484                    21424947.887
 117171265.400 7  91302370.99545  22296952.156                    22296959.914
 121279560.101 7  94503635.831 6  23078732.078                    23078740.082
 118998902.633 7  92726469.347 7  22644739.125                    22644747.027
 110856430.704 8  86381721.041 7  21095254.336                    21095260.648
 115329434.396 8  89867141.918 7  21946463.047                    21946472.695
 117095526.419 7  91243349.59245  22282511.867                    22282517.250
 116914090.403 7  91101971.83245  22248018.055                    22248026.207
 130295755.346 6 101529210.20343  24794456.883                    24794465.500
 11  8 23  2 45  0.0000000  0  9G29G26G15G12G05G25G02G30G21
 112519973.363 8  87677943.259 7  21411833.977                    21411841.184
 117094587.657 7  91242622.15645  22282360.336                    22282368.961
 121185171.951 7  94430086.697 6  23060771.023                    23060779.160
 119086507.892 7  92794733.162 7  22661409.836                    22661417.289
 110918598.511 8  86430163.498 7  21107084.414                    21107091.230
 115372999.965 8  89901089.103 7  21954753.492                    21954762.883
 117140405.800 7  91278320.56245  22291052.078                    22291057.344
 116967865.284 7  91143874.31945  22258251.328                    22258259.137
 130239779.048 6 101485592.41143  24783805.438                    24783813.668
 11  8 23  2 45 30.0000000  0  9G29G26G15G12G05G25G02G30G21
 112451348.877 8  87624469.668 7  21398775.086                    21398782.551
 117018275.371 7  91183158.07445  22267838.320                    22267847.359
 121090891.072 7  94356621.142 7  23042829.453                    23042837.703
 119174307.462 7  92863148.375 7  22678117.672                    22678125.047
 110981104.272 8  86478869.294 7  21118978.711                    21118985.293
 115417022.250 8  89935392.185 7  21963130.383                    21963140.340
 117185377.232 7  91313363.24945  22299609.938                    22299615.094
 117022053.383 7  91186098.79645  22268563.148                    22268570.961
 130183789.617 6 101441964.44343  24773150.414                    24773159.148
 11  8 23  2 46  0.0000000  0  9G29G26G15G12G05G25G02G30G21
 112382977.149 8  87571193.017 7  21385764.383                    21385771.945
 116942332.050 7  91123981.49345  22253386.977                    22253395.367
 120996720.908 7  94283241.868 6  23024909.539                    23024917.477
 119262298.679 7  92931712.946 7  22694861.930                    22694869.605
 111043945.884 8  86527836.779 7  21130936.711                    21130943.449
 115461498.972 8  89970049.367 7  21971593.781                    21971603.438
 117230441.168 7  91348478.01645  22308185.602                    22308190.734
 117076651.906 7  91228643.08345  22278952.977                    22278960.566
 130127786.538 7 101398325.75643  24762493.844                    24762501.664
 11  8 23  2 46 30.0000000  0  9G29G26G15G12G05G25G02G30G21
 112314860.348 8  87518115.026 7  21372802.367                    21372809.355
 116866761.017 7  91065095.00845  22239006.422                    22239014.652
 120902663.868 7  94209950.715 6  23007011.320                    23007019.629
 119350477.863 7  93000423.966 7  22711641.688                    22711649.332
 111107120.476 8  86577063.747 7  21142958.930                    21142965.512
 115506427.575 8  90005058.663 7  21980143.508                    21980153.426
 117275597.753 7  91383664.98445  22316778.195                    22316783.188
 117131657.892 7  91271504.87145  22289420.195                    22289428.402
 130071769.108 7 101354675.89843  24751833.977                    24751841.770
 11  8 23  2 47  0.0000000  0  9G29G26G15G12G05G25G02G30G21
 112247000.950 8  87465237.603 7  21359888.883                    21359896.188
 116791565.898 7  91006501.44745  22224696.992                    22224705.387
 120808723.331 7  94136750.352 6  22989134.898                    22989142.539
 119438841.965 7  93069279.093 7  22728456.336                    22728464.223
 111170625.465 8  86626548.155 7  21155043.070                    21155050.156
 115551805.689 8  90040418.234 7  21988778.719                    21988788.961
 117320847.237 8  91418924.33945  22325388.922                    22325394.148
 117187068.424 7  91314681.88545  22299963.703                    22299972.410
 130015736.919 7 101311014.54243  24741171.328                    24741178.945
 11  8 23  2 47 30.0000000  0  9G29G26G15G12G05G25G02G30G21
 112179401.415 8  87412562.680 7  21347025.156                    21347032.504
 116716750.199 7  90948203.51845  22210460.813                    22210468.449
 120714902.394 7  94063643.192 6  22971281.438                    22971289.008
 119527388.206 7  93138276.126 7  22745306.438                    22745313.996
 111234458.809 8  86676288.436 7  21167190.539                    21167197.363
 115597631.023 8  90076126.281 7  21997498.938                    21997509.414
 117366190.226 7  91454256.54345  22334017.469                    22334022.715
 117242880.849 7  91358172.06945  22310584.797                    22310593.410
 129959689.454 6 101267341.25543  24730505.469                    24730513.703
 11  8 23  2 48  0.0000000  0 10G29G26G15G18G12G05G25G02G30G21
 112112064.294 8  87360092.223 7  21334211.531                    21334218.691
 116642317.834 7  90890204.31945  22196295.984                    22196304.453
 120621204.125 7  93990631.601 6  22953451.242                    22953458.965
 129665629.25316 101038223.24053  24674556.125                    24674566.117
 119616113.665 7  93207412.808 7  22762190.359                    22762198.398
 111298618.119 8  86726282.706 7  21179399.578                    21179406.719
 115643901.443 8  90112181.146 7  22006304.000                    22006314.016
 117411627.085 8  91489661.89545  22342664.219                    22342668.531
 117299092.524 7  91401973.33945  22321281.773                    22321289.805
 129903626.402 7 101223655.83743  24719836.734                    24719845.559
 11  8 23  2 48 30.0000000  0 10G29G26G15G18G12G05G25G02G30G21
 112044990.749 8  87307827.166 7  21321447.617                    21321455.223
 116568271.194 7  90832505.67845  22182205.859                    22182213.563
 120527630.941 7  93917717.485 6  22935644.805                    22935652.395
 129576198.942 6 100968537.50942  24657537.664                    24657548.102
 119705014.003 7  93276685.774 7  22779106.977                    22779115.160
 111363099.725 8  86776528.113 7  21191669.789                    21191676.621
 115690613.410 8  90148580.070 7  22015192.992                    22015203.543
 117457157.294 8  91525139.98845  22351328.094                    22351333.176
 117355699.534 7  91446082.67245  22332053.508                    22332061.832
 129847546.042 6 101179956.95943  24709165.203                    24709173.516
 11  8 23  2 49  0.0000000  0 10G29G26G15G18G12G05G25G02G30G21
 111978183.955 8  87255769.964 7  21308734.766                    21308742.086
 116494614.266 7  90775110.72445  22168189.125                    22168196.895
 120434186.364 7  93844903.588 6  22917862.781                    22917870.637
 129486933.336 6 100898980.06142  24640551.227                    24640560.672
 119794086.804 7  93346093.105 7  22796057.945                    22796065.840
 111427901.731 8  86827023.189 7  21204001.594                    21204008.602
 115737765.074 8  90185321.634 7  22024165.648                    22024175.605
 117502781.799 7  91560691.56545  22360010.203                    22360015.059
 117412699.437 7  91490498.16445  22342900.328                    22342908.434
 129791448.530 6 101136244.71443  24698490.102                    24698498.770
 11  8 23  2 49 30.0000000  0 10G29G26G15G18G12G05G25G02G30G21
 111911646.667 8  87203922.763 7  21296072.914                    21296080.352
 116421351.274 7  90718022.73645  22154247.703                    22154256.059
 120340873.926 7  93772192.650 6  22900105.898                    22900113.699
 129397834.256 6 100829552.40242  24623595.727                    24623605.512
 119883329.721 7  93415633.008 7  22813040.242                    22813047.875
 111493022.297 8  86877766.482 7  21216393.766                    21216400.109
 115785354.580 7  90222404.364 7  22033221.711                    22033231.566
 117548501.385 7  91596317.23145  22368710.352                    22368715.336
 117470090.085 7  91535218.12845  22353821.047                    22353829.809
 129735333.894 6 101092519.11843  24687811.734                    24687819.922
 11  8 23  2 50  0.0000000  0 10G29G26G15G18G12G05G25G02G30G21
 111845381.353 8  87152287.503 7  21283463.422                    21283470.074
 116348485.625 7  90661244.35145  22140381.633                    22140389.961
 120247696.559 7  93699586.965 7  22882374.453                    22882382.871
 129308902.919 5 100760255.39142  24606672.320                    24606682.770
 119972739.326 7  93485302.805 7  22830054.555                    22830061.926
 111558458.743 8  86928755.929 7  21228845.867                    21228852.695
 115833379.365 8  90259826.273 7  22042360.609                    22042370.934
 117594316.308 7  91632017.18545  22377428.227                    22377433.605
 117527868.426 7  91580240.19645  22364816.180                    22364824.055
 129679201.523 6 101048779.74243  24677130.008                    24677138.453
 11  8 23  2 50 30.0000000  0 10G29G26G15G18G12G05G25G02G30G21
 111779390.267 8  87100865.911 7  21270905.836                    21270912.758
 116276020.769 7  90604778.29745  22126592.055                    22126600.707
 120154657.577 7  93627089.100 7  22864670.227                    22864678.230
 129220140.923 6 100691090.42342  24589782.023                    24589791.664
 120062312.647 7  93555100.160 7  22847099.641                    22847107.695
 111624208.736 8  86979989.696 7  21241357.172                    21241364.031
 115881837.005 8  90297585.467 7  22051581.844                    22051591.559
 117640226.946 7  91667791.71345  22386165.063                    22386170.199
 117586031.615 7  91625562.15245  22375883.773                    22375891.746
 129623051.034 6 101005026.25243  24666445.078                    24666453.203
 11  8 23  2 51  0.0000000  0 10G29G26G15G18G12G05G25G02G30G21
 111713675.978 8  87049660.021 7  21258400.563                    21258407.590
 116203960.539 7  90548627.52245  22112879.445                    22112887.227
 120061760.128 7  93554701.545 7  22846991.930                    22847000.316
 129131550.004 6 100622058.82642  24572922.719                    24572933.234
 120152046.841 7  93625022.877 6  22864175.469                    22864183.523
 111690270.243 8  87031466.202 7  21253928.805                    21253935.363
 115930725.133 8  90335680.116 7  22060884.813                    22060895.020
 117686233.520 7  91703640.99645  22394919.891                    22394924.742
 117644576.806 7  91671181.76545  22387024.867                    22387032.898
 129566881.908 6 100961258.21343  24655755.078                    24655764.668
 11  8 23  2 51 30.0000000  0 10G29G26G15G18G12G05G25G02G30G21
 111648240.242 8  86998671.181 7  21245948.531                    21245955.438
 116132307.494 7  90492794.04045  22099243.773                    22099252.125
 119969006.594 7  93482426.118 7  22829341.992                    22829349.820
 129043130.572 6 100553160.80343  24556097.125                    24556107.586
 120241938.348 7  93695068.195 6  22881281.047                    22881288.867
 111756640.023 8  87083182.915 7  21266558.234                    21266564.500
 115980040.754 8  90374107.883 7  22070269.141                    22070278.836
 117732336.584 7  91739565.46245  22403692.820                    22403697.988
 117703500.613 7  91717096.41045  22398237.719                    22398246.105
 129510693.028 6 100917474.81343  24645063.672                    24645072.445
 11  8 23  2 52  0.0000000  0 10G29G26G15G18G12G05G25G02G30G21
 111583085.699 8  86947901.457 7  21233549.992                    21233557.285
 116061065.693 7  90437281.00545  22085687.031                    22085695.063
 119876400.799 7  93410265.830 7  22811718.891                    22811727.191
 128954883.768 6 100484397.23643  24539304.641                    24539314.211
 120331984.204 7  93765233.764 7  22898416.383                    22898424.516
 111823315.365 8  87135137.737 7  21279246.500                    21279252.758
 116029781.391 8  90412866.827 7  22079734.625                    22079744.461
 117778536.244 7  91775565.19345  22412484.320                    22412489.633
 117762800.207 7  91763303.87545  22409522.250                    22409530.453
 129454484.439 6 100873676.04943  24634367.133                    24634375.844
 11  8 23  2 52 30.0000000  0 10G29G26G15G18G12G05G25G02G30G21
 111518214.792 8  86897352.737 7  21221205.211                    21221212.621
 115990238.686 7  90382091.19245  22072209.078                    22072217.402
 119783945.666 7  93338222.926 7  22794125.797                    22794133.473
 128866811.032 6 100415769.41343  24522543.023                    24522554.410
 120422181.322 7  93835517.183 7  22915580.320                    22915588.031
 111890294.291 8  87187329.111 7  21291991.742                    21291998.801
 116079944.805 8  90451955.211 7  22089280.266                    22089289.863
 117824833.290 7  91811640.79945  22421294.445                    22421299.574
 117822472.816 7  91809801.98845  22420877.711                    22420885.938
 129398255.310 6 100829861.24643  24623667.633                    24623675.645
 11  8 23  2 53  0.0000000  0 10G29G26G15G18G12G05G25G02G30G21
 111453629.894 8  86847026.886 7  21208915.047                    21208922.348
 115919829.667 7  90327227.07645  22058810.883                    22058818.828
 119691644.169 7  93266299.750 7  22776561.242                    22776569.133
 128778913.897 6 100347278.34643  24505818.172                    24505827.508
 120512526.545 7  93905916.030 7  22932772.531                    22932780.500
 111957574.093 8  87239754.938 7  21304794.875                    21304801.578
 116130528.274 8  90491370.907 7  22098905.984                    22098915.746
 117871227.751 7  91847792.32045  22430122.859                    22430127.906
 117882515.410 7  91856588.42245  22432303.273                    22432311.211
 129342005.241 6 100786030.16443  24612963.109                    24612972.266
 11  8 23  2 53 30.0000000  0 10G29G26G15G18G12G05G25G02G30G21
 111389333.343 8  86796925.735 7  21196679.828                    21196687.113
 115849842.073 7  90272691.34345  22045492.969                    22045500.766
 119599499.371 7  93194498.652 7  22759026.336                    22759034.242
 128691193.416 6 100278924.94043  24489125.258                    24489135.129
 120603016.793 7  93976427.876 7  22949992.398                    22950000.719
 112025152.310 8  87292413.301 7  21317654.625                    21317661.379
 116181529.191 8  90531111.901 7  22108610.883                    22108620.910
 117917719.903 7  91884019.95945  22438969.797                    22438975.418
 117942924.962 7  91903660.79245  22443798.977                    22443807.160
 129285733.924 6 100742182.46343  24602255.141                    24602263.855
 11  8 23  2 54  0.0000000  0 10G29G26G15G18G12G05G25G02G30G21
 111325327.174 8  86747050.842 7  21184499.836                    21184506.875
 115780279.271 7  90218486.62745  22032255.281                    22032263.270
 119507514.418 7  93122822.131 7  22741521.906                    22741529.867
 128603650.978 6 100210710.26843  24472466.086                    24472475.891
 120693649.020 7  94047050.364 6  22967239.164                    22967246.434
 112093026.649 8  87345302.415 7  21330570.539                    21330577.164
 116232944.941 8  90571176.120 7  22118395.211                    22118405.230
 117964310.189 7  91920324.04945  22447836.031                    22447841.297
 118003698.442 7  91951016.74945  22455363.547                    22455372.047
 129229440.758 7 100698317.74943  24591543.047                    24591551.406
 11  8 23  2 54 30.0000000  0 10G29G26G15G18G12G05G25G02G30G21
 111261614.278 8  86697404.472 7  21172375.820                    21172382.656
 115711144.956 7  90164615.79845  22019099.141                    22019107.418
 119415692.609 7  93051272.718 6  22724049.289                    22724056.910
 128516287.919 6 100142635.34343  24455841.586                    24455850.852
 120784420.428 7  94117781.312 7  22984511.945                    22984519.973
 112161194.816 8  87398420.477 7  21343542.359                    21343549.094
 116284773.244 8  90611561.810 7  22128257.320                    22128267.520
 118010999.036 7  91956704.95745  22456720.313                    22456725.891
 118064833.140 7  91998654.16745  22466997.539                    22467005.719
 129173125.145 6 100654435.55843  24580826.594                    24580834.496
 11  8 23  2 55  0.0000000  0 10G29G26G15G18G12G05G25G02G30G21
 111198196.904 8  86647988.386 7  21160307.750                    21160314.633
 115642442.280 7  90111081.30945  22006025.469                    22006033.906
 119324036.901 7  92979852.750 7  22706607.367                    22706615.473
 128429104.974 6 100074700.79943  24439250.727                    24439260.148
 120875327.511 7  94188617.957 6  23001810.820                    23001818.781
 112229653.982 8  87451765.298 7  21356569.836                    21356576.715
 116337011.189 8  90652266.698 7  22138198.250                    22138208.125
 118057787.135 7  91993163.20145  22465624.125                    22465629.332
 118126325.855 7  92046570.55745  22478699.453                    22478707.777
 129116786.560 6 100610535.47143  24570105.367                    24570113.348
 11  8 23  2 55 30.0000000  0 10G29G26G15G18G12G05G25G02G30G21
 111135077.426 8  86598804.416 7  21148296.680                    21148303.148
 115574174.760 7  90057885.89945  21993034.719                    21993042.578
 119232550.508 7  92908564.718 7  22689198.617                    22689206.133
 128342103.656 6 100006907.79743  24422694.992                    24422704.371
 120966367.510 7  94259558.191 6  23019135.594                    23019143.789
 112298401.497 8  87505334.805 7  21369651.781                    21369658.723
 116389656.232 8  90693288.794 7  22148216.352                    22148226.449
 118104674.698 7  92029698.95345  22474546.297                    22474551.504
 118188173.583 7  92094763.58845  22490468.109                    22490476.215
 129060424.634 6 100566617.14443  24559379.672                    24559388.031
 11  8 23  2 56  0.0000000  0 10G29G26G15G18G12G05G25G02G30G21
 111072259.025 8  86549855.052 7  21136342.531                    21136349.367
 115506346.234 7  90005032.54945  21980127.328                    21980135.441
 119141236.782 7  92837411.221 7  22671821.422                    22671830.016
 128255285.606 6  99939257.58143  24406174.031                    24406183.223
 121057537.652 7  94330599.832 6  23036484.406                    23036492.395
 112367435.458 8  87559127.512 7  21382788.820                    21382795.629
 116442706.123 8  90734626.359 7  22158311.273                    22158321.824
 118151662.290 7  92066312.65145  22483488.297                    22483492.887
 118250373.650 7  92143231.16445  22502304.453                    22502312.801
 129004039.365 6 100522680.67243  24548649.633                    24548657.961
 11  8 23  2 56 30.0000000  0 10G29G26G15G18G12G05G25G02G30G21
 111009742.565 8  86501140.934 7  21124445.875                    21124452.824
 115438959.526 8  89952523.49245  21967304.016                    21967311.820
 119050098.208 7  92766394.205 7  22654478.297                    22654486.703
 128168651.284 6  99871750.60743  24389687.383                    24389696.867
 121148834.368 7  94401740.102 6  23053857.906                    23053865.633
 112436752.962 8  87613141.166 7  21395979.492                    21395985.953
 116496157.604 8  90776276.867 7  22168483.273                    22168492.922
 118198750.058 7  92103004.40245  22492448.227                    22492453.523
 118312922.439 7  92191970.46945  22514206.938                    22514215.297
 128947629.535 6 100478725.05643  24537915.625                    24537923.234
 11  8 23  2 57  0.0000000  0 10G29G26G15G18G12G05G25G02G30G21
 110947531.411 8  86452664.759 7  21112607.492                    21112614.535
 115372018.226 7  89900361.49445  21954565.633                    21954573.738
 118959138.467 7  92695516.533 7  22637169.844                    22637177.715
 128082202.581 6  99804388.16443  24373236.594                    24373245.648
 121240254.727 7  94472976.710 6  23071254.344                    23071263.023
 112506352.034 8  87667374.226 7  21409223.633                    21409230.441
 116550008.566 8  90818238.636 7  22178730.891                    22178740.523
 118245938.635 7  92139774.71345  22501428.180                    22501433.336
 118375817.492 7  92240979.59245  22526175.500                    22526183.703
 128891195.105 6 100434750.33843  24527175.727                    24527184.211
 11  8 23  2 57 30.0000000  0 10G29G26G15G18G12G05G25G02G30G21
 110885628.125 8  86404428.478 7  21100827.711                    21100834.723
 115305525.919 7  89848549.36245  21941912.594                    21941920.465
 118868360.789 7  92624780.712 7  22619894.867                    22619902.875
 127995940.445 6  99737171.08343  24356821.250                    24356831.094
 121331796.197 7  94544307.701 6  23088674.484                    23088682.043
 112576230.184 8  87721824.747 7  21422521.109                    21422527.828
 116604256.439 8  90860509.694 7  22189053.695                    22189063.266
 118293228.461 7  92176623.91245  22510427.328                    22510432.211
 118439055.922 7  92290256.28345  22538209.750                    22538218.137
 128834735.906 6 100390756.32143  24516431.617                    24516440.164
 11  8 23  2 58  0.0000000  0 10G29G26G15G18G12G05G25G02G30G21
 110824034.244 8  86356433.272 7  21089106.883                    21089113.660
 115239485.260 7  89797089.16045  21929345.156                    21929352.930
 118777767.909 7  92554188.896 7  22602655.813                    22602663.695
 127909865.491 6  99670099.89442  24340441.133                    24340451.383
 121423455.021 7  94615730.117 6  23106116.414                    23106124.566
 112646384.214 8  87776490.237 7  21435870.875                    21435877.758
 116658897.903 8  90903087.450 7  22199451.445                    22199461.223
 118340619.753 7  92213552.18645  22519444.953                    22519450.414
 118502634.016 7  92339797.63845  22550307.883                    22550316.605
 128778251.037 6 100346742.24743  24505683.266                    24505691.398
 11  8 23  2 58 30.0000000  0 10G29G26G15G18G12G05G25G02G30G21
 110762752.321 8  86308681.144 7  21077445.078                    21077452.172
 115173899.838 7  89745983.68745  21916864.945                    21916872.504
 118687362.836 7  92483743.425 7  22585451.875                    22585460.332
 127823979.286 6  99603175.77342  24324098.047                    24324107.125
 121515228.126 7  94687241.599 6  23123580.547                    23123588.117
 112716811.410 8  87831368.589 7  21449272.695                    21449279.242
 116713930.375 8  90945969.880 7  22209923.961                    22209933.512
 118388112.848 7  92250559.79445  22528482.609                    22528488.082
 118566548.796 7  92389601.35545  22562470.813                    22562478.578
 128721740.046 6 100302707.81943  24494928.820                    24494937.578
 11  8 23  2 59  0.0000000  0 10G29G26G15G18G12G05G25G02G30G21
 110701785.150 8  86261174.284 7  21065843.727                    21065850.707
 115108773.064 7  89695235.60045  21904471.547                    21904479.715
 118597148.894 7  92413446.890 7  22568284.695                    22568293.328
 127738283.154 6  99536399.73243  24307790.570                    24307799.566
 121607112.830 7  94758840.026 7  23141065.984                    23141073.840
 112787510.266 8  87886458.629 7  21462725.883                    21462732.934
 116769351.386 7  90989155.070 7  22220469.742                    22220480.355
 118435708.300 7  92287647.14245  22537540.438                    22537545.176
 118630797.451 7  92439665.23445  22574696.625                    22574705.051
 128665202.441 6 100258652.66143  24484170.164                    24484179.035
 11  8 23  2 59 30.0000000  0 10G29G26G15G18G12G05G25G02G30G21
 110641134.775 8  86213914.269 7  21054302.023                    21054309.105
 115044108.519 7  89644847.69445  21892166.242                    21892174.418
 118507129.261 7  92343301.777 7  22551155.039                    22551163.047
 127652778.541 6  99469772.93043  24291519.289                    24291528.785
 121699106.050 7  94830523.028 6  23158571.375                    23158579.664
 112858477.971 8  87941758.152 7  21476230.469                    21476237.422
 116825158.233 8  91032640.908 7  22231089.492                    22231099.676
 118483406.500 7  92324814.55645  22546617.148                    22546622.105
 118695376.946 7  92489986.88945  22586985.820                    22586994.035
 128608637.601 6 100214576.27443  24473407.305                    24473414.777
 11  8 23  3  0  0.0000000  0 10G29G26G15G18G12G05G25G02G30G21
 110580803.784 8  86166903.125 7  21042821.414                    21042828.320
 114979908.987 7  89594822.11945  21879949.367                    21879957.059
 118417306.864 7  92273310.354 7  22534061.648                    22534070.152
 127567466.023 6  99403295.79943  24275284.969                    24275294.672
 121791204.665 7  94902288.150 7  23176096.813                    23176105.703
 112929712.012 8  87997265.221 7  21489786.594                    21489792.992
 116881348.089 8  91076425.184 7  22241782.234                    22241792.160
 118531207.877 7  92362062.38045  22555713.109                    22555718.383
 118760284.128 7  92540563.90245  22599337.352                    22599345.242
 128552045.459 6 100170478.61043  24462637.320                    24462645.906
 11  8 23  3  0 30.0000000  0 10G29G26G15G18G12G05G25G02G30G21
 110520793.986 8  86120142.264 7  21031402.094                    21031408.961
 114916177.685 7  89545161.38645  21867821.758                    21867829.352
 118327684.695 7  92203474.951 7  22517007.430                    22517015.734
 127482346.453 6  99336968.97043  24259086.828                    24259096.906
 121883405.070 7  94974132.574 6  23193641.820                    23193650.270
 113001209.802 8  88052977.806 7  21503391.648                    21503398.316
 116937917.847 8  91120505.503 7  22252547.203                    22252557.254
 118579112.712 7  92399390.80945  22564829.383                    22564834.566
 118825515.495 7  92591393.51945  22611750.891                    22611758.586
 128495425.203 6 100126359.05443  24451863.602                    24451871.441
 11  8 23  3  1  0.0000000  0 10G29G26G15G18G12G05G25G02G30G21
 110461108.580 8  86073634.156 7  21020044.438                    21020051.594
 114852918.509 7  89495868.54745  21855783.859                    21855791.695
 118238266.354 7  92133798.374 7  22499991.563                    22499999.848
 127397421.697 6  99270793.98743  24242926.477                    24242936.523
 121975704.868 7  95046054.445 6  23211206.328                    23211214.621
 113072969.399 8  88108894.399 7  21517047.047                    21517053.324
 116994865.413 8  91164880.201 7  22263384.188                    22263393.805
 118627121.731 7  92436800.41745  22573965.070                    22573970.113
 118891068.638 7  92642473.86345  22624225.227                    22624233.273
 128438776.743 6 100082217.50943  24441083.813                    24441091.473
 11  8 23  3  1 30.0000000  0 10G29G26G15G18G12G05G25G02G30G21
 110401749.746 8  86027380.533 7  21008748.641                    21008755.684
 114790134.387 7  89446945.87745  21843836.727                    21843844.617
 118149055.037 7  92064283.111 7  22483015.070                    22483023.102
 127312692.706 6  99204771.55743  24226803.141                    24226812.371
 122068101.031 7  95118051.434 6  23228788.813                    23228796.563
 113144988.100 8  88165012.898 7  21530751.461                    21530758.406
 117052187.899 7  91209547.059 7  22274291.609                    22274301.910
 118675235.206 7  92474291.42245  22583120.969                    22583125.891
 118956940.347 7  92693802.45045  22636759.430                    22636767.914
 128382099.746 6 100038053.71443  24430298.516                    24430305.734
 11  8 23  3  2  0.0000000  0 10G29G26G15G18G12G05G25G02G30G21
 110342719.733 8  85981383.133 7  20997515.492                    20997522.469
 114727828.351 7  89398395.75945  21831980.070                    21831987.871
 118060053.384 7  91994931.218 7  22466078.953                    22466086.688
 127228160.615 6  99138902.50943  24210716.945                    24210726.398
 122160590.544 7  95190121.139 6  23246388.938                    23246396.836
 113217263.235 8  88221331.206 7  21544504.953                    21544511.707
 117109882.340 7  91254503.744 7  22285271.133                    22285280.984
 118723453.640 7  92511864.20545  22592296.539                    22592301.066
 119023127.347 7  92745376.69445  22649354.688                    22649363.578
 128325393.512 6  99993867.14943  24419507.180                    24419514.828
 11  8 23  3  2 30.0000000  0 10G29G26G15G18G12G05G25G02G30G21
 110284020.536 8  85935643.511 7  20986345.359                    20986352.422
 114666003.891 7  89350220.89245  21820215.117                    21820222.719
 117971264.518 7  91925745.133 7  22449182.992                    22449190.707
 127143825.904 6  99073187.25443  24194668.461                    24194677.688
 122253169.928 7  95262260.873 6  23264006.367                    23264014.574
 113289792.323 8  88277847.402 7  21558307.180                    21558313.898
 117167945.718 7  91299747.908 7  22296320.117                    22296330.098
 118771777.562 7  92549519.17945  22601492.438                    22601497.367
 119089626.265 7  92797193.99945  22662009.359                    22662017.641
 128268657.460 6  99949657.34743  24408710.242                    24408718.074
 11  8 23  3  3  0.0000000  0 10G29G26G15G18G12G05G25G02G30G21
 110225654.919 8  85890163.837 7  20975238.805                    20975245.707
 114604664.101 7  89302423.69045  21808542.281                    21808550.434
 117882691.746 7  91856727.426 7  22432327.906                    22432336.164
 127059690.347 6  99007627.22043  24178657.508                    24178667.438
 122345836.514 7  95334468.562 6  23281640.219                    23281647.918
 113362573.094 8  88334559.717 7  21572157.008                    21572163.629
 117226375.657 7  91345277.716 7  22307438.914                    22307449.320
 118820207.272 7  92587256.59445  22610708.203                    22610713.113
 119156434.420 7  92849252.28245  22674722.305                    22674730.625
 128211891.508 6  99905424.25643  24397907.734                    24397915.449
 11  8 23  3  3 30.0000000  0 10G29G26G15G18G12G05G25G02G30G21
 110167625.266 7  85844945.925 7  20964195.984                    20964203.512
 114543812.265 7  89255006.71445  21796962.875                    21796970.820
 117794338.589 7  91787880.869 7  22415514.742                    22415522.582
 126975755.066 6  98942223.23743  24162685.664                    24162694.605
 122438587.604 7  95406742.100 6  23299289.672                    23299297.848
 113435602.896 8  88391466.068 7  21586053.813                    21586060.586
 117285169.309 7  91391090.931 7  22318626.914                    22318637.199
 118868743.375 7  92625076.91745  22619944.297                    22619949.238
 119223548.679 7  92901549.09845  22687493.742                    22687501.754
 128155095.200 6  99861167.51743  24387099.969                    24387107.133
 11  8 23  3  4  0.0000000  0 10G29G26G15G18G12G05G25G02G30G21
 110109933.968 8  85799991.714 8  20953218.000                    20953224.898
 114483451.531 7  89207972.40445  21785476.953                    21785484.664
 117706207.910 7  91719207.658 7  22398744.344                    22398752.109
 126892021.063 6  98876976.10843  24146751.406                    24146760.484
 122531419.828 6  95479078.840 6  23316955.484                    23316963.965
 113508879.715 8  88448564.907 7  21599997.828                    21600004.543
 117344323.957 7  91437185.438 7  22329883.867                    22329894.031
 118917386.430 7  92662980.56545  22629200.586                    22629205.770
 119290965.990 7  92954082.03045  22700323.195                    22700331.074
 128098268.030 6  99816886.72143  24376285.859                    24376293.500
 11  8 23  3  4 30.0000000  0 10G29G26G15G18G12G05G25G02G30G21
 110052583.415 8  85755302.994 7  20942304.359                    20942311.145
 114423585.089 7  89161323.27545  21774084.164                    21774092.398
 117618302.625 7  91650710.091 7  22382016.305                    22382023.918
 126808489.479 6  98811886.68243  24130855.641                    24130864.781
 122624330.337 7  95551476.573 6  23334635.930                    23334644.648
 113582401.002 8  88505854.245 7  21613988.773                    21613995.102
 117403836.562 7  91483558.871 7  22341208.898                    22341218.844
 118966136.675 7  92700967.74645  22638477.445                    22638482.430
 119358682.960 7  93006848.50345  22713209.383                    22713217.133
 128041409.456 6  99772581.43343  24365465.953                    24365473.770
 11  8 23  3  5  0.0000000  0 10G29G26G15G18G12G05G25G02G30G21
 109995575.603 8  85710881.358 7  20931456.344                    20931463.262
 114364215.811 7  89115061.55445  21762786.617                    21762794.586
 117530625.739 7  91582390.499 7  22365331.992                    22365339.602
 126725160.830 6  98746955.39143  24114998.695                    24115008.012
 122717315.834 7  95623932.764 6  23352330.734                    23352338.453
 113656163.822 8  88563331.789 7  21628024.984                    21628031.664
 117463704.171 7  91530208.915 7  22352601.664                    22352611.656
 119014994.540 7  92739038.78645  22647774.914                    22647780.055
 119426696.358 7  93059845.93045  22726151.414                    22726159.961
 127984519.499 6  99728251.73043  24354639.781                    24354647.574
 11  8 23  3  5 30.0000000  0 10G29G26G15G18G12G05G25G02G30G21
 109938913.302 8  85666728.936 7  20920673.422                    20920680.340
 114305347.484 7  89069190.15345  21751584.141                    21751592.090
 117443181.092 7  91514251.857 7  22348691.633                    22348698.980
 126642036.852 6  98682183.58943  24099180.867                    24099189.969
 122810373.640 7  95696445.300 6  23370039.125                    23370046.484
 113730166.488 8  88620996.224 7  21642107.398                    21642113.930
 117523924.315 7  91577133.687 7  22364061.133                    22364071.203
 119063960.542 7  92777194.08945  22657092.219                    22657097.902
 119495003.589 7  93113072.33045  22739149.758                    22739158.262
 127927597.803 6  99683897.26444  24343808.773                    24343816.324
 11  8 23  3  6  0.0000000  0 10G29G26G15G18G12G05G25G02G30G21
 109882598.491 8  85622847.291 7  20909957.523                    20909964.313
 114246982.648 7  89023711.09645  21740477.969                    21740485.582
 117355971.148 7  91446296.107 7  22332096.078                    22332103.301
 126559118.179 6  98617571.76743  24083401.688                    24083410.895
 122903500.676 7  95769011.772 6  23387760.219                    23387767.930
 113804406.249 8  88678845.405 7  21656234.883                    21656241.207
 117584493.909 7  91624330.738 7  22375586.906                    22375596.887
 119113035.139 7  92815433.99544  22666431.547                    22666436.539
 119563601.102 7  93166524.91645  22752203.609                    22752211.984
 127870643.560 6  99639517.44143  24332970.039                    24332977.691
 11  8 23  3  6 30.0000000  0 10G29G26G15G18G12G05G25G02G30G21
 109826633.604 8  85579238.319 7  20899307.484                    20899314.766
 114189124.419 7  88978626.80145  21729467.570                    21729475.258
 117268998.980 7  91378525.643 7  22315545.500                    22315553.383
 126476405.963 6  98553120.80543  24067662.141                    24067670.492
 122996693.671 7  95841629.632 6  23405494.102                    23405502.781
 113878880.538 8  88736877.338 7  21670407.016                    21670413.250
 117645410.109 7  91671797.885 7  22387178.766                    22387188.559
 119162218.646 7  92853758.79345  22675790.461                    22675796.090
 119632485.836 7  93220201.31244  22765311.320                    22765320.004
 127813656.552 6  99595112.07843  24322126.125                    24322133.488
 11  8 23  3  7  0.0000000  0 10G29G26G15G18G12G05G25G02G30G21
 109771021.288 7  85535904.063 7  20888724.961                    20888731.695
 114131776.001 7  88933939.74145  21718554.766                    21718562.559
 117182268.191 7  91310943.246 7  22299041.547                    22299049.035
 126393901.442 6  98488831.65943  24051961.336                    24051970.141
 123089950.028 7  95914296.878 6  23423240.508                    23423248.996
 113953587.085 8  88795090.249 7  21684623.008                    21684629.641
 117706670.194 7  91719532.983 7  22398836.406                    22398846.344
 119211511.804 7  92892169.01445  22685170.648                    22685175.719
 119701654.790 7  93274099.18344  22778473.969                    22778482.691
 127756636.603 6  99550681.04243  24311274.977                    24311283.215
 11  8 23  3  7 30.0000000  0 10G29G26G15G18G12G05G25G02G30G21
 109715763.569 8  85492846.126 7  20878209.547                    20878216.230
 114074940.533 8  88889652.37545  21707739.117                    21707746.797
 117095781.309 7  91243550.924 7  22282583.719                    22282591.008
 126311605.410 6  98424705.00243  24036301.047                    24036309.402
 123183266.639 7  95987011.084 6  23440998.789                    23441006.168
 114028523.245 8  88853482.071 7  21698882.898                    21698889.344
 117768271.009 7  91767533.597 7  22410558.602                    22410568.340
 119260914.849 7  92930664.88944  22694571.820                    22694576.746
 119771104.451 7  93328215.79244  22791690.320                    22791698.402
 127699583.226 6  99506223.95543  24300418.406                    24300425.594
 11  8 23  3  8  0.0000000  0 10G29G26G15G18G12G05G25G02G30G21
 109660862.257 8  85450065.904 7  20867762.148                    20867768.742
 114018620.466 7  88845766.61745  21697022.164                    21697030.137
 117009541.321 7  91176350.966 7  22266172.672                    22266180.414
 126229518.423 6  98360741.23743  24020680.094                    24020689.191
 123276640.135 7  96059769.617 6  23458766.773                    23458774.746
 114103686.543 8  88912050.889 7  21713185.820                    21713192.590
 117830209.348 7  91815797.212 7  22422344.594                    22422355.211
 119310428.195 7  92969246.69945  22703994.172                    22703999.395
 119840831.446 7  93382548.47245  22804958.750                    22804967.684
 127642495.681 6  99461740.25943  24289554.641                    24289561.824
 11  8 23  3  8 30.0000000  0 10G29G26G15G18G12G05G25G02G30G21
 109606320.284 7  85407565.687 7  20857383.195                    20857390.070
 113962819.350 7  88802285.24045  21686403.414                    21686411.313
 116923551.993 7  91109346.329 7  22249809.547                    22249816.766
 126147641.830 6  98296941.42243  24005099.352                    24005108.602
 123370067.745 6  96132570.308 6  23476545.094                    23476553.199
 114179074.969 8  88970795.130 7  21727531.961                    21727538.398
 117892482.911 7  91864322.039 7  22434195.391                    22434205.281
 119360052.526 7  93007914.97645  22713437.109                    22713442.574
 119910833.075 7  93437095.17245  22818279.758                    22818288.430
 127585374.047 6  99417230.00243  24278684.766                    24278691.578
 11  8 23  3  9  0.0000000  0 10G29G26G15G18G12G05G25G02G30G21
 109552140.244 8  85365347.490 7  20847072.930                    20847079.797
 113907540.340 7  88759210.70545  21675883.789                    21675891.633
 116837816.535 7  91042539.518 7  22233494.367                    22233501.883
 126065977.125 6  98233306.70343  23989558.953                    23989568.215
 123463546.927 6  96205411.183 6  23494334.086                    23494341.574
 114254686.107 8  89029712.908 7  21741920.250                    21741926.926
 117955088.888 7  91913105.893 7  22446108.578                    22446118.695
 119409788.354 7  93046670.14245  22722901.773                    22722907.023
 119981106.354 7  93491853.54445  22831652.414                    22831660.508
 127528218.126 6  99372693.02043  24267808.227                    24267815.500
 11  8 23  3  9 30.0000000  0 10G29G26G15G18G12G05G25G02G30G21
 109498323.947 8  85323412.726 7  20836832.078                    20836839.035
 113852786.233 7  88716545.18645  21665464.836                    21665472.109
 116752337.521 7  90975932.539 7  22217228.672                    22217235.938
 125984524.787 6  98169837.49243  23974059.703                    23974068.309
 123557074.400 6  96278289.693 6  23512131.977                    23512139.828
 114330517.329 8  89088802.182 7  21756350.273                    21756356.926
 118018023.913 7  91962146.150 7  22458085.195                    22458094.973
 119459635.973 7  93085512.41545  22732387.844                    22732393.137
 120051647.727 7  93546820.80345  22845075.680                    22845084.082
 127471027.019 6  99328128.60943  24256925.594                    24256931.953
 11  8 23  3 10  0.0000000  0 10G29G26G15G18G12G05G25G02G30G21
 109444873.692 8  85281763.198 7  20826660.945                    20826667.543
 113798559.777 7  88674290.81045  21655145.586                    21655153.676
 116667117.940 7  90909527.725 7  22201012.117                    22201018.953
 125903285.974 6  98106534.62643  23958600.234                    23958608.496
 123650646.931 7  96351203.317 6  23529938.148                    23529945.953
 114406566.080 8  89148060.955 7  21770821.992                    21770828.492
 118081285.116 7  92011440.558 7  22470122.867                    22470133.336
 119509595.769 7  93124442.10345  22741894.188                    22741899.871
 120122453.962 7  93601994.47745  22858549.781                    22858558.383
 127413800.481 6  99283536.61743  24246035.641                    24246042.078
 11  8 23  3 10 30.0000000  0 10G29G26G15G18G12G05G25G02G30G21
 109391792.364 8  85240401.139 8  20816559.695                    20816566.895
 113744864.306 7  88632450.20745  21644927.766                    21644935.492
 116582161.557 7  90843328.002 7  22184845.461                    22184851.879
 125822261.796 6  98043399.01743  23943181.805                    23943189.820
 123744262.107 7  96424150.167 6  23547752.359                    23547760.594
 114482830.442 8  89207487.734 7  21785334.594                    21785340.922
 118144869.993 7  92060987.172 7  22482223.195                    22482233.348
 119559668.501 7  93163459.79745  22751423.133                    22751428.406
 120193522.368 7  93657372.41045  22872074.250                    22872082.301
 127356538.847 7  99238917.23443  24235138.602                    24235145.742
 11  8 23  3 11  0.0000000  0 10G29G26G15G18G12G05G25G02G30G21
 109339082.096 8  85199328.213 8  20806529.234                    20806536.180
 113691702.738 7  88591025.61945  21634811.578                    21634818.980
 116497471.173 7  90777335.531 7  22168728.531                    22168736.137
 125741452.871 6  97980431.14943  23927803.953                    23927812.379
 123837916.810 7  96497127.829 6  23565574.438                    23565582.711
 114559308.038 8  89267080.653 7  21799887.570                    21799894.102
 118208775.396 7  92110783.557 7  22494383.828                    22494394.375
 119609854.538 7  93202565.77145  22760973.133                    22760978.543
 120264849.608 7  93712952.03644  22885646.922                    22885655.355
 127299241.400 6  99194269.92343  24224235.141                    24224242.770
 11  8 23  3 11 30.0000000  0 10G29G26G15G18G12G05G25G02G30G21
 109286744.496 8  85158545.688 8  20796569.836                    20796576.605
 113639077.666 7  88550019.08345  21624797.305                    21624805.031
 116413049.588 7  90711552.524 7  22152663.766                    22152671.582
 125660860.343 6  97917631.87943  23912467.375                    23912476.113
 123931607.790 7  96570133.740 6  23583403.523                    23583411.363
 114635995.702 8  89326837.273 7  21814480.836                    21814487.746
 118272998.114 7  92160827.196 7  22506604.844                    22506615.270
 119660154.177 7  93241760.27245  22770545.234                    22770550.250
 120336432.115 7  93768730.57644  22899268.828                    22899276.961
 127241907.456 6  99149594.19843  24213324.586                    24213331.840
 11  8 23  3 12  0.0000000  0 10G29G26G15G18G12G05G25G02G30G21
 109234782.424 8  85118055.784 8  20786681.461                    20786688.637
 113586992.003 7  88509432.86245  21614885.758                    21614893.445
 116328900.067 7  90645981.524 7  22136650.797                    22136658.129
 125580485.034 6  97855001.86243  23897172.758                    23897181.652
 124025332.362 7  96643165.843 6  23601238.570                    23601246.844
 114712891.742 8  89386756.263 7  21829113.875                    21829120.270
 118337535.336 7  92211115.909 7  22518886.000                    22518896.086
 119710568.206 7  93281043.92045  22780138.281                    22780143.469
 120408266.872 7  93824705.68944  22912938.281                    22912946.949
 127184536.929 7  99104889.99044  24202407.391                    24202414.785
 11  8 23  3 12 30.0000000  0 10G29G26G15G18G12G05G25G02G30G21
 109183197.657 8  85077859.865 8  20776865.523                    20776872.594
 113535448.393 7  88469269.03745  21605077.313                    21605085.000
 116245025.490 7  90580624.752 7  22120689.805                    22120697.348
 125500327.750 6  97792541.75243  23881919.250                    23881927.355
 124119087.232 7  96716221.541 6  23619079.117                    23619088.484
 114789993.338 8  89446835.419 7  21843785.633                    21843792.512
 118402383.852 7  92261647.186 7  22531226.258                    22531236.715
 119761096.715 7  93320416.74245  22789753.734                    22789759.281
 120480350.500 7  93880874.70344  22926655.219                    22926663.551
 127127129.466 6  99060156.97443  24191483.117                    24191490.469
 11  8 23  3 13  0.0000000  0 10G29G26G15G18G12G05G25G02G30G21
 109131992.930 8  85037960.097 8  20767121.438                    20767128.426
 113484450.130 7  88429530.15345  21595372.258                    21595380.078
 116161429.108 7  90515484.778 7  22104781.961                    22104789.844
 125420389.589 6  97730252.38643  23866707.961                    23866715.285
 124212869.881 6  96789298.881 6  23636925.172                    23636934.254
 114867298.540 8  89507073.222 7  21858496.586                    21858503.156
 118467541.061 7  92312419.014 7  22543625.125                    22543635.523
 119811740.488 7  93359879.40345  22799390.883                    22799395.641
 120552680.143 7  93937235.42344  22940419.773                    22940428.082
 127069684.661 6  99015394.91443  24180551.438                    24180558.789
 11  8 23  3 13 30.0000000  0 10G29G26G15G18G12G05G25G02G30G21
 109081170.808 8  84998358.454 8  20757450.672                    20757457.629
 113434000.300 8  88390218.61745  21585772.188                    21585780.188
 116078114.462 7  90450564.325 7  22088927.805                    22088934.816
 125340671.857 6  97668134.76843  23851537.781                    23851545.477
 124306677.603 6  96862395.757 6  23654776.602                    23654785.129
 114944805.152 8  89567467.978 7  21873245.578                    21873252.172
 118533004.265 7  92363429.267 7  22556082.789                    22556093.176
 119862500.256 7  93399432.43945  22809050.547                    22809055.586
 120625252.879 7  93993785.57344  22954230.055                    22954237.641
 127012202.624 6  98970603.84443  24169613.484                    24169620.449
 11  8 23  3 14  0.0000000  0 10G29G26G15G18G12G05G25G02G30G21
 109030733.150 8  84959056.403 7  20747852.422                    20747859.215
 113384101.326 8  88351336.31445  21576277.039                    21576284.723
 115995084.299 7  90385865.558 7  22073127.531                    22073135.055
 125261175.069 6  97606189.28843  23836409.703                    23836417.488
 124400507.220 6  96935509.695 6  23672632.047                    23672640.605
 115022510.280 8  89628017.419 7  21888032.164                    21888038.742
 118598770.111 7  92414675.354 7  22568597.359                    22568607.461
 119913376.068 7  93439075.89645  22818731.875                    22818736.598
 120698065.083 7  94050522.34744  22968085.227                    22968093.668
 126954682.736 6  98925783.24743  24158667.234                    24158674.094
 11  8 23  3 14 30.0000000  0 10G29G26G15G18G12G05G25G02G30G21
 108980682.201 8  84920055.678 8  20738327.859                    20738334.945
 113334755.904 8  88312885.35845  21566886.711                    21566894.680
 115912341.257 7  90321390.515 7  22057381.734                    22057389.473
 125181900.024 6  97544416.65443  23821323.813                    23821332.223
 124494355.751 7  97008638.398 6  23690491.102                    23690498.848
 115100411.698 8  89688719.800 7  21902856.305                    21902862.949
 118664835.558 7  92466154.893 7  22581169.172                    22581179.980
 119964368.598 7  93478810.30845  22828434.938                    22828440.773
 120771113.576 7  94107443.22144  22981986.063                    22981994.414
 126897124.618 6  98880932.87943  24147714.133                    24147721.637
 11  8 23  3 15  0.0000000  0 10G29G26G15G18G12G05G25G02G30G21
 108931020.764 8  84881358.467 8  20728877.648                    20728884.977
 113285967.369 8  88274868.34945  21557602.422                    21557610.129
 115829889.165 7  90257142.189 7  22041691.633                    22041699.191
 125102848.027 6  97482817.78843  23806280.789                    23806288.824
 124588220.583 7  97081779.794 6  23708352.273                    23708360.344
 115178507.852 8  89749573.933 7  21917717.273                    21917724.305
 118731198.048 7  92517865.907 7  22593797.195                    22593807.469
 120015478.399 7  93518636.08644  22838161.016                    22838166.762
 120844395.537 7  94164546.01844  22995931.695                    22995939.457
 126839528.591 7  98836052.95443  24136754.141                    24136761.828
 11  8 23  3 15 30.0000000  0 10G29G26G15G18G12G05G25G02G30G21
 108881749.937 8  84842965.635 8  20719501.570                    20719508.691
 113237737.509 7  88237286.64645  21548424.484                    21548431.813
 115747730.137 7  90193122.220 7  22026057.195                    22026064.836
 125024019.332 6  97421392.97243  23791280.250                    23791288.117
 124682098.102 7  97154931.075 6  23726216.984                    23726224.945
 115256795.129 8  89810576.992 7  21932615.250                    21932621.488
 118797853.739 7  92569805.373 7  22606482.063                    22606491.645
 120066705.546 7  93558553.30144  22847908.977                    22847915.020
 120917906.924 7  94221827.59944  23009920.430                    23009928.316
 126781893.516 7  98791142.58244  24125786.969                    24125793.684
